[[{"header":{"parameterUnit":"m.s-1","parameterCategory":1,"la1":31.0,"la2":29.5877,"lo1":-88.7671,"lo2":-86.6584,"dy":0.0162,"dx":0.0185,"nx":115,"ny":88,"refTime":"2024-09-01T06:00:00:Z","depth":0,"parameterNumber":2,"parameterNumberName":"U-component_of_WINDS"},"data":[0.0,0.0,0.0,0.0,0.0,0.0,0.0,0.0,0.0,0.0,0.0,0.0,0.0,0.0,0.0,0.0,0.0,0.0,0.0,0.0,0.0,0.0,0.0,0.0,0.0,0.0,0.0,0.0,0.0,0.0,0.0,0.0,0.0,0.0,0.0,0.0,0.0,0.0,0.0,0.0,0.0,0.0,0.0,0.0,0.0,0.0,0.0,0.0,0.0,0.0,0.0,0.0,0.0,0.0,0.0,0.0,0.0,0.0,0.0,0.0,0.0,0.0,0.0,0.0,0.0,0.0,0.0,0.0,0.0,0.0,0.0,0.0,0.0,0.0,0.0,0.0,0.0,0.0,0.0,0.0,0.0,0.0,0.0,0.0,0.0,0.0,0.0,0.0,0.0,0.0,0.0,0.0,0.0,0.0,0.0,0.0,0.0,0.0,0.0,0.0,0.0,0.0,0.0,0.0,0.0,0.0,0.0,0.0,0.0,0.0,0.0,0.0,0.0,0.0,0.0,0.0,0.0,0.0,0.0,0.0,0.0,0.0,0.0,0.0,0.0,0.0,0.0,0.0,0.0,0.0,0.0,0.0,0.0,0.0,0.0,0.0,0.0,0.0,0.0,0.0,0.0,0.0,0.0,0.0,0.0,0.0,0.0,0.0,0.0,0.0,0.0,0.0,0.0,0.0,0.0,0.0,0.0,0.0,0.0,0.0,0.0,0.0,0.0,0.0,0.0,0.0,0.0,0.0,0.0,0.0,0.0,0.0,0.0,0.0,0.0,0.0,0.0,0.0,0.0,0.0,0.0,0.0,0.0,0.0,0.0,0.0,0.0,0.0,0.0,0.0,0.0,0.0,0.0,0.0,0.0,0.0,0.0,0.0,0.0,0.0,0.0,0.0,0.0,0.0,0.0,0.0,0.0,0.0,0.0,0.0,0.0,0.0,0.0,0.0,0.0,0.0,0.0,0.0,0.0,0.0,0.0,0.0,0.0,0.0,0.0,0.0,0.0,0.0,0.0,0.0,0.0,0.0,0.0,0.0,0.0,0.0,0.0,0.0,0.0,0.0,0.0,0.0,0.0,0.0,0.0,0.0,0.0,0.0,0.0,0.0,0.0,0.0,0.0,0.0,0.0,0.0,0.0,0.0,0.0,0.0,0.0,0.0,0.0,0.0,0.0,0.0,0.0,0.0,0.0,0.0,0.0,0.0,0.0,0.0,0.0,0.0,0.0,0.0,0.0,0.0,0.0,0.0,0.0,0.0,0.0,0.0,0.0,0.0,0.0,0.0,0.0,0.0,0.0,0.0,0.0,0.0,0.0,0.0,0.0,0.0,0.0,0.0,0.0,0.0,0.0,0.0,0.0,0.0,0.0,0.0,0.0,0.0,0.0,0.0,0.0,0.0,0.0,0.0,0.0,0.0,0.0,0.0,0.0,0.0,0.0,0.0,0.0,0.0,0.0,0.0,0.0,0.0,0.0,0.0,0.0,0.0,0.0,0.0,0.0,0.0,0.0,0.0,0.0,0.0,0.0,0.0,0.0,0.0,0.0,0.0,0.0,0.0,0.0,0.0,0.0,0.0,0.0,0.0,0.0,0.0,0.0,0.0,0.0,0.0,0.0,0.0,0.0,0.0,0.0,0.0,0.0,0.0,0.0,0.0,0.0,0.0,0.0,0.0,0.0,0.0,0.0,0.0,0.0,0.0,0.0,0.0,0.0,0.0,0.0,0.0,0.0,0.0,0.0,0.0,0.0,0.0,0.0,0.0,0.0,0.0,0.0,0.0,0.0,0.0,0.0,0.0,0.0,0.0,0.0,0.0,0.0,0.0,0.0,0.0,0.0,0.0,0.0,0.0,0.0,0.0,0.0,0.0,0.0,0.0,0.0,0.0,0.0,0.0,0.0,0.0,0.0,0.0,0.0,0.0,0.0,0.0,0.0,0.0,0.0,0.0,0.0,0.0,0.0,0.0,0.0,0.0,0.0,0.0,0.0,0.0,0.0,0.0,0.0,0.0,0.0,0.0,0.0,0.0,0.0,0.0,0.0,0.0,0.0,0.0,0.0,0.0,0.0,0.0,0.0,0.0,0.0,0.0,0.0,0.0,0.0,0.0,0.0,0.0,0.0,0.0,0.0,0.0,0.0,0.0,0.0,0.0,0.0,0.0,0.0,0.0,0.0,0.0,0.0,0.0,0.0,0.0,0.0,0.0,0.0,0.0,0.0,0.0,0.0,0.0,0.0,0.0,0.0,0.0,0.0,0.0,0.0,0.0,0.0,0.0,0.0,0.0,0.0,0.0,0.0,0.0,0.0,0.0,0.0,0.0,0.0,0.0,0.0,0.0,0.0,0.0,0.0,0.0,0.0,0.0,0.0,0.0,0.0,0.0,0.0,0.0,0.0,0.0,0.0,0.0,0.0,0.0,0.0,0.0,0.0,0.0,0.0,0.0,0.0,0.0,0.0,0.0,0.0,0.0,0.0,0.0,0.0,0.0,0.0,0.0,0.0,0.0,0.0,0.0,0.0,0.0,0.0,0.0,0.0,0.0,0.0,0.0,0.0,0.0,0.0,0.0,0.0,0.0,0.0,0.0,0.0,0.0,0.0,0.0,0.0,0.0,0.0,0.0,0.0,0.0,0.0,0.0,0.0,0.0,0.0,0.0,0.0,0.0,0.0,0.0,0.0,0.0,0.0,0.0,0.0,0.0,0.0,0.0,0.0,0.0,0.0,0.0,0.0,0.0,0.0,0.0,0.0,0.0,0.0,0.0,0.0,0.0,0.0,0.0,0.0,0.0,0.0,0.0,0.0,0.0,0.0,0.0,0.0,0.0,0.0,0.0,0.0,0.0,0.0,0.0,0.0,0.0,0.0,0.0,0.0,0.0,0.0,0.0,0.0,0.0,0.0,0.0,0.0,0.0,0.0,0.0,0.0,0.0,0.0,0.0,0.0,0.0,0.0,0.0,0.0,0.0,0.0,0.0,0.0,0.0,0.0,0.0,0.0,0.0,0.0,0.0,0.0,0.0,0.0,0.0,0.0,0.0,0.0,0.0,0.0,0.0,0.0,0.0,0.0,0.0,0.0,0.0,0.0,0.0,0.0,0.0,0.0,0.0,0.0,0.0,0.0,0.0,0.0,0.0,0.0,0.0,0.0,0.0,0.0,0.0,0.0,0.0,0.0,0.0,0.0,0.0,0.0,0.0,0.0,0.0,0.0,0.0,0.0,0.0,0.0,0.0,0.0,0.0,0.0,0.0,0.0,0.0,0.0,0.0,0.0,0.0,0.0,0.0,0.0,0.0,0.0,0.0,0.0,0.0,0.0,0.0,0.0,0.0,0.0,0.0,0.0,0.0,0.0,0.0,0.0,0.0,0.0,0.0,0.0,0.0,0.0,0.0,0.0,0.0,0.0,0.0,0.0,0.0,0.0,0.0,0.0,0.0,0.0,0.0,0.0,0.0,0.0,0.0,0.0,0.0,0.0,0.0,0.0,0.0,0.0,0.0,0.0,0.0,0.0,0.0,0.0,0.0,0.0,0.0,0.0,0.0,0.0,0.0,0.0,0.0,0.0,0.0,0.0,0.0,0.0,0.0,0.0,0.0,0.0,0.0,0.0,0.0,0.0,0.0,0.0,0.0,0.0,0.0,0.0,0.0,0.0,0.0,0.0,0.0,0.0,0.0,0.0,0.0,0.0,0.0,0.0,0.0,0.0,0.0,0.0,0.0,0.0,0.0,0.0,0.0,0.0,0.0,0.0,0.0,0.0,0.0,0.0,0.0,0.0,0.0,0.0,0.0,0.0,0.0,0.0,0.0,0.0,0.0,0.0,0.0,0.0,0.0,0.0,0.0,0.0,0.0,0.0,0.0,0.0,0.0,0.0,0.0,0.0,0.0,0.0,0.0,0.0,0.0,0.0,0.0,0.0,0.0,0.0,0.0,0.0,0.0,0.0,0.0,0.0,0.0,0.0,0.0,0.0,0.0,0.0,0.0,0.0,0.0,0.0,0.0,0.0,0.0,0.0,0.0,0.0,0.0,0.0,0.0,0.0,0.0,0.0,0.0,0.0,0.0,0.0,0.0,0.0,0.0,0.0,0.0,0.0,0.0,0.0,0.0,0.0,0.0,0.0,0.0,0.0,0.0,0.0,0.0,0.0,0.0,0.0,0.0,0.0,0.0,0.0,0.0,0.0,0.0,0.0,0.0,0.0,0.0,0.0,0.0,0.0,0.0,0.0,0.0,0.0,0.0,0.0,0.0,0.0,0.0,0.0,0.0,0.0,0.0,-0.7161,0.0,0.0,0.0,0.0,0.0,0.0,0.0,0.0,0.0,0.0,0.0,0.0,0.0,0.0,0.0,0.0,0.0,0.0,0.0,0.0,0.0,0.0,0.0,0.0,0.0,0.0,0.0,0.0,0.0,0.0,0.0,0.0,0.0,0.0,0.0,0.0,0.0,0.0,0.0,0.0,0.0,0.0,0.0,0.0,0.0,0.0,0.0,0.0,0.0,0.0,0.0,0.0,0.0,0.0,0.0,0.0,0.0,0.0,0.0,0.0,0.0,0.0,0.0,0.0,0.0,0.0,0.0,0.0,0.0,0.0,0.0,0.0,0.0,0.0,0.0,0.0,0.0,0.0,0.0,0.0,0.0,0.0,0.0,0.0,0.0,0.0,0.0,0.0,0.0,0.0,0.0,0.0,0.0,0.0,0.0,0.0,0.0,0.0,0.0,0.0,0.0,0.0,0.0,0.0,0.0,0.0,0.0,0.0,0.0,0.0,-0.7301,-0.7241,-0.7301,-0.7247,-0.7067,0.0,0.0,0.0,0.0,0.0,0.0,0.0,0.0,0.0,0.0,0.0,0.0,0.0,0.0,0.0,0.0,0.0,0.0,0.0,0.0,0.0,0.0,0.0,0.0,0.0,0.0,0.0,0.0,0.0,0.0,0.0,0.0,0.0,0.0,0.0,0.0,0.0,0.0,0.0,0.0,0.0,0.0,0.0,0.0,0.0,0.0,0.0,0.0,0.0,0.0,0.0,0.0,0.0,0.0,0.0,0.0,0.0,0.0,0.0,0.0,0.0,0.0,0.0,0.0,0.0,0.0,0.0,0.0,0.0,0.0,0.0,0.0,0.0,0.0,0.0,0.0,0.0,0.0,0.0,0.0,0.0,0.0,0.0,0.0,0.0,0.0,0.0,0.0,0.0,0.0,0.0,0.0,0.0,0.0,0.0,0.0,0.0,0.0,0.0,0.0,0.0,0.0,0.0,0.0,0.0,0.0,0.0,0.0,0.0,0.0,0.0,0.0,-0.7394,-0.7317,-0.7035,0.0,0.0,0.0,0.0,0.0,0.0,0.0,0.0,0.0,0.0,0.0,0.0,0.0,0.0,0.0,0.0,0.0,0.0,0.0,0.0,0.0,0.0,0.0,0.0,0.0,0.0,0.0,0.0,0.0,0.0,0.0,0.0,0.0,0.0,0.0,0.0,0.0,0.0,0.0,0.0,0.0,0.0,0.0,0.0,0.0,0.0,0.0,0.0,0.0,0.0,0.0,0.0,0.0,0.0,0.0,0.0,0.0,0.0,0.0,0.0,0.0,0.0,0.0,0.0,0.0,0.0,0.0,0.0,0.0,0.0,0.0,0.0,0.0,0.0,0.0,0.0,0.0,0.0,0.0,0.0,0.0,0.0,0.0,0.0,0.0,0.0,0.0,0.0,0.0,0.0,0.0,0.0,0.0,0.0,0.0,0.0,0.0,0.0,0.0,0.0,0.0,0.0,0.0,0.0,0.0,0.0,0.0,0.0,0.0,0.0,-0.7551,-0.7649,-0.7758,0.0,-0.7237,0.0,0.0,0.0,0.0,0.0,0.0,0.0,0.0,0.0,0.0,0.0,0.0,0.0,0.0,0.0,0.0,0.0,0.0,0.0,0.0,0.0,0.0,0.0,0.0,0.0,0.0,0.0,0.0,0.0,0.0,0.0,0.0,0.0,0.0,0.0,0.0,0.0,0.0,0.0,0.0,0.0,0.0,0.0,0.0,0.0,0.0,0.0,0.0,0.0,0.0,0.0,0.0,0.0,0.0,0.0,0.0,0.0,0.0,0.0,0.0,0.0,0.0,0.0,0.0,0.0,0.0,0.0,0.0,0.0,0.0,0.0,0.0,0.0,0.0,0.0,0.0,0.0,0.0,0.0,0.0,0.0,0.0,0.0,0.0,0.0,0.0,0.0,0.0,0.0,0.0,0.0,0.0,0.0,0.0,0.0,0.0,0.0,0.0,0.0,0.0,0.0,0.0,0.0,0.0,0.0,0.0,0.0,0.0,0.0,0.0,-0.7649,-0.7703,-0.7535,-0.7413,0.0,0.0,0.0,0.0,0.0,0.0,0.0,0.0,0.0,0.0,0.0,0.0,0.0,0.0,0.0,0.0,0.0,0.0,0.0,0.0,0.0,0.0,0.0,0.0,0.0,0.0,0.0,0.0,0.0,0.0,0.0,0.0,0.0,0.0,0.0,0.0,0.0,0.0,0.0,0.0,0.0,0.0,0.0,0.0,0.0,0.0,0.0,0.0,0.0,0.0,0.0,0.0,0.0,0.0,0.0,0.0,0.0,0.0,0.0,0.0,0.0,0.0,0.0,0.0,0.0,0.0,0.0,0.0,0.0,0.0,0.0,0.0,0.0,0.0,0.0,0.0,0.0,0.0,0.0,0.0,0.0,0.0,0.0,0.0,0.0,0.0,0.0,0.0,0.0,0.0,0.0,0.0,0.0,0.0,0.0,0.0,0.0,0.0,0.0,0.0,0.0,0.0,0.0,0.0,0.0,0.0,0.0,0.0,0.0,0.0,-0.7627,-0.7714,-0.7736,-0.755,-0.7336,-0.7166,0.0,0.0,0.0,0.0,0.0,0.0,0.0,0.0,0.0,0.0,0.0,0.0,0.0,0.0,0.0,0.0,0.0,0.0,0.0,0.0,0.0,0.0,0.0,0.0,0.0,0.0,0.0,0.0,0.0,0.0,0.0,0.0,0.0,0.0,0.0,0.0,0.0,0.0,0.0,0.0,0.0,0.0,0.0,0.0,0.0,0.0,0.0,0.0,0.0,0.0,0.0,0.0,0.0,0.0,0.0,0.0,0.0,0.0,0.0,0.0,0.0,0.0,0.0,0.0,0.0,0.0,0.0,0.0,0.0,0.0,0.0,0.0,0.0,0.0,0.0,0.0,0.0,0.0,0.0,0.0,0.0,0.0,0.0,0.0,0.0,0.0,0.0,0.0,0.0,0.0,0.0,0.0,0.0,0.0,0.0,0.0,0.0,0.0,0.0,0.0,0.0,0.0,0.0,0.0,0.0,0.0,0.0,0.0,0.0,-0.7747,-0.7752,-0.7867,-0.7845,-0.7573,0.0,0.0,0.0,0.0,0.0,0.0,0.0,0.0,0.0,0.0,0.0,0.0,0.0,0.0,0.0,0.0,0.0,0.0,0.0,0.0,0.0,0.0,0.0,0.0,0.0,0.0,0.0,0.0,0.0,0.0,0.0,0.0,0.0,0.0,0.0,0.0,0.0,0.0,0.0,0.0,0.0,0.0,0.0,0.0,0.0,0.0,0.0,0.0,0.0,0.0,0.0,0.0,0.0,0.0,0.0,0.0,0.0,0.0,0.0,0.0,0.0,0.0,0.0,0.0,0.0,0.0,0.0,0.0,0.0,0.0,0.0,0.0,0.0,0.0,0.0,0.0,0.0,0.0,0.0,0.0,0.0,0.0,0.0,0.0,0.0,0.0,0.0,0.0,0.0,0.0,0.0,0.0,0.0,0.0,0.0,0.0,0.0,0.0,0.0,0.0,0.0,0.0,0.0,0.0,0.0,0.0,0.0,0.0,0.0,-0.7519,-0.7638,-0.7867,-0.8187,-0.7698,-0.7383,0.0,0.0,0.0,0.0,0.0,0.0,0.0,0.0,0.0,0.0,0.0,0.0,0.0,0.0,0.0,0.0,0.0,0.0,0.0,0.0,0.0,0.0,0.0,0.0,0.0,0.0,0.0,0.0,0.0,0.0,0.0,0.0,0.0,0.0,0.0,0.0,0.0,0.0,0.0,0.0,0.0,0.0,0.0,0.0,0.0,0.0,0.0,0.0,0.0,0.0,0.0,0.0,0.0,0.0,0.0,0.0,0.0,0.0,0.0,0.0,0.0,0.0,0.0,0.0,0.0,0.0,0.0,0.0,0.0,0.0,0.0,0.0,0.0,0.0,0.0,0.0,0.0,0.0,0.0,0.0,0.0,0.0,0.0,0.0,0.0,0.0,0.0,0.0,0.0,0.0,0.0,0.0,0.0,0.0,0.0,0.0,0.0,0.0,0.0,0.0,0.0,0.0,0.0,0.0,0.0,0.0,0.0,0.0,0.0,-0.7448,0.0,-0.7975,0.0,-0.7633,-0.7301,0.0,0.0,0.0,0.0,0.0,0.0,0.0,0.0,0.0,0.0,0.0,0.0,0.0,0.0,0.0,0.0,0.0,0.0,0.0,0.0,0.0,0.0,0.0,0.0,0.0,0.0,0.0,0.0,0.0,0.0,0.0,0.0,0.0,0.0,0.0,0.0,0.0,0.0,0.0,0.0,0.0,0.0,0.0,0.0,0.0,0.0,0.0,0.0,0.0,0.0,0.0,0.0,0.0,0.0,0.0,0.0,0.0,0.0,0.0,0.0,0.0,0.0,0.0,0.0,0.0,0.0,0.0,0.0,0.0,0.0,0.0,0.0,0.0,0.0,0.0,0.0,0.0,0.0,0.0,0.0,0.0,0.0,0.0,0.0,0.0,0.0,0.0,0.0,0.0,0.0,0.0,0.0,0.0,0.0,0.0,0.0,0.0,0.0,0.0,0.0,0.0,0.0,0.0,0.0,0.0,0.0,0.0,0.0,-0.7287,-0.7687,-0.8035,-0.8057,-0.7731,-0.7698,-0.7355,0.0,0.0,0.0,0.0,0.0,0.0,0.0,0.0,0.0,0.0,0.0,0.0,0.0,0.0,0.0,0.0,0.0,0.0,0.0,0.0,0.0,0.0,0.0,0.0,0.0,0.0,0.0,0.0,0.0,0.0,0.0,0.0,0.0,0.0,0.0,0.0,0.0,0.0,0.0,0.0,0.0,0.0,0.0,0.0,0.0,0.0,0.0,0.0,0.0,0.0,0.0,0.0,0.0,0.0,0.0,0.0,0.0,0.0,0.0,0.0,0.0,0.0,0.0,0.0,0.0,0.0,0.0,0.0,0.0,0.0,0.0,0.0,0.0,0.0,0.0,0.0,0.0,0.0,0.0,0.0,0.0,0.0,0.0,0.0,0.0,0.0,0.0,0.0,0.0,0.0,0.0,0.0,0.0,0.0,0.0,0.0,0.0,0.0,0.0,0.0,0.0,0.0,0.0,0.0,0.0,0.0,0.0,0.0,0.0,-0.7703,-0.7888,-0.8051,-0.8171,-0.7709,-0.7383,0.0,0.0,0.0,0.0,0.0,0.0,0.0,0.0,0.0,0.0,0.0,0.0,0.0,0.0,0.0,0.0,0.0,0.0,0.0,0.0,0.0,0.0,0.0,0.0,0.0,0.0,0.0,0.0,0.0,0.0,0.0,0.0,0.0,0.0,0.0,0.0,0.0,0.0,0.0,0.0,0.0,0.0,0.0,0.0,0.0,0.0,0.0,0.0,0.0,0.0,0.0,0.0,0.0,0.0,0.0,0.0,0.0,0.0,0.0,0.0,0.0,0.0,0.0,0.0,0.0,0.0,0.0,0.0,0.0,0.0,0.0,0.0,0.0,0.0,0.0,0.0,0.0,0.0,0.0,0.0,0.0,0.0,0.0,0.0,0.0,0.0,0.0,0.0,0.0,0.0,0.0,0.0,0.0,0.0,0.0,0.0,0.0,0.0,0.0,0.0,0.0,0.0,0.0,0.0,0.0,0.0,0.0,0.0,0.0,-0.8037,-0.8166,-0.8339,-0.8475,-0.791,-0.7529,-0.7377,0.0,0.0,0.0,0.0,0.0,0.0,0.0,0.0,0.0,0.0,0.0,0.0,0.0,0.0,0.0,0.0,0.0,0.0,0.0,0.0,0.0,0.0,0.0,0.0,0.0,0.0,0.0,0.0,0.0,0.0,0.0,0.0,0.0,0.0,0.0,0.0,0.0,0.0,0.0,0.0,0.0,0.0,0.0,0.0,0.0,0.0,0.0,0.0,0.0,0.0,0.0,0.0,0.0,0.0,0.0,0.0,0.0,0.0,0.0,0.0,0.0,0.0,0.0,0.0,0.0,0.0,0.0,0.0,0.0,0.0,0.0,0.0,0.0,0.0,0.0,0.0,0.0,0.0,0.0,0.0,0.0,0.0,0.0,0.0,0.0,0.0,0.0,0.0,0.0,0.0,0.0,0.0,0.0,0.0,0.0,0.0,0.0,0.0,0.0,0.0,0.0,0.0,0.0,0.0,0.0,0.0,0.0,0.0,-0.8563,-0.887,-0.8936,-0.8622,-0.8322,-0.7851,0.0,0.0,0.0,0.0,0.0,0.0,0.0,0.0,0.0,0.0,0.0,0.0,0.0,0.0,0.0,0.0,0.0,0.0,0.0,0.0,0.0,0.0,0.0,0.0,0.0,0.0,0.0,0.0,0.0,0.0,0.0,0.0,0.0,0.0,0.0,0.0,0.0,0.0,0.0,0.0,0.0,0.0,0.0,0.0,0.0,0.0,0.0,0.0,0.0,0.0,0.0,0.0,0.0,0.0,0.0,0.0,0.0,0.0,0.0,0.0,0.0,0.0,0.0,0.0,0.0,0.0,0.0,0.0,0.0,0.0,0.0,0.0,0.0,0.0,0.0,0.0,0.0,0.0,0.0,0.0,0.0,0.0,0.0,0.0,0.0,0.0,0.0,0.0,0.0,0.0,0.0,0.0,0.0,0.0,0.0,0.0,0.0,0.0,0.0,0.0,0.0,0.0,0.0,0.0,0.0,0.0,0.0,0.0,0.0,-1.0545,-1.0973,-1.0546,-0.9062,-0.847,-0.7992,0.0,0.0,0.0,0.0,0.0,0.0,0.0,0.0,0.0,0.0,0.0,0.0,0.0,0.0,0.0,0.0,0.0,0.0,0.0,0.0,0.0,0.0,0.0,0.0,0.0,0.0,0.0,0.0,0.0,0.0,0.0,0.0,0.0,0.0,0.0,0.0,0.0,0.0,0.0,0.0,0.0,0.0,0.0,0.0,0.0,0.0,0.0,0.0,0.0,0.0,0.0,0.0,0.0,0.0,0.0,0.0,0.0,0.0,0.0,0.0,0.0,0.0,0.0,0.0,0.0,0.0,0.0,0.0,0.0,0.0,0.0,0.0,0.0,0.0,0.0,0.0,0.0,0.0,0.0,0.0,0.0,0.0,0.0,0.0,0.0,0.0,0.0,0.0,0.0,0.0,0.0,0.0,0.0,0.0,0.0,0.0,0.0,0.0,0.0,0.0,0.0,0.0,0.0,0.0,0.0,0.0,0.0,0.0,-1.349,-1.1447,-1.199,-1.17,-1.0456,-0.9188,-0.8296,0.0,0.0,0.0,0.0,0.0,0.0,0.0,0.0,0.0,0.0,0.0,0.0,0.0,0.0,0.0,0.0,0.0,0.0,0.0,0.0,0.0,0.0,0.0,0.0,0.0,0.0,0.0,0.0,0.0,0.0,0.0,0.0,0.0,0.0,0.0,0.0,0.0,0.0,0.0,0.0,0.0,0.0,0.0,0.0,0.0,0.0,0.0,0.0,0.0,0.0,0.0,0.0,0.0,0.0,0.0,0.0,0.0,0.0,0.0,0.0,0.0,0.0,0.0,0.0,0.0,0.0,0.0,0.0,0.0,0.0,0.0,0.0,0.0,0.0,0.0,0.0,0.0,0.0,0.0,0.0,0.0,0.0,0.0,0.0,0.0,0.0,0.0,0.0,0.0,0.0,0.0,0.0,0.0,0.0,0.0,0.0,0.0,0.0,0.0,0.0,0.0,0.0,0.0,0.0,0.0,0.0,0.0,0.0,-1.4222,-1.2226,-1.27,-1.295,-1.2773,-1.0329,-0.8628,0.0,0.0,0.0,0.0,0.0,0.0,0.0,0.0,0.0,0.0,0.0,0.0,0.0,0.0,0.0,0.0,0.0,0.0,0.0,0.0,0.0,0.0,0.0,0.0,0.0,0.0,0.0,0.0,0.0,0.0,0.0,0.0,0.0,0.0,0.0,0.0,0.0,0.0,0.0,0.0,0.0,0.0,0.0,0.0,0.0,0.0,0.0,0.0,0.0,0.0,0.0,0.0,0.0,0.0,0.0,0.0,0.0,0.0,0.0,0.0,0.0,0.0,0.0,0.0,0.0,0.0,0.0,0.0,0.0,0.0,0.0,0.0,0.0,0.0,0.0,0.0,0.0,0.0,0.0,0.0,0.0,0.0,0.0,0.0,0.0,0.0,0.0,0.0,0.0,0.0,0.0,0.0,0.0,0.0,0.0,0.0,0.0,0.0,0.0,0.0,0.0,0.0,0.0,0.0,0.0,0.0,0.0,0.0,-1.6626,-1.5671,-1.6127,-1.6308,-1.6103,-1.1467,-0.8704,0.0,0.0,0.0,0.0,0.0,0.0,0.0,0.0,0.0,0.0,0.0,0.0,0.0,0.0,0.0,0.0,0.0,0.0,0.0,0.0,0.0,0.0,0.0,0.0,0.0,0.0,0.0,0.0,0.0,0.0,0.0,0.0,0.0,0.0,0.0,0.0,0.0,0.0,0.0,0.0,0.0,0.0,0.0,0.0,0.0,0.0,0.0,0.0,-0.6615,0.0,0.0,0.0,0.0,0.0,0.0,0.0,0.0,0.0,0.0,0.0,0.0,0.0,0.0,0.0,0.0,0.0,0.0,0.0,0.0,0.0,0.0,0.0,0.0,0.0,0.0,0.0,0.0,0.0,0.0,0.0,0.0,0.0,0.0,0.0,0.0,0.0,0.0,0.0,0.0,0.0,0.0,0.0,0.0,0.0,0.0,0.0,0.0,0.0,0.0,0.0,0.0,0.0,0.0,0.0,0.0,0.0,0.0,0.0,-1.7541,-1.6874,-1.7226,-1.735,-1.7133,-1.3439,-1.1049,0.0,0.0,0.0,0.0,0.0,0.0,0.0,0.0,0.0,0.0,0.0,0.0,0.0,0.0,0.0,0.0,0.0,0.0,0.0,0.0,0.0,0.0,0.0,0.0,0.0,0.0,0.0,0.0,0.0,0.0,0.0,0.0,0.0,0.0,0.0,0.0,0.0,0.0,0.0,0.0,0.0,0.0,0.0,0.0,0.0,0.0,0.0,0.0,0.0,0.0,0.0,0.0,0.0,0.0,0.0,0.0,0.0,0.0,0.0,0.0,0.0,0.0,0.0,0.0,0.0,0.0,0.0,0.0,0.0,0.0,0.0,0.0,0.0,0.0,0.0,0.0,0.0,0.0,0.0,0.0,0.0,0.0,0.0,0.0,0.0,0.0,0.0,0.0,0.0,0.0,0.0,0.0,0.0,0.0,0.0,0.0,0.0,0.0,0.0,0.0,0.0,0.0,0.0,0.0,0.0,0.0,0.0,-1.6907,-1.7861,-1.7502,-1.767,-1.7788,-1.7768,-1.5901,-1.4405,-1.329,0.0,0.0,0.0,0.0,0.0,0.0,0.0,0.0,0.0,0.0,0.0,0.0,0.0,0.0,0.0,0.0,0.0,0.0,0.0,0.0,0.0,0.0,0.0,0.0,0.0,0.0,0.0,0.0,0.0,0.0,0.0,0.0,0.0,0.0,0.0,0.0,0.0,0.0,-0.597,-0.6194,0.0,0.0,0.0,0.0,0.0,0.0,0.0,0.0,-0.659,0.0,0.0,0.0,0.0,0.0,0.0,0.0,0.0,0.0,0.0,0.0,0.0,0.0,0.0,0.0,0.0,0.0,0.0,0.0,0.0,0.0,0.0,0.0,0.0,0.0,0.0,0.0,0.0,0.0,0.0,0.0,0.0,0.0,0.0,0.0,0.0,0.0,0.0,0.0,0.0,0.0,0.0,0.0,0.0,0.0,0.0,0.0,0.0,0.0,0.0,0.0,0.0,0.0,0.0,0.0,0.0,-1.7111,-1.7545,-1.8342,-1.9382,-1.9499,-1.9466,-1.9445,-1.856,-1.741,-1.601,0.0,0.0,0.0,0.0,0.0,0.0,0.0,0.0,0.0,0.0,0.0,0.0,0.0,0.0,0.0,0.0,0.0,0.0,0.0,0.0,0.0,0.0,0.0,0.0,0.0,0.0,0.0,0.0,0.0,0.0,0.0,0.0,0.0,0.0,0.0,0.0,0.0,0.0,0.0,-0.6469,-0.6496,0.0,0.0,0.0,0.0,0.0,0.0,0.0,0.0,-0.6601,0.0,0.0,0.0,0.0,0.0,0.0,0.0,0.0,0.0,0.0,0.0,0.0,0.0,0.0,0.0,0.0,0.0,0.0,0.0,0.0,0.0,0.0,0.0,0.0,0.0,0.0,0.0,0.0,0.0,0.0,0.0,0.0,0.0,0.0,0.0,0.0,0.0,0.0,0.0,0.0,0.0,0.0,0.0,0.0,0.0,0.0,0.0,0.0,0.0,0.0,0.0,0.0,0.0,0.0,0.0,-1.727,-1.7949,-1.8789,-1.9876,-1.9919,-1.9919,-1.9898,-1.8799,-1.768,0.0,0.0,0.0,0.0,0.0,0.0,0.0,0.0,0.0,0.0,0.0,0.0,0.0,0.0,0.0,0.0,0.0,0.0,0.0,0.0,0.0,0.0,0.0,0.0,0.0,0.0,0.0,0.0,0.0,0.0,0.0,0.0,0.0,0.0,0.0,0.0,0.0,0.0,0.0,0.0,-0.6504,-0.6643,-0.6774,0.0,0.0,0.0,0.0,0.0,0.0,-0.6668,-0.657,0.0,0.0,0.0,0.0,0.0,0.0,0.0,0.0,0.0,0.0,0.0,0.0,0.0,0.0,0.0,0.0,0.0,0.0,0.0,0.0,0.0,0.0,0.0,0.0,0.0,0.0,0.0,0.0,0.0,0.0,0.0,0.0,0.0,0.0,0.0,0.0,0.0,0.0,0.0,0.0,0.0,0.0,0.0,0.0,0.0,0.0,0.0,0.0,0.0,0.0,0.0,0.0,0.0,0.0,0.0,-1.699,-1.8089,-1.9036,-1.9876,-1.9919,-1.9919,-1.9898,-1.8509,-1.7324,0.0,0.0,0.0,0.0,0.0,0.0,0.0,0.0,0.0,0.0,0.0,0.0,0.0,0.0,0.0,0.0,0.0,0.0,0.0,0.0,0.0,0.0,0.0,0.0,0.0,0.0,0.0,0.0,0.0,0.0,0.0,0.0,0.0,0.0,0.0,0.0,0.0,0.0,0.0,0.0,0.0,-0.6807,-0.6872,-0.6823,0.0,0.0,0.0,0.0,-0.6865,-0.6955,0.0,0.0,0.0,0.0,0.0,0.0,0.0,0.0,0.0,0.0,0.0,0.0,0.0,0.0,0.0,0.0,0.0,0.0,0.0,0.0,0.0,0.0,0.0,0.0,0.0,0.0,0.0,0.0,0.0,0.0,0.0,0.0,0.0,0.0,0.0,0.0,0.0,0.0,0.0,0.0,0.0,0.0,0.0,0.0,0.0,0.0,0.0,0.0,0.0,0.0,0.0,0.0,0.0,0.0,0.0,0.0,-1.6958,-1.7776,-1.8724,-1.9854,-1.9919,-1.9919,-1.9908,-1.8681,-1.7507,0.0,0.0,0.0,0.0,0.0,0.0,0.0,0.0,0.0,0.0,0.0,0.0,0.0,0.0,0.0,0.0,0.0,0.0,0.0,0.0,0.0,0.0,0.0,0.0,0.0,0.0,0.0,0.0,0.0,0.0,0.0,0.0,0.0,0.0,0.0,0.0,0.0,0.0,0.0,0.0,0.0,-0.6962,-0.6974,-0.6966,-0.6929,0.0,0.0,-0.7625,-0.7577,-0.7948,0.0,0.0,0.0,0.0,0.0,0.0,0.0,0.0,0.0,0.0,0.0,0.0,0.0,0.0,0.0,0.0,0.0,0.0,0.0,0.0,0.0,0.0,0.0,0.0,0.0,0.0,0.0,0.0,0.0,0.0,0.0,0.0,0.0,0.0,0.0,0.0,0.0,0.0,0.0,0.0,0.0,0.0,0.0,0.0,0.0,0.0,0.0,0.0,0.0,0.0,0.0,0.0,0.0,0.0,0.0,-1.5881,-1.7001,-1.825,-1.9198,-1.9887,-1.9919,-1.9919,-1.9919,-1.8304,-1.7109,0.0,0.0,0.0,0.0,0.0,0.0,0.0,0.0,0.0,0.0,0.0,0.0,0.0,0.0,0.0,0.0,0.0,0.0,0.0,0.0,0.0,0.0,0.0,0.0,0.0,0.0,0.0,0.0,0.0,0.0,0.0,0.0,0.0,0.0,0.0,0.0,0.0,0.0,0.0,0.0,0.0,0.0,-0.7512,-0.734,0.0,0.0,0.0,-0.7842,-0.7933,0.0,0.0,0.0,0.0,0.0,0.0,0.0,0.0,0.0,0.0,0.0,0.0,0.0,0.0,0.0,0.0,0.0,0.0,0.0,0.0,0.0,0.0,0.0,0.0,0.0,0.0,0.0,0.0,0.0,0.0,0.0,0.0,0.0,0.0,0.0,0.0,0.0,0.0,0.0,0.0,0.0,0.0,0.0,0.0,0.0,0.0,0.0,0.0,0.0,0.0,0.0,0.0,0.0,0.0,0.0,0.0,0.0,-1.7012,-1.8649,-1.9607,-1.9908,-1.9919,-1.9919,-1.9887,-1.8229,0.0,0.0,0.0,0.0,0.0,0.0,0.0,0.0,0.0,0.0,0.0,0.0,0.0,0.0,0.0,0.0,0.0,0.0,0.0,0.0,0.0,0.0,0.0,0.0,0.0,0.0,0.0,-0.7119,0.0,0.0,0.0,0.0,0.0,0.0,0.0,0.0,0.0,0.0,0.0,0.0,0.0,0.0,-0.8008,-0.8013,-0.787,-0.7923,0.0,0.0,-0.8281,-0.844,-0.8736,-0.8731,0.0,0.0,0.0,0.0,0.0,0.0,0.0,0.0,0.0,0.0,0.0,0.0,0.0,0.0,0.0,0.0,0.0,0.0,0.0,0.0,0.0,0.0,0.0,0.0,0.0,0.0,0.0,0.0,0.0,0.0,0.0,0.0,0.0,0.0,0.0,0.0,0.0,0.0,0.0,0.0,0.0,0.0,0.0,0.0,0.0,0.0,0.0,0.0,0.0,0.0,0.0,0.0,0.0,0.0,-1.6363,-1.7033,-1.8649,-1.9618,-1.9908,-1.9919,-1.9919,-1.9908,-1.8864,-1.769,0.0,0.0,0.0,0.0,0.0,0.0,0.0,0.0,0.0,0.0,0.0,0.0,0.0,0.0,0.0,0.0,0.0,0.0,0.0,0.0,0.0,0.0,0.0,0.0,0.0,0.0,0.0,0.0,0.0,0.0,0.0,0.0,0.0,0.0,0.0,0.0,0.0,0.0,0.0,0.0,0.0,-0.8459,-0.8459,-0.8474,-0.8611,0.0,-0.9118,-0.9244,-0.9331,-0.9845,-0.9896,-0.8745,0.0,0.0,0.0,0.0,0.0,0.0,0.0,0.0,0.0,0.0,0.0,0.0,0.0,0.0,0.0,0.0,0.0,0.0,0.0,0.0,0.0,0.0,0.0,0.0,0.0,0.0,0.0,0.0,0.0,0.0,0.0,0.0,0.0,0.0,0.0,0.0,0.0,0.0,0.0,0.0,0.0,0.0,0.0,0.0,0.0,0.0,0.0,0.0,0.0,0.0,0.0,0.0,0.0,-1.6441,-1.7012,-1.8789,-1.9833,-1.9919,-1.9919,-1.9919,-1.9919,-1.8928,-1.7841,0.0,0.0,0.0,0.0,0.0,0.0,0.0,0.0,0.0,0.0,0.0,0.0,0.0,0.0,0.0,0.0,0.0,0.0,0.0,0.0,0.0,0.0,0.0,0.0,0.0,0.0,0.0,0.0,-1.0005,-1.0046,-1.0081,0.0,0.0,0.0,0.0,0.0,0.0,0.0,0.0,0.0,0.0,-0.9166,-0.9296,-0.9174,0.0,0.0,-0.9755,-0.9661,-0.9724,-0.988,-0.9785,-0.9106,-0.8905,0.0,0.0,0.0,0.0,0.0,0.0,0.0,0.0,0.0,0.0,0.0,0.0,0.0,0.0,0.0,0.0,0.0,0.0,0.0,0.0,0.0,0.0,0.0,0.0,0.0,0.0,0.0,0.0,0.0,0.0,0.0,0.0,0.0,0.0,0.0,0.0,0.0,0.0,0.0,0.0,0.0,0.0,0.0,0.0,0.0,0.0,0.0,0.0,0.0,0.0,0.0,0.0,-1.6646,-1.712,-1.899,-1.9919,-1.9919,-1.9919,-1.9919,-1.9898,-1.9133,-1.8164,0.0,0.0,0.0,0.0,0.0,0.0,0.0,0.0,0.0,0.0,0.0,0.0,0.0,0.0,0.0,0.0,0.0,0.0,0.0,0.0,0.0,0.0,0.0,0.0,0.0,0.0,0.0,0.0,-1.1655,-1.1726,-1.1747,0.0,0.0,0.0,0.0,0.0,0.0,0.0,0.0,0.0,0.0,-0.9771,-0.986,-0.9728,-0.9774,-1.026,-0.9998,-0.9814,-0.9958,-0.9976,-0.9824,-0.947,0.0,0.0,0.0,0.0,0.0,0.0,0.0,0.0,0.0,0.0,0.0,0.0,0.0,0.0,0.0,0.0,0.0,0.0,0.0,0.0,0.0,0.0,0.0,0.0,0.0,0.0,0.0,-1.4169,0.0,0.0,-1.3532,0.0,0.0,0.0,0.0,0.0,0.0,0.0,0.0,0.0,0.0,0.0,0.0,0.0,0.0,0.0,0.0,0.0,0.0,0.0,0.0,0.0,0.0,-1.6894,-1.7378,-1.9004,-1.9919,-1.9919,-1.9919,-1.9919,-1.9908,-1.9596,-1.881,-1.7389,0.0,0.0,0.0,0.0,0.0,0.0,0.0,0.0,0.0,0.0,0.0,0.0,0.0,0.0,0.0,0.0,0.0,0.0,0.0,0.0,0.0,0.0,0.0,0.0,0.0,0.0,-1.369,-1.4185,-1.4449,0.0,0.0,0.0,0.0,0.0,0.0,0.0,0.0,0.0,-0.9821,-0.9998,-1.0291,-1.0068,-1.0055,-1.0152,-1.0221,-0.9932,-0.978,-1.0003,-1.0117,-1.0074,0.0,0.0,0.0,0.0,0.0,0.0,0.0,0.0,0.0,0.0,0.0,0.0,0.0,0.0,0.0,0.0,0.0,0.0,0.0,0.0,0.0,0.0,0.0,0.0,0.0,0.0,0.0,-1.502,-1.4643,0.0,0.0,0.0,0.0,0.0,0.0,0.0,0.0,0.0,0.0,0.0,-1.7433,-1.7747,0.0,0.0,0.0,0.0,0.0,0.0,0.0,0.0,0.0,0.0,0.0,0.0,-1.6904,-1.7421,-1.9087,-1.9919,-1.9919,-1.9919,-1.9919,-1.9919,-1.9618,-1.8832,-1.7421,0.0,0.0,0.0,0.0,0.0,0.0,0.0,0.0,0.0,0.0,0.0,0.0,0.0,0.0,0.0,0.0,0.0,0.0,0.0,0.0,0.0,0.0,0.0,0.0,0.0,-1.5572,0.0,0.0,0.0,0.0,0.0,0.0,0.0,0.0,0.0,0.0,0.0,-1.0607,-0.996,-1.0014,-1.0144,-1.0139,-1.0313,-1.0465,0.0,0.0,0.0,0.0,0.0,0.0,0.0,0.0,0.0,0.0,0.0,0.0,0.0,0.0,-1.064,-0.9855,-0.9682,-0.962,-0.9661,0.0,0.0,0.0,0.0,0.0,0.0,0.0,0.0,0.0,0.0,0.0,0.0,0.0,0.0,-1.6244,-1.5948,-1.542,0.0,0.0,0.0,0.0,0.0,0.0,0.0,0.0,-1.8035,-1.8476,-1.8702,-1.9076,-1.8993,0.0,-1.8455,-1.7615,0.0,0.0,0.0,0.0,0.0,0.0,0.0,0.0,-1.7152,-1.7658,-1.9163,-1.9919,-1.9919,-1.9919,-1.9919,-1.9919,-1.9542,-1.8907,-1.7895,-1.6807,-1.5957,0.0,0.0,0.0,0.0,0.0,0.0,0.0,0.0,0.0,0.0,0.0,0.0,0.0,0.0,0.0,0.0,0.0,0.0,0.0,0.0,0.0,0.0,0.0,-1.664,0.0,0.0,0.0,0.0,0.0,0.0,0.0,0.0,0.0,-1.3721,-1.2748,-1.2249,-1.2122,-1.201,-1.195,-1.2067,0.0,0.0,0.0,0.0,0.0,0.0,0.0,-1.0082,-1.0199,-1.0226,-1.0307,-1.0536,-1.0933,-1.1199,-1.1118,0.0,0.0,-1.0721,-1.0612,-1.0628,-1.0585,-1.0443,-1.0318,-1.028,-1.0204,-1.0139,0.0,0.0,0.0,0.0,0.0,0.0,0.0,0.0,-1.7965,-1.7818,0.0,-1.6897,0.0,0.0,0.0,0.0,-1.6398,-1.7292,0.0,0.0,-1.9628,-2.0091,-1.9952,-1.9962,-1.9962,-1.9941,-1.965,-1.9284,-1.8756,-1.7443,0.0,0.0,0.0,0.0,0.0,0.0,-1.7615,-1.811,-1.9325,-1.9919,-1.9919,-1.9919,-1.9919,-1.9908,-1.9402,-1.9047,-1.8767,-1.7895,-1.7087,-1.6366,-1.5472,0.0,0.0,0.0,0.0,0.0,0.0,0.0,0.0,0.0,0.0,0.0,0.0,0.0,0.0,0.0,0.0,0.0,0.0,0.0,0.0,-1.712,0.0,0.0,0.0,0.0,0.0,0.0,0.0,0.0,0.0,0.0,-1.7073,-1.6955,-1.6861,-1.598,0.0,0.0,0.0,0.0,-1.4896,-1.2944,-1.2701,-1.2063,-1.0475,-1.052,-1.0688,-1.059,0.0,0.0,-1.1324,-1.1395,-1.1417,-1.1188,-1.1531,-1.1786,-1.1656,-1.1514,-1.1411,-1.1297,-1.1085,-1.0905,-1.0791,-1.0742,-1.0704,-1.8671,0.0,0.0,0.0,0.0,-1.8383,-1.8402,-1.8407,-1.8509,-1.8243,-1.7738,-1.7467,0.0,0.0,0.0,0.0,0.0,0.0,-1.8573,-1.9219,-1.9898,-2.035,-2.0608,-2.078,-2.078,-2.0608,-2.0533,-2.035,-2.0037,-1.9478,-1.8304,-1.6592,0.0,0.0,0.0,0.0,-1.7938,-1.8584,-1.9487,-1.9919,-1.9919,-1.9919,-1.9919,-1.9919,-1.9564,-1.9284,-1.9047,-1.8616,-1.797,-1.712,-1.6818,0.0,0.0,0.0,0.0,0.0,0.0,0.0,0.0,0.0,0.0,0.0,0.0,0.0,0.0,0.0,0.0,0.0,0.0,0.0,-1.7196,-1.7604,-1.778,0.0,0.0,0.0,0.0,0.0,0.0,0.0,0.0,0.0,-1.9885,-1.7752,-1.6077,0.0,0.0,-1.3562,-1.3404,-1.2675,-1.1973,-1.1517,-1.1504,0.0,-1.1034,-1.0835,-1.0786,-1.0922,-1.133,-1.1639,-1.1661,-1.183,-1.1944,-1.1868,-1.1906,-1.1955,-1.2004,-1.1917,-1.1797,-1.1683,-1.1536,-1.1395,-1.1275,-1.1183,-1.1107,-2.0447,-1.9607,-1.9175,-1.9141,-1.9357,-1.9573,-1.967,-1.986,-2.0061,-1.9937,-1.9536,-1.9245,-1.8885,-1.8516,-1.8026,0.0,0.0,0.0,-1.9241,-1.9941,-2.0317,-2.0684,-2.105,-2.12,-2.12,-2.105,-2.105,-2.0974,-2.0845,-2.0511,-1.9488,-1.783,0.0,0.0,-1.7044,-1.7766,-1.8401,-1.8928,-1.9628,-1.9951,-1.993,-1.9919,-1.9919,-1.9919,-1.9618,-1.9424,-1.9295,-1.9058,-1.8573,-1.783,-1.7615,-1.7001,0.0,0.0,0.0,0.0,0.0,0.0,0.0,0.0,0.0,0.0,0.0,-1.6452,-1.5785,0.0,0.0,0.0,-1.7227,-1.7495,-1.721,-1.8146,0.0,0.0,0.0,0.0,0.0,0.0,0.0,-1.9315,-1.9027,-1.9177,-2.0191,-1.913,-1.8255,-1.8228,-1.7012,-1.6165,-1.6279,0.0,-1.3811,-1.3238,-1.2625,-1.1952,-1.1286,-1.1145,-1.1161,-1.1351,-1.1558,-1.1743,-1.1868,-1.2047,-1.2167,-1.2161,-1.2074,-1.2009,-1.2085,-1.2004,-1.1906,-1.1835,-1.1759,-1.1656,-1.1493,-1.1395,-1.134,-2.2099,-2.1724,-2.0384,-2.0162,-2.0712,-2.0786,-2.1262,-2.1971,-2.2214,-2.2305,-2.2365,-2.1672,-2.1207,-2.0803,-1.9757,0.0,-1.9022,-1.955,-2.0114,-2.0754,-2.0903,-2.113,-2.1357,-2.1438,-2.1357,-2.1357,-2.1357,-2.1357,-2.1254,-2.0834,-2.0264,-1.9585,-1.9122,-1.8638,-1.8164,-1.8552,-1.8918,-1.9103,-1.9822,-2.0059,-1.993,-1.9919,-1.9919,-1.9919,-1.9618,-1.9488,-1.9467,-1.9284,-1.8878,-1.8455,-1.8056,-1.7496,-1.6817,0.0,0.0,0.0,0.0,0.0,0.0,0.0,0.0,0.0,0.0,0.0,0.0,0.0,0.0,0.0,-1.8789,0.0,-1.733,-1.8922,0.0,0.0,0.0,-2.0285,-2.0974,-1.9801,-1.8976,-1.885,0.0,0.0,-1.9154,-2.0721,-2.1969,-2.2278,-2.1616,-2.1306,-2.1712,-1.9735,-1.8171,-1.6212,-1.4909,-1.3246,-1.1563,-1.1422,-1.1645,-1.177,-1.1835,-1.1873,-1.1982,-1.2107,-1.2183,-1.215,-1.2074,-1.2004,-1.1993,-1.1906,-1.1819,-1.1824,-1.1803,-1.1726,-1.1509,-1.1538,-1.1438,-2.2866,-2.2385,-2.2236,-2.1907,-2.1551,-2.1734,-2.1857,-2.1877,-2.2082,-2.2105,-2.1935,-2.1762,-2.1682,-2.1517,-2.1269,-2.1148,-2.1063,-2.1444,-2.167,-2.1862,-2.2031,-2.2269,-2.2326,-2.2326,-2.2084,-2.1761,-2.1761,-2.1599,-2.1357,-2.1157,-2.0834,-2.0317,-2.0016,-1.937,-1.8401,-1.8638,-1.8993,-1.9413,-1.9585,-1.9725,-1.9919,-1.9919,-1.9919,-1.9919,-1.9618,-1.9413,-1.9241,-1.9359,-1.9112,-1.8417,-1.867,-1.8326,-1.726,-1.6484,0.0,0.0,0.0,0.0,0.0,0.0,0.0,0.0,0.0,-1.8089,-1.6603,0.0,-1.8218,0.0,-1.923,-1.9949,-1.9969,-2.0601,0.0,0.0,-2.1221,-2.1674,-2.2202,-2.2244,-2.2099,-2.1703,-2.0967,-2.0744,-2.1615,-2.1145,-2.1306,-2.2587,-2.1057,-1.9766,-1.9634,-1.7163,-1.5189,-1.4779,-1.4391,-1.3539,-1.1861,-1.1656,-1.1808,-1.1928,-1.1944,-1.1987,-1.2107,-1.2232,-1.2254,-1.2085,-1.2091,-1.2085,-1.2004,-1.1895,-1.1824,-1.1813,-1.1748,-1.1634,-1.1487,-1.1543,-1.1427,-2.3716,-2.347,-2.361,-2.3294,-2.2697,-2.2679,-2.2576,-2.2472,-2.2758,-2.2814,-2.2686,-2.2686,-2.2548,-2.2209,-2.2209,-2.2061,-2.1814,-2.2053,-2.2168,-2.2179,-2.2442,-2.2648,-2.2648,-2.2648,-2.2487,-2.2245,-2.2164,-2.2084,-2.1922,-2.1922,-2.1643,-2.1345,-2.1134,-2.057,-1.962,-1.9138,-1.9079,-1.9338,-1.9553,-1.9822,-2.0222,-2.007,-1.9908,-1.9693,-1.9359,-1.9025,-1.8692,-1.8799,-1.8638,-1.8153,-1.8476,-1.8336,-1.7572,-1.6958,-1.6538,0.0,0.0,0.0,0.0,0.0,0.0,0.0,0.0,0.0,0.0,0.0,-1.9424,-1.951,-2.0705,-2.1491,-2.1534,-2.1954,-2.2277,-2.2395,-2.2525,-2.2794,-2.3268,-2.273,-2.2291,-2.1944,-2.1224,-2.1064,-2.1625,-2.1764,-2.1757,-2.1856,-2.0647,-1.976,-1.9417,-1.7301,-1.5395,-1.4524,-1.381,-1.3035,-1.1889,-1.1808,-1.1803,-1.1775,-1.1933,-1.208,-1.2096,-1.2281,-1.2373,-1.2199,-1.2161,-1.2134,-1.2009,-1.1895,-1.1819,-1.1813,-1.1764,-1.1656,-1.1493,-1.1543,-1.1427,-2.4721,-2.4625,-2.4661,-2.4395,-2.3868,-2.3511,-2.3279,-2.3185,-2.3584,-2.3768,-2.3724,-2.3748,-2.348,-2.2949,-2.2949,-2.2583,-2.2073,-2.228,-2.2383,-2.2395,-2.2648,-2.2774,-2.2774,-2.2809,-2.282,-2.282,-2.282,-2.274,-2.2659,-2.2624,-2.2476,-2.2225,-2.2156,-2.1779,-2.1128,-1.9974,-1.9281,-1.9155,-1.9649,-2.0103,-2.0535,-2.0221,-1.9876,-1.9456,-1.8993,-1.853,-1.8121,-1.8121,-1.8035,-1.7841,-1.8078,-1.8142,-1.7949,-1.7518,-1.7464,0.0,-1.7561,0.0,0.0,0.0,0.0,0.0,0.0,0.0,0.0,-2.0597,-2.0996,-2.1502,-2.2514,-2.3009,-2.2675,-2.3192,-2.3537,-2.3537,-2.3504,-2.3655,-2.3962,-2.2544,-2.1461,-2.136,-2.137,-2.1211,-2.1261,-2.235,-2.2481,-2.0881,-2.0278,-1.9825,-1.9545,-1.8117,-1.634,-1.4817,-1.322,-1.2361,-1.2481,-1.2129,-1.1841,-1.1688,-1.1928,-1.2156,-1.2102,-1.2341,-1.2509,-1.2379,-1.2297,-1.2205,-1.2047,-1.1938,-1.1868,-1.1851,-1.183,-1.1737,-1.1547,-1.1493,-1.1476,-2.5228,-2.4649,-2.4795,-2.477,-2.4456,-2.4169,-2.3632,-2.311,-2.32,-2.3321,-2.3459,-2.3676,-2.3736,-2.3608,-2.3608,-2.3504,-2.3456,-2.3504,-2.3528,-2.354,-2.3803,-2.3923,-2.3934,-2.4138,-2.4069,-2.3739,-2.3739,-2.3574,-2.3244,-2.3049,-2.282,-2.2487,-2.2076,-2.1699,-2.1444,0.0,0.0,0.0,-1.994,-2.0067,-2.0027,-1.9564,-1.9232,-1.9135,-1.8756,0.0,-1.8121,-1.8272,-1.8347,-1.8315,-1.8713,0.0,0.0,0.0,0.0,0.0,0.0,0.0,0.0,0.0,0.0,0.0,-2.0845,-2.0748,-2.0791,-2.1523,-2.2277,-2.2934,-2.3375,-2.3817,-2.429,-2.428,-2.4258,-2.4258,-2.4097,-2.4021,-2.4107,-2.3899,-2.3799,-2.387,-2.3914,-2.3872,-2.3331,-2.2695,-2.1731,-2.0714,-1.9686,-1.8263,-1.6656,-1.5867,-1.5138,-1.4591,-1.3162,-1.2816,-1.419,-1.3134,-1.2216,-1.221,-1.2232,-1.2341,-1.2411,-1.2547,-1.2591,-1.2417,-1.2487,-1.2493,-1.2205,-1.2118,-1.2074,-1.1976,-1.1889,-1.1775,-1.1634,-1.1601,-1.1574,-2.5518,-2.5047,-2.518,-2.4999,0.0,-2.4492,-2.4057,-2.3442,-2.3442,-2.3514,-2.358,-2.3712,-2.384,-2.384,-2.3628,-2.3568,-2.3647,-2.3514,-2.3599,-2.3852,-2.3904,-2.4178,-2.4432,-2.4564,-2.4542,-2.4294,-2.4294,-2.4211,-2.3962,-2.3833,-2.3704,-2.3575,-2.3316,-2.2987,-2.2623,-2.2301,-2.161,-2.0568,-2.0804,-2.0964,-2.1045,-2.0746,-2.0513,-2.028,-1.9903,0.0,0.0,0.0,0.0,0.0,0.0,0.0,0.0,0.0,0.0,-2.0272,-2.0694,-2.1007,-2.1243,-2.1588,-2.1997,-2.246,-2.2805,-2.26,-2.2008,-2.2729,-2.3461,-2.4021,-2.4107,-2.429,-2.4743,-2.4689,-2.4581,-2.4474,-2.4355,-2.4323,-2.443,-2.4452,-2.4506,-2.4531,-2.3874,-2.3213,-2.2944,-2.1271,-1.9741,-1.8559,-1.7601,-1.634,-1.4696,-1.4738,-1.4878,-1.3844,-1.2985,-1.2662,-1.3477,-1.3158,-1.239,-1.2314,-1.2411,-1.2515,-1.2531,-1.2678,-1.2738,-1.2574,-1.2629,-1.2618,-1.2417,-1.2352,-1.2314,-1.2205,-1.2172,-1.208,-1.1873,-1.1721,-1.1601,-2.5796,-2.5518,-2.5468,-2.5264,-2.477,-2.477,-2.4468,-2.3973,-2.3808,0.0,0.0,-2.3748,-2.384,-2.376,-2.3592,-2.3507,-2.3575,-2.3406,-2.3562,-2.3904,-2.3953,-2.4287,-2.4697,-2.4745,-2.477,-2.477,-2.477,-2.477,-2.477,-2.4721,-2.4697,-2.4697,-2.4649,-2.4407,-2.3904,-2.355,-2.29,-2.209,-2.19,-2.196,-2.2156,-2.2088,-2.1949,-2.1582,-2.1284,-2.078,-2.0101,-2.0078,-1.9892,-1.9624,-1.981,-2.0092,-2.0374,-2.0751,-2.1222,-2.1825,-2.2169,-2.2611,-2.3192,-2.3222,-2.3326,-2.3384,-2.3807,-2.362,-2.281,-2.3283,-2.3685,-2.3716,-2.3832,-2.4092,-2.4356,-2.4303,-2.4313,-2.4592,-2.3853,-2.3593,-2.4083,-2.3727,-2.3341,-2.3578,-2.2221,-2.1234,-2.1187,-1.948,-1.7659,-1.6291,-1.5598,-1.463,-1.3433,-1.409,-1.4372,-1.3226,-1.2738,-1.2628,-1.2574,-1.2629,-1.2531,-1.2357,-1.2547,-1.27,-1.2683,-1.2792,-1.2863,-1.2792,-1.277,-1.2716,-1.2602,-1.2536,-1.2493,-1.2379,-1.2411,-1.2373,-1.2063,-1.1835,-1.1667,-2.623,-2.5784,-2.6013,-2.5808,-2.5325,-2.5325,-2.5011,-2.4492,-2.3965,-2.364,-2.3447,-2.3664,-2.384,-2.3772,-2.3965,-2.413,-2.413,-2.4323,-2.4444,-2.4528,-2.4686,-2.4831,-2.4999,-2.5216,-2.5325,-2.5325,-2.5325,-2.5325,-2.5216,-2.5096,-2.4903,-2.4963,-2.4745,-2.4589,-2.4516,-2.4444,-2.4301,-2.416,-2.2792,-2.2098,-2.2224,-2.1834,-2.1697,-2.1811,-2.1463,-2.1101,-2.102,-2.1032,-2.1151,-2.1508,-2.1581,-2.1867,-2.2311,-2.2368,-2.2525,-2.2848,-2.3451,-2.386,-2.3967,-2.4334,-2.3738,-2.202,-2.1942,-2.1942,-2.1756,-2.1795,-2.1292,-1.9976,-2.1065,-2.2065,-2.2499,-2.2162,-2.2755,-2.4388,-2.1546,-1.9991,-2.1925,-2.09,-2.0018,-2.0061,-1.9631,-1.9527,-1.938,-1.7786,-1.6471,-1.583,-1.4724,-1.3413,-1.3323,-1.3128,-1.324,-1.3193,-1.3053,-1.2944,-1.2868,-1.2928,-1.2863,-1.2672,-1.2754,-1.289,-1.2955,-1.3004,-1.3031,-1.302,-1.3004,-1.2928,-1.2743,-1.2602,-1.252,-1.2411,-1.2346,-1.2216,-1.2053,-1.1971,-1.1868,-2.6399,-2.6073,-2.617,-2.6085,-2.5856,-2.5711,-2.5433,-2.5035,-2.4661,-2.4347,-2.4025,-2.4133,-2.4275,-2.4263,-2.4251,-2.4226,-2.4238,-2.4359,-2.441,-2.4649,-2.4914,-2.5035,-2.518,-2.53,-2.5506,-2.5639,-2.542,-2.5506,-2.5615,-2.5385,-2.518,-2.5156,-2.4903,-2.4771,-2.4759,-2.4709,-2.4625,-2.4613,-2.3872,-2.344,-2.3503,-2.3291,-2.322,-2.3338,-2.3182,-2.2905,-2.2747,-2.2747,-2.2704,-2.2694,-2.3022,-2.323,-2.3467,-2.4015,-2.4241,-2.4252,-2.4921,-2.5277,-2.5132,-2.5466,-2.4753,-2.2641,-2.2649,-2.1629,-1.9241,-1.9604,-1.9535,-1.8838,-1.9458,-1.9888,-2.0166,-2.0105,-2.053,-2.1963,-2.0167,-1.9643,-2.0773,-2.0403,-1.9767,-1.9771,-1.905,-1.8498,-1.849,-1.6766,-1.5366,-1.5062,-1.418,-1.3749,-1.3785,-1.3688,-1.3568,-1.3238,-1.314,-1.3086,-1.3069,-1.3064,-1.3047,-1.2988,-1.2988,-1.3037,-1.3134,-1.3162,-1.3162,-1.3162,-1.3162,-1.3118,-1.2993,-1.2901,-1.2759,-1.258,-1.2509,-1.2401,-1.2248,-1.2188,-1.2058,-2.6568,-2.6315,-2.6375,-2.6363,-2.6291,-2.6025,-2.5771,-2.5518,-2.5313,-2.5071,-2.4818,-2.4685,-2.4625,-2.4613,-2.448,-2.4338,-2.442,-2.4398,-2.4625,-2.4818,-2.5035,-2.5192,-2.5506,-2.553,-2.5663,-2.5868,-2.5711,-2.5699,-2.5796,-2.5615,-2.5494,-2.5421,-2.5228,-2.5132,-2.5047,-2.4914,-2.4806,-2.4806,-2.4806,-2.4782,-2.4721,-2.4721,-2.477,-2.489,-2.483,-2.4699,-2.4471,-2.4424,-2.4256,-2.4086,-2.4332,-2.4488,-2.4534,-2.525,-2.556,-2.5445,-2.6016,-2.6442,-2.6222,-2.5994,-2.4926,-2.2764,-2.2385,-2.0588,-1.7143,-1.7143,-1.7604,-1.7712,-1.7844,-1.816,-1.8359,-1.828,-1.8671,-1.9598,-1.8939,-1.8776,-1.9824,-1.9585,-1.9167,-1.919,-1.8136,-1.7198,-1.7021,-1.5949,-1.5008,-1.4755,-1.4534,-1.461,-1.451,-1.4581,-1.4348,-1.3789,-1.3449,-1.3221,-1.327,-1.3216,-1.3189,-1.3243,-1.3162,-1.3172,-1.3243,-1.3281,-1.3281,-1.3281,-1.3281,-1.3238,-1.3205,-1.3091,-1.2928,-1.2727,-1.264,-1.258,-1.2422,-1.2384,-1.2265,-2.6834,-2.6653,-2.6834,-2.681,-2.658,-2.6303,-2.6037,-2.5796,-2.5759,-2.5517,-2.5216,-2.4842,-2.4649,-2.4661,-2.4783,-2.4879,-2.4903,-2.5132,-2.5337,-2.5361,-2.5385,-2.5456,-2.5784,-2.5796,-2.5928,-2.6146,-2.6134,-2.6001,-2.5832,-2.5784,-2.5663,-2.5372,-2.5409,-2.5324,-2.5397,-2.5373,-2.5361,-2.5276,-2.5276,-2.5252,-2.4939,-2.5011,-2.524,-2.5699,-2.5482,-2.559,-2.5889,-2.5757,-2.5733,-2.5898,-2.5796,-2.5706,-2.5752,-2.5879,-2.5983,-2.5972,-2.6359,-2.6736,-2.6823,-2.5217,-2.3275,-2.0984,-1.9371,-1.7454,-1.4969,-1.4861,-1.4823,-1.5003,-1.6156,-1.7054,-1.7486,-1.7209,-1.7966,-1.975,-1.7375,-1.5798,-1.7636,-1.6483,-1.5399,-1.5278,-1.5691,-1.5224,-1.5647,-1.5374,-1.5191,-1.5142,-1.5129,-1.5141,-1.505,-1.5099,-1.5178,-1.4925,-1.4278,-1.3598,-1.3428,-1.3401,-1.3341,-1.327,-1.3238,-1.3281,-1.3357,-1.3401,-1.3401,-1.3406,-1.3406,-1.3346,-1.3178,-1.2993,-1.2901,-1.2814,-1.27,-1.2558,-1.2526,-1.2526,-1.2411,-2.6966,-2.6882,-2.6979,-2.6966,-2.6834,-2.658,-2.6315,-2.6061,-2.5892,-2.5675,-2.5433,-2.5192,-2.5108,-2.5108,-2.5144,-2.5361,-2.553,-2.5784,-2.5904,-2.5916,-2.6073,-2.6122,-2.6061,-2.6061,-2.6122,-2.6206,-2.6218,-2.6085,-2.5844,-2.5675,-2.5542,-2.547,-2.559,-2.5675,-2.5663,-2.5663,-2.5663,-2.5663,-2.5518,-2.53,-2.5204,-2.5277,-2.5446,-2.5771,-2.5723,-2.5832,-2.617,-2.6109,-2.6109,-2.623,-2.6217,-2.6271,-2.6283,-2.681,-2.7026,-2.6908,-2.7345,-2.7164,-2.6249,-2.5281,-2.3384,-2.0081,-1.9068,-1.7613,-1.5599,-1.5446,-1.5427,-1.5316,-1.5367,-1.5398,-1.5522,-1.5391,-1.5993,-1.7091,-1.5978,-1.5662,-1.6807,-1.6381,-1.5775,-1.5736,-1.5847,-1.5957,-1.6022,-1.5787,-1.5831,-1.6053,-1.6,-1.5777,-1.5746,-1.5784,-1.5592,-1.5283,-1.4862,-1.4429,-1.4056,-1.3983,-1.385,-1.3538,-1.339,-1.339,-1.3488,-1.3531,-1.3526,-1.3526,-1.352,-1.3499,-1.3433,-1.3287,-1.3167,-1.3015,-1.2852,-1.2727,-1.2656,-1.2694,-1.2672,-2.7027,-2.7027,-2.7027,-2.7027,-2.7015,-2.6834,-2.6592,-2.6327,-2.6134,-2.5904,-2.5663,-2.5651,-2.5651,-2.5639,-2.5578,-2.5687,-2.594,-2.6134,-2.6218,-2.6242,-2.6435,-2.6447,-2.6339,-2.6339,-2.6375,-2.6423,-2.6447,-2.6315,-2.6049,-2.5784,-2.5651,-2.5687,-2.5844,-2.5928,-2.594,-2.594,-2.594,-2.5928,-2.5747,-2.5651,-2.5651,-2.5651,-2.5747,-2.5916,-2.5928,-2.6097,-2.6423,-2.6435,-2.6447,-2.6447,-2.6641,-2.6785,-2.687,-2.7461,-2.7787,-2.7787,-2.8101,-2.7723,-2.6442,-2.527,-2.3316,-2.0389,-1.9117,-1.7749,-1.6474,-1.6083,-1.6083,-1.6069,-1.5327,-1.4934,-1.4722,-1.4772,-1.5004,-1.557,-1.5727,-1.6068,-1.6469,-1.6612,-1.6639,-1.6605,-1.6617,-1.6815,-1.6725,-1.6485,-1.6545,-1.6761,-1.6551,-1.6341,-1.6348,-1.6341,-1.6236,-1.5815,-1.5815,-1.5394,-1.4862,-1.4551,-1.4331,-1.4161,-1.3912,-1.3768,-1.3785,-1.3702,-1.3602,-1.3569,-1.3597,-1.3542,-1.3412,-1.3363,-1.3352,-1.3211,-1.3053,-1.2895,-1.2781,-1.2841,-1.2868,-2.7027,-2.7027,-2.7027,-2.7027,-2.7027,-2.7015,-2.6858,-2.6592,-2.6592,-2.6435,-2.617,-2.6146,-2.6182,-2.6158,-2.5928,-2.5953,-2.6182,-2.623,-2.6254,-2.6266,-2.6278,-2.6387,-2.6527,-2.6616,-2.6737,-2.6882,-2.6906,-2.6798,-2.6556,-2.6303,-2.6182,-2.617,-2.6194,-2.6206,-2.6206,-2.6206,-2.6194,-2.6194,-2.6158,-2.6158,-2.6158,-2.6158,-2.6158,-2.6206,-2.6206,-2.6435,-2.6894,-2.6979,-2.6979,-2.6979,-2.7003,-2.7123,-2.7365,-2.7655,-2.8041,-2.8475,-2.8572,-2.8512,-2.7862,-2.473,-2.2359,-2.1566,-1.8457,-1.6282,-1.6182,-1.6083,-1.6083,-1.6083,-1.6078,-1.5978,-1.5857,-1.585,-1.5984,-1.6334,-1.6516,-1.659,-1.6734,-1.6842,-1.6876,-1.6795,-1.6863,-1.6937,-1.6958,-1.6971,-1.6873,-1.6978,-1.6978,-1.6873,-1.6873,-1.6873,-1.6873,-1.6873,-1.6768,-1.6558,-1.5592,-1.521,-1.5185,-1.4901,-1.4464,-1.4302,-1.4173,-1.403,-1.3813,-1.3708,-1.3813,-1.3736,-1.3357,-1.3287,-1.3395,-1.333,-1.3162,-1.3031,-1.2912,-1.289,-1.2917,-2.7027,-2.7027,-2.7027,-2.7027,-2.7051,-2.7208,-2.7039,-2.6575,-2.6822,-2.6629,-2.6266,-2.6218,-2.6315,-2.6484,-2.6387,-2.6399,-2.6484,-2.6484,-2.658,-2.6725,-2.6737,-2.6785,-2.687,-2.6882,-2.6834,-2.681,-2.6954,-2.6894,-2.6629,-2.6351,-2.6218,-2.6254,-2.6411,-2.6484,-2.6484,-2.6484,-2.6484,-2.6472,-2.6315,-2.6218,-2.623,-2.6218,-2.6303,-2.6472,-2.6496,-2.6653,-2.7015,-2.7027,-2.7027,-2.7027,-2.7184,-2.7317,-2.7449,-2.7824,-2.8306,-2.8801,-2.8874,-2.8351,-2.6999,-2.4434,-2.2084,-2.0479,-1.7906,-1.6185,-1.6103,-1.6083,-1.6083,-1.6096,-1.6123,-1.613,-1.6123,-1.6171,-1.6307,-1.6483,-1.6578,-1.67,-1.6856,-1.6951,-1.6958,-1.6917,-1.6951,-1.6978,-1.6978,-1.6978,-1.6978,-1.6978,-1.6978,-1.6985,-1.6978,-1.6978,-1.6985,-1.6978,-1.6978,-1.6873,-1.6558,-1.6,-1.5654,-1.5327,-1.5,-1.4982,-1.482,-1.4691,-1.4569,-1.454,-1.4551,-1.4423,-1.4279,-1.4354,-1.4325,-1.4088,-1.3916,-1.4368,-1.3042,-1.422,-1.3822,-2.7027,-2.7027,-2.7027,-2.7027,-2.7051,-2.722,-2.7099,-2.6798,-2.6954,-2.6822,-2.652,-2.6484,-2.6629,-2.6846,-2.681,-2.687,-2.6979,-2.6858,-2.687,-2.7015,-2.7027,-2.7027,-2.7027,-2.7027,-2.6942,-2.681,-2.693,-2.693,-2.6773,-2.658,-2.6484,-2.6508,-2.6677,-2.6761,-2.6761,-2.6773,-2.6761,-2.6725,-2.658,-2.6484,-2.6484,-2.6484,-2.6568,-2.6737,-2.6671,-2.6846,-2.7027,-2.7027,-2.7075,-2.716,-2.7329,-2.7498,-2.7691,-2.8101,-2.8536,-2.8946,-2.9006,-2.8528,-2.7147,-2.4668,-2.2296,-2.0676,-1.8071,-1.6327,-1.6232,-1.6225,-1.6205,-1.6178,-1.6205,-1.6212,-1.6198,-1.6293,-1.6415,-1.6517,-1.6612,-1.6748,-1.6944,-1.6978,-1.6978,-1.6971,-1.6971,-1.6978,-1.6985,-1.7026,-1.7046,-1.7053,-1.7087,-1.7114,-1.706,-1.7046,-1.7026,-1.6992,-1.6978,-1.6978,-1.6873,-1.6538,-1.6315,-1.6092,-1.5654,-1.5542,-1.5425,-1.5382,-1.5277,-1.5357,-1.5388,-1.5283,-1.5376,-1.5555,-1.5541,-1.548,-1.6667,-1.7545,-1.674,-1.6179,-1.6253,-2.7027,-2.7027,-2.7027,-2.7027,-2.7039,-2.7087,-2.7051,-2.7015,-2.7051,-2.7027,-2.693,-2.6979,-2.7087,-2.7292,-2.7087,-2.7268,-2.7522,-2.7184,-2.7027,-2.7075,-2.7063,-2.7051,-2.7027,-2.7027,-2.7027,-2.6991,-2.7027,-2.7027,-2.6991,-2.6954,-2.6954,-2.6991,-2.6979,-2.6979,-2.7015,-2.6991,-2.7003,-2.6991,-2.6954,-2.6966,-2.7027,-2.6966,-2.6966,-2.7003,-2.7015,-2.7039,-2.7051,-2.7039,-2.7148,-2.7389,-2.7437,-2.7679,-2.8125,-2.8439,-2.8729,-2.8982,-2.9031,-2.9065,-2.8899,-2.554,-2.3332,-2.2159,-1.9041,-1.6803,-1.6442,-1.6463,-1.6415,-1.63,-1.6374,-1.6429,-1.632,-1.6408,-1.651,-1.6551,-1.6754,-1.691,-1.6965,-1.6978,-1.6978,-1.6978,-1.6978,-1.6978,-1.711,-1.7482,-1.765,-1.7699,-1.7676,-1.7725,-1.7847,-1.7826,-1.7339,-1.7335,-1.7629,-1.7853,-1.7419,-1.6978,-1.6971,-1.6853,-1.6407,-1.6079,-1.5981,-1.5955,-1.5733,-1.579,-1.6741,-1.6741,-1.7147,-1.7419,-1.8329,-1.8591,-1.9828,-2.0298,-1.9549,-1.894,-1.9771,-2.7027,-2.7027,-2.7027,-2.7027,-2.7051,-2.722,-2.7208,-2.7063,-2.7208,-2.7196,-2.7051,-2.7027,-2.7184,-2.7317,-2.7148,-2.722,-2.7498,-2.7196,-2.7123,-2.7268,-2.7292,-2.7184,-2.7051,-2.7027,-2.7027,-2.7027,-2.7027,-2.7027,-2.7027,-2.7027,-2.7027,-2.7027,-2.7027,-2.7027,-2.7027,-2.7027,-2.7027,-2.7027,-2.7027,-2.7027,-2.7027,-2.7027,-2.7027,-2.7051,-2.7196,-2.7304,-2.7292,-2.7123,-2.7244,-2.7667,-2.7691,-2.7932,-2.8391,-2.8572,-2.8825,-2.9224,-2.9284,-2.9501,-2.9575,-2.7379,-2.485,-2.3219,-2.0543,-1.8186,-1.6625,-1.6483,-1.6422,-1.6225,-1.6286,-1.6313,-1.6232,-1.6381,-1.6551,-1.6666,-1.6761,-1.6876,-1.7168,-1.7083,-1.6978,-1.6978,-1.6978,-1.7601,-1.8843,-1.9322,-1.9407,-1.9507,-1.9584,-1.9615,-1.9661,-1.976,-1.9652,-1.9427,-1.9353,-1.8791,-1.8373,-1.7732,-1.7147,-1.7231,-1.689,-1.6478,-1.6387,-1.6413,-1.6302,-1.6616,-1.7573,-1.8305,-1.8708,-1.9791,-2.0797,-2.1233,-2.1736,-2.1723,-2.1445,-2.1848,-2.2856,-2.7172,-2.7172,-2.7075,-2.7027,-2.7051,-2.7208,-2.7184,-2.7063,-2.7196,-2.7172,-2.7051,-2.7027,-2.7184,-2.7329,-2.7148,-2.7304,-2.763,-2.7353,-2.7317,-2.7486,-2.7329,-2.7184,-2.7039,-2.7027,-2.7027,-2.7027,-2.7027,-2.7027,-2.7027,-2.7027,-2.7027,-2.7027,-2.7027,-2.7027,-2.7027,-2.7027,-2.7027,-2.7027,-2.7027,-2.7027,-2.7027,-2.7027,-2.7075,-2.7184,-2.7329,-2.751,-2.7667,-2.7461,-2.751,-2.7896,-2.8053,-2.8294,-2.8596,-2.8632,-2.8813,-2.9163,-2.9369,-2.9598,-2.9795,-2.7952,-2.5912,-2.3622,-2.1448,-1.9117,-1.7221,-1.6659,-1.6558,-1.6327,-1.6341,-1.6327,-1.6239,-1.6374,-1.6578,-1.663,-1.6809,-1.728,-1.7894,-1.8222,-1.8843,-1.9149,-1.8947,-1.9454,-2.08,-2.1682,-2.1759,-2.1897,-2.2035,-2.2044,-2.2121,-2.2078,-2.1951,-2.143,-2.0537,-1.9919,-1.9362,-1.847,-1.7517,-1.7391,-1.7453,-1.6947,-1.6654,-1.6701,-1.6714,-1.7259,-1.8111,-1.9141,-1.9751,-2.2639,-2.4212,-2.4153,-2.4167,-2.5215,-2.5829,-2.5662,-2.6253,-2.7425,-2.7389,-2.716,-2.7051,-2.7027,-2.7051,-2.7051,-2.7027,-2.7039,-2.7051,-2.7027,-2.7027,-2.7172,-2.7329,-2.7148,-2.7401,-2.7956,-2.7558,-2.7461,-2.7614,-2.7396,-2.713,-2.7027,-2.7027,-2.7027,-2.7027,-2.7027,-2.7027,-2.7027,-2.7027,-2.7039,-2.7075,-2.7087,-2.7087,-2.7135,-2.7087,-2.7087,-2.7087,-2.7051,-2.7027,-2.7027,-2.7027,-2.7148,-2.7389,-2.7461,-2.7679,-2.8017,-2.7956,-2.7956,-2.8198,-2.8415,-2.856,-2.862,-2.8632,-2.8801,-2.9091,-2.9296,-2.9574,-2.9415,-2.8438,-2.6455,-2.4241,-2.2397,-1.9743,-1.8307,-1.8099,-1.8004,-1.7589,-1.7509,-1.7263,-1.7141,-1.7328,-1.7391,-1.7251,-1.7585,-1.8298,-1.9863,-2.0288,-2.1145,-2.2374,-2.1838,-2.1345,-2.3456,-2.4156,-2.4337,-2.448,-2.4602,-2.468,-2.4421,-2.4366,-2.4004,-2.3408,-2.2518,-2.1836,-2.1499,-1.9347,-1.8396,-1.8284,-1.8055,-1.7155,-1.6849,-1.689,-1.6937,-1.7587,-1.9253,-2.0183,-2.1725,-2.4515,-2.6434,-2.6735,-2.7615,-2.9492,-2.9528,-2.8652,-2.8291,-2.7425,-2.7413,-2.7353,-2.7208,-2.7039,-2.7027,-2.7027,-2.7027,-2.7027,-2.7027,-2.7027,-2.7027,-2.7172,-2.7377,-2.716,-2.7365,-2.7679,-2.7389,-2.7463,-2.791,-2.764,-2.7299,-2.7027,-2.7039,-2.7039,-2.7039,-2.7075,-2.7027,-2.7027,-2.7063,-2.7135,-2.7317,-2.7317,-2.7413,-2.7558,-2.7401,-2.7317,-2.728,-2.7111,-2.7039,-2.7051,-2.7039,-2.716,-2.7401,-2.7606,-2.7872,-2.8198,-2.8343,-2.8318,-2.8222,-2.8475,-2.862,-2.8644,-2.8789,-2.8994,-2.9248,-2.9526,-2.9803,-2.9932,-2.9545,-2.8167,-2.6061,-2.5062,-2.407,-2.1639,-2.168,-2.1549,-2.1243,-2.137,-2.116,-2.0838,-2.0868,-2.1119,-2.1327,-2.0286,-1.9871,-2.0712,-2.1951,-2.3237,-2.3541,-2.3434,-2.4298,-2.5693,-2.6536,-2.6797,-2.6847,-2.6983,-2.6983,-2.6743,-2.6671,-2.6463,-2.6108,-2.5369,-2.443,-2.3165,-2.0789,-1.9466,-1.937,-1.8573,-1.719,-1.6981,-1.6994,-1.7042,-1.7188,-2.1016,-2.2761,-2.4206,-2.6271,-2.7534,-2.8707,-2.9248,-3.0105,-3.0008,-2.9492,-2.9533,-2.7486,-2.7558,-2.7353,-2.7172,-2.7039,-2.7027,-2.7027,-2.7027,-2.7027,-2.7027,-2.7027,-2.7027,-2.7111,-2.7232,-2.7281,-2.7518,-2.7835,-2.7879,-2.8037,-2.8361,-2.8148,-2.7752,-2.7402,-2.7384,-2.747,-2.7482,-2.7579,-2.7579,-2.7518,-2.7384,-2.7389,-2.7437,-2.7534,-2.7667,-2.7763,-2.7679,-2.7582,-2.7534,-2.7341,-2.7232,-2.7341,-2.7244,-2.7425,-2.7679,-2.792,-2.8101,-2.8367,-2.8536,-2.8536,-2.8439,-2.8536,-2.862,-2.8644,-2.8874,-2.9079,-2.9248,-2.9586,-2.9876,-3.002,-3.0129,-2.9057,-2.7166,-2.6767,-2.5562,-2.3654,-2.3398,-2.3351,-2.2957,-2.3197,-2.2998,-2.2652,-2.2775,-2.3086,-2.3165,-2.3203,-2.2968,-2.3071,-2.4406,-2.5613,-2.6037,-2.5965,-2.6223,-2.8376,-2.8811,-2.9108,-2.9252,-2.9455,-2.924,-2.8947,-2.8992,-2.8673,-2.7919,-2.7158,-2.5999,-2.5062,-2.3124,-2.1776,-2.1497,-1.9862,-1.8292,-1.7747,-1.7739,-1.8089,-1.9059,-2.2572,-2.5255,-2.62,-2.7338,-2.8834,-2.9736,-3.0177,-3.0165,-3.0081,-3.002,-3.0153,-2.7675,-2.7868,-2.736,-2.7154,-2.7257,-2.713,-2.7208,-2.7208,-2.7299,-2.7208,-2.7208,-2.722,-2.7323,-2.7208,-2.7674,-2.7979,-2.824,-2.8531,-2.8752,-2.8896,-2.8756,-2.8382,-2.8211,-2.8128,-2.819,-2.824,-2.8514,-2.8476,-2.8285,-2.805,-2.7877,-2.784,-2.7868,-2.7872,-2.7956,-2.7896,-2.7848,-2.7905,-2.7779,-2.7743,-2.784,-2.7755,-2.7784,-2.8041,-2.821,-2.8343,-2.8524,-2.862,-2.8608,-2.862,-2.862,-2.8644,-2.8693,-2.8922,-2.9091,-2.9236,-2.9622,-2.9888,-2.9876,-2.9968,-2.9314,-2.7493,-2.7221,-2.6317,-2.4881,-2.4779,-2.4819,-2.4598,-2.3855,-2.4207,-2.4078,-2.3878,-2.4326,-2.5043,-2.6219,-2.6998,-2.7214,-2.7225,-2.8154,-3.0117,-2.8212,-2.8746,-2.9903,-3.0853,-3.0762,-3.0212,-3.0575,-3.0247,-2.9941,-2.9697,-2.9389,-2.8807,-2.8113,-2.7399,-2.6474,-2.5472,-2.4698,-2.3994,-2.1821,-2.0204,-1.9222,-1.9253,-1.9686,-2.1058,-2.3078,-2.4953,-2.6685,-2.8109,-2.9706,-3.0202,-3.0202,-3.0202,-3.0189,-3.0153,-3.0214,-2.8137,-2.8359,-2.8014,-2.8153,-2.8298,-2.7838,-2.7739,-2.8113,-2.8113,-2.8113,-2.8113,-2.8204,-2.8113,-2.8113,-2.8216,-2.8446,-2.8623,-2.8691,-2.8847,-2.9404,-2.9378,-2.9469,-2.9376,-2.91,-2.8815,-2.8891,-2.9002,-2.9077,-2.9065,-2.8942,-2.8843,-2.8687,-2.863,-2.8613,-2.8474,-2.8387,-2.8314,-2.856,-2.8526,-2.8346,-2.8396,-2.8371,-2.827,-2.8304,-2.8498,-2.8536,-2.8596,-2.862,-2.862,-2.862,-2.8656,-2.8765,-2.8922,-2.9151,-2.9369,-2.9598,-2.9888,-3.0105,-3.0093,-2.9972,-2.9679,-2.8802,-2.8731,-2.8772,-2.8067,-2.7938,-2.8015,-2.7939,-2.7893,-2.7543,-2.741,-2.7851,-2.7758,-2.8019,-2.8742,-2.9276,-2.9413,-2.9542,-2.9794,-3.0112,-3.0272,-3.0418,-3.0654,-3.1034,-3.1083,-3.1119,-3.1022,-3.0877,-3.0612,-3.0322,-2.9791,-2.9175,-2.875,-2.7968,-2.7622,-2.6737,-2.5946,-2.535,-2.3707,-2.1932,-2.0976,-2.0409,-2.0765,-2.1524,-2.2598,-2.4751,-2.7572,-2.8632,-3.0202,-3.0214,-3.0214,-3.0214,-3.0214,-3.0214,-3.0214,-2.8503,-2.8716,-2.844,-2.8418,-2.8587,-2.8267,-2.8204,-2.8474,-2.8474,-2.8474,-2.8474,-2.8474,-2.8474,-2.8565,-2.8745,-2.8925,-2.908,-2.9196,-2.9599,-3.0109,-3.0175,-3.0214,-3.0544,-3.02,-2.9937,-2.9698,-2.9955,-3.0007,-2.9849,-2.97,-2.952,-2.9356,-2.9457,-2.9487,-2.9351,-2.9119,-2.926,-2.9387,-2.9281,-2.9181,-2.9294,-2.9193,-2.9162,-2.9103,-2.9193,-2.928,-2.9375,-2.9223,-2.9369,-2.9405,-2.9201,-2.8982,-2.9043,-2.926,-2.9526,-2.9791,-3.0057,-3.0202,-3.0153,-2.996,-2.9743,-2.9598,-2.9731,-2.9622,-2.9526,-2.9767,-2.9767,-2.9489,-2.9306,-2.9306,-2.9417,-2.945,-2.967,-2.9791,-3.0045,-3.0153,-3.0105,-3.0262,-3.0443,-3.0419,-3.0509,-3.0666,-3.0877,-3.101,-3.1046,-3.0974,-3.0974,-3.0817,-3.0262,-2.9948,-2.9586,-2.9127,-2.8922,-2.8668,-2.8557,-2.7835,-2.6726,-2.6175,-2.5255,-2.3717,-2.2423,-2.2054,-2.166,-2.3071,-2.4647,-2.6709,-2.9121,-2.9969,-3.0214,-3.0214,-3.0214,-3.0214,-3.0214,-3.0214,-3.0214,-2.873,-2.896,-2.8679,-2.868,-2.8796,-2.868,-2.8655,-2.8745,-2.8745,-2.8835,-2.8745,-2.8745,-2.8835,-2.8835,-2.9092,-2.9272,-2.9375,-2.9697,-3.0197,-3.0689,-3.0436,-3.0556,-3.0876,-3.0916,-3.0876,-3.0619,-3.0802,-3.0815,-3.0655,-3.0462,-3.0234,-2.9955,-3.0096,-3.0102,-3.0115,-3.0128,-3.009,-3.0147,-2.9993,-2.9955,-3.0108,-2.9981,-2.9912,-2.9848,-2.9911,-2.9937,-2.9892,-2.9972,-3.0063,-3.0463,-2.9947,-2.9579,-2.9456,-2.9431,-2.9685,-3.0052,-3.0356,-3.0465,-3.0404,-3.0222,-3.0064,-3.0015,-3.0091,-3.0018,-3.0006,-3.0028,-3.0028,-2.9758,-2.9576,-2.9429,-2.9477,-2.9622,-2.9779,-2.99,-3.0093,-3.0081,-2.9972,-3.0081,-3.0298,-3.0443,-3.0515,-3.0612,-3.0672,-3.0757,-3.0793,-3.0817,-3.0817,-3.0648,-3.0081,-2.9634,-2.9296,-2.9067,-2.8862,-2.8741,-2.8608,-2.8666,-2.7565,-2.7198,-2.6658,-2.5745,-2.4598,-2.5022,-2.5253,-2.5841,-2.7447,-2.8917,-2.9644,-3.0083,-3.025,-3.0226,-3.0214,-3.0214,-3.0214,-3.0214,-3.0214,-2.9261,-2.9495,-2.9209,-2.9416,-2.9949,-2.9376,-2.9285,-2.9644,-2.9554,-2.9644,-2.9644,-2.9644,-2.9554,-2.9644,-2.9734,-2.9824,-2.9734,-2.985,-3.014,-3.0528,-3.0408,-3.0581,-3.0875,-3.1142,-3.1129,-3.1209,-3.1328,-3.1434,-3.1407,-3.1447,-3.1041,-3.0743,-3.0782,-3.0617,-3.0319,-3.0128,-3.0414,-3.0713,-3.073,-3.0661,-3.0769,-3.0661,-3.0527,-3.0319,-3.0319,-3.0223,-3.03,-3.0407,-3.0476,-3.0598,-3.0644,-3.0773,-3.0899,-3.0603,-3.0564,-3.0787,-3.1022,-3.1083,-3.0923,-3.0849,-3.0901,-3.1077,-3.1001,-3.0874,-3.065,-3.0491,-3.0416,-2.9959,-2.9602,-2.9501,-2.9707,-2.9791,-2.9912,-3.0069,-3.0153,-3.0177,-3.0129,-3.0165,-3.0202,-3.0262,-3.0371,-3.0467,-3.0503,-3.0515,-3.0552,-3.0467,-3.0322,-3.0189,-2.9803,-2.9417,-2.9115,-2.8934,-2.8801,-2.8705,-2.856,-2.8765,-2.8507,-2.841,-2.8142,-2.8171,-2.771,-2.8573,-2.9096,-2.8279,-2.8065,-2.8621,-2.9326,-3.0047,-3.025,-3.0202,-3.0202,-3.0214,-3.0214,-3.0214,-3.0214,-2.9634,-2.9739,-2.9607,-2.9814,-2.9997,-2.971,-2.9644,-2.9913,-2.9913,-2.9913,-2.9913,-2.9913,-2.9913,-2.9913,-2.9913,-2.9913,-2.9913,-2.9913,-3.0087,-3.0314,-3.0381,-3.0515,-3.0782,-3.1076,-3.1196,-3.1303,-3.1517,-3.1664,-3.1677,-3.1664,-3.1582,-3.1379,-3.1284,-3.1189,-3.0998,-3.0998,-3.1093,-3.1297,-3.1297,-3.1284,-3.1284,-3.1284,-3.1093,-3.0998,-3.089,-3.0903,-3.0981,-3.107,-3.1361,-3.1549,-3.1479,-3.1836,-3.2064,-3.1916,-3.1579,-3.1517,-3.1554,-3.1579,-3.1403,-3.1315,-3.1277,-3.1515,-3.1501,-3.1387,-3.131,-3.1151,-3.0889,-3.0367,-2.9774,-2.9646,-2.9779,-2.9912,-2.9996,-3.0008,-3.0117,-3.0141,-3.0081,-3.0153,-3.0141,-3.0117,-3.0334,-3.0419,-3.0322,-3.0334,-3.0322,-3.0153,-2.9888,-2.9695,-2.9501,-2.926,-2.8994,-2.8874,-2.8765,-2.8717,-2.8656,-2.8789,-2.8898,-2.8898,-2.897,-2.9103,-2.926,-2.939,-2.9212,-2.8796,-2.8727,-2.8733,-2.9217,-2.9984,-3.0069,-3.0177,-3.0202,-3.0214,-3.0214,-3.0214,-3.0214,-2.9913,-2.9913,-2.9913,-2.9913,-2.9913,-2.9913,-2.9913,-2.99,-2.9847,-2.986,-2.99,-2.9793,-2.978,-2.9887,-2.9913,-2.9913,-2.9913,-2.9913,-3.0047,-3.0194,-3.0247,-3.0408,-3.0702,-3.0915,-3.1076,-3.1263,-3.141,-3.161,-3.1664,-3.1677,-3.1677,-3.1677,-3.1677,-3.1677,-3.1677,-3.1582,-3.1677,-3.1677,-3.1677,-3.1677,-3.1677,-3.1677,-3.1677,-3.1677,-3.1677,-3.1677,-3.1527,-3.1636,-3.1926,-3.2221,-3.2267,-3.2433,-3.3087,-3.3013,-3.2611,-3.2222,-3.2059,-3.2072,-3.1882,-3.1869,-3.1931,-3.2258,-3.2003,-3.2003,-3.189,-3.1877,-3.1616,-3.0914,-3.0589,-3.0176,-3.0237,-3.0283,-3.0182,-3.002,-3.0093,-3.0165,-3.0069,-3.0069,-3.0117,-3.0189,-3.0383,-3.0286,-3.0069,-3.0081,-3.0069,-2.9827,-2.9574,-2.9538,-2.9344,-2.9188,-2.897,-2.885,-2.8753,-2.8717,-2.8705,-2.8741,-2.8777,-2.8741,-2.8837,-2.8958,-2.9103,-2.9272,-2.9037,-2.8875,-2.9069,-2.9136,-2.9559,-2.9803,-2.9984,-3.0117,-3.0165,-3.0202,-3.0214,-3.0214,-3.0214,-2.9913,-2.9913,-2.9913,-2.9913,-2.9913,-2.9913,-2.9913,-2.9887,-2.9673,-2.9686,-2.9847,-2.9459,-2.9513,-2.982,-2.9913,-2.9913,-2.9913,-2.9913,-2.9953,-3.002,-3.002,-3.0167,-3.0394,-3.0421,-3.0875,-3.1169,-3.1303,-3.1436,-3.161,-3.1677,-3.1677,-3.1677,-3.1677,-3.1677,-3.1677,-3.1677,-3.1677,-3.1677,-3.1677,-3.1677,-3.1677,-3.1677,-3.1677,-3.1677,-3.1677,-3.1677,-3.1717,-3.1832,-3.2181,-3.2559,-3.2741,-3.3047,-3.3347,-3.3414,-3.3314,-3.3193,-3.3009,-3.2797,-3.2589,-3.2615,-3.2716,-3.2939,-3.2947,-3.3041,-3.2788,-3.2351,-3.2003,-3.1781,-3.1554,-3.1227,-3.0912,-3.0873,-3.0683,-3.0368,-3.0153,-3.0202,-3.0153,-3.0093,-3.0129,-3.0105,-3.025,-2.9948,-2.967,-2.9743,-2.9779,-2.9513,-2.9308,-2.9296,-2.9272,-2.9163,-2.9019,-2.891,-2.8837,-2.8789,-2.8681,-2.8729,-2.8705,-2.8632,-2.8717,-2.8825,-2.897,-2.9079,-2.8982,-2.8933,-2.9139,-2.9272,-2.9405,-2.961,-2.9888,-3.0045,-3.0093,-3.0153,-3.0214,-3.0214,-3.0214,-2.9913,-2.9913,-2.9913,-2.9913,-2.9913,-2.9913,-2.9913,-2.9887,-2.9793,-2.97,-2.9686,-2.9619,-2.97,-2.986,-2.9913,-2.9913,-2.9913,-2.9913,-2.9913,-2.9913,-2.994,-3.0087,-3.0354,-3.0541,-3.0862,-3.1142,-3.1396,-3.1543,-3.165,-3.1664,-3.1677,-3.1677,-3.1677,-3.1677,-3.1677,-3.1677,-3.1677,-3.1677,-3.1677,-3.1677,-3.1677,-3.1677,-3.1677,-3.1677,-3.1677,-3.1677,-3.173,-3.1944,-3.2238,-3.2505,-3.2692,-3.2959,-3.3187,-3.3146,-3.2973,-3.3173,-3.3067,-3.306,-3.3113,-3.3145,-3.332,-3.3367,-3.34,-3.3347,-3.314,-3.2728,-3.2455,-3.2297,-3.1907,-3.1718,-3.1416,-3.1214,-3.091,-3.072,-3.0518,-3.0315,-3.0315,-3.0202,-3.0177,-3.0141,-3.0081,-2.9839,-2.9646,-2.9682,-2.9743,-2.9562,-2.9393,-2.9357,-2.9344,-2.932,-2.9163,-2.9006,-2.8946,-2.8898,-2.8741,-2.8681,-2.8681,-2.8632,-2.8632,-2.8741,-2.885,-2.8886,-2.8886,-2.8946,-2.9115,-2.9212,-2.9236,-2.9357,-2.9574,-2.9791,-3.0008,-3.0045,-3.0093,-3.0214,-3.0112,-2.9913,-2.9913,-2.9913,-2.9913,-2.9913,-2.9913,-2.9873,-2.9793,-2.97,-2.9566,-2.9499,-2.9633,-2.974,-2.9766,-2.982,-2.9913,-2.9913,-2.9913,-2.9913,-2.9913,-2.9953,-3.01,-3.0287,-3.0555,-3.0755,-3.1209,-3.1129,-3.133,-3.149,-3.1557,-3.157,-3.1664,-3.1677,-3.1677,-3.1677,-3.1677,-3.1677,-3.1677,-3.1677,-3.1677,-3.1677,-3.1677,-3.1677,-3.1677,-3.1677,-3.1677,-3.1704,-3.1837,-3.2118,-3.2358,-3.2425,-3.2652,-3.2973,-3.2826,-3.2706,-3.2866,-3.2887,-3.302,-3.3154,-3.326,-3.34,-3.3414,-3.3414,-3.34,-3.33,-3.3013,-3.2812,-3.2812,-3.2511,-3.2209,-3.1907,-3.1617,-3.1416,-3.1214,-3.091,-3.0708,-3.0607,-3.0481,-3.0481,-3.0481,-3.0319,-3.0033,-2.9864,-2.9791,-2.9719,-2.9586,-2.9489,-2.9429,-2.9429,-2.9453,-2.9272,-2.9091,-2.891,-2.885,-2.8741,-2.8632,-2.8632,-2.862,-2.862,-2.8656,-2.8753,-2.8898,-2.8982,-2.9067,-2.9103,-2.9139,-2.9163,-2.92,-2.9236,-2.9429,-2.9634,-2.9839,-2.9972,-3.0117,-3.0011,-2.9913,-2.9913,-2.9913,-2.9913,-2.9913,-2.9913,-2.9766,-2.9579,-2.9285,-2.9192,-2.9205,-2.9352,-2.9379,-2.9339,-2.97,-2.9913,-2.9913,-2.9913,-2.9913,-2.9913,-2.994,-3.01,-3.0247,-3.0327,-3.0461,-3.1022,-3.0969,-3.0969,-3.1142,-3.1276,-3.1423,-3.1623,-3.157,-3.1637,-3.1664,-3.1637,-3.1664,-3.1677,-3.1677,-3.1677,-3.1677,-3.1677,-3.1677,-3.1677,-3.1677,-3.1677,-3.1677,-3.173,-3.1891,-3.2158,-3.2144,-3.2332,-3.2639,-3.2505,-3.2465,-3.2572,-3.2799,-3.2919,-3.3026,-3.3267,-3.34,-3.3414,-3.3414,-3.3414,-3.3414,-3.3414,-3.3314,-3.3213,-3.3013,-3.2912,-3.2712,-3.241,-3.2109,-3.1794,-3.1479,-3.1265,-3.1164,-3.095,-3.095,-3.0785,-3.0659,-3.0484,-3.0448,-3.0463,-2.994,-2.9818,-2.9719,-2.9658,-2.9598,-2.9574,-2.9357,-2.9139,-2.8874,-2.8741,-2.8669,-2.862,-2.862,-2.862,-2.862,-2.862,-2.8656,-2.8813,-2.8946,-2.8982,-2.8994,-2.9043,-2.9091,-2.9079,-2.9079,-2.9115,-2.9284,-2.9634,-2.9924,-3.0117,-2.9975,-2.9913,-2.9913,-2.9913,-2.9913,-2.9913,-2.9913,-2.986,-2.9753,-2.9633,-2.9472,-2.9299,-2.9245,-2.9245,-2.9406,-2.9673,-2.9913,-2.9913,-2.9913,-2.9913,-2.9913,-2.9953,-3.01,-3.0207,-3.0341,-3.0555,-3.0982,-3.0808,-3.0795,-3.1183,-3.1049,-3.1009,-3.1142,-3.1276,-3.1383,-3.1423,-3.1557,-3.165,-3.1677,-3.1677,-3.1677,-3.1677,-3.1677,-3.1677,-3.1677,-3.1677,-3.1677,-3.1677,-3.1677,-3.1851,-3.1971,-3.1917,-3.2131,-3.2442,-3.2198,-3.2158,-3.2291,-3.2572,-3.2692,-3.2839,-3.3133,-3.34,-3.3414,-3.3414,-3.3414,-3.3414,-3.3414,-3.3414,-3.3414,-3.3414,-3.3213,-3.3113,-3.2812,-3.241,-3.2171,-3.2031,-3.1905,-3.1692,-3.1566,-3.1378,-3.1303,-3.1365,-3.1277,-3.1252,-3.1215,-3.0588,-2.9976,-2.9988,-2.9876,-2.9791,-2.9719,-2.9501,-2.9308,-2.9067,-2.8813,-2.8729,-2.8681,-2.8632,-2.862,-2.862,-2.862,-2.862,-2.8644,-2.8753,-2.8813,-2.8874,-2.8922,-2.8934,-2.8934,-2.897,-2.9067,-2.9284,-2.9586,-2.9851,-3.0069,-2.9849,-2.9913,-2.9913,-2.9913,-2.9913,-2.9913,-2.9913,-2.986,-2.9793,-2.9766,-2.9619,-2.9352,-2.9205,-2.9272,-2.9526,-2.978,-2.9913,-2.9913,-2.9913,-2.9913,-2.9913,-2.994,-3.0047,-3.0167,-3.0274,-3.0394,-3.0808,-3.0715,-3.0648,-3.0889,-3.0742,-3.0621,-3.0635,-3.0808,-3.0955,-3.1169,-3.1383,-3.157,-3.165,-3.1677,-3.1677,-3.1677,-3.1677,-3.1677,-3.1677,-3.1677,-3.1677,-3.1677,-3.1677,-3.1757,-3.1837,-3.1851,-3.1904,-3.1984,-3.1984,-3.1877,-3.2064,-3.2278,-3.2438,-3.2666,-3.304,-3.3387,-3.3414,-3.3414,-3.3414,-3.3414,-3.3414,-3.3414,-3.3414,-3.3414,-3.3414,-3.3414,-3.3113,-3.2912,-3.2786,-3.2463,-3.2311,-3.2138,-3.2038,-3.1877,-3.1803,-3.1805,-3.1718,-3.1605,-3.1466,-3.1126,-3.0475,-2.9976,-2.9876,-2.9864,-2.9791,-2.9707,-2.9513,-2.932,-2.9067,-2.8837,-2.8825,-2.8777,-2.862,-2.862,-2.862,-2.862,-2.8632,-2.8656,-2.8729,-2.8777,-2.8801,-2.8801,-2.8801,-2.891,-2.9055,-2.9248,-2.9417,-2.9646,-2.9751,-2.9564,-2.9913,-2.9913,-2.9913,-2.9913,-2.9913,-2.9913,-2.978,-2.9593,-2.9539,-2.9379,-2.9192,-2.9325,-2.9432,-2.9553,-2.978,-2.99,-2.9913,-2.9913,-2.9913,-2.9913,-2.9913,-2.994,-2.9953,-3.0034,-3.0194,-3.0247,-3.0234,-3.0247,-3.0461,-3.0394,-3.0234,-3.0154,-3.0341,-3.0595,-3.0808,-3.1102,-3.1383,-3.1623,-3.1664,-3.1677,-3.1677,-3.1677,-3.1677,-3.1677,-3.1677,-3.1677,-3.1677,-3.1677,-3.1717,-3.173,-3.173,-3.1744,-3.1757,-3.1757,-3.1797,-3.2024,-3.2104,-3.2278,-3.2643,-3.3093,-3.332,-3.34,-3.3414,-3.3414,-3.3414,-3.3414,-3.3414,-3.3414,-3.3414,-3.3414,-3.3414,-3.33,-3.3314,-3.312,-3.2809,-3.2716,-3.2557,-3.2353,-3.228,-3.239,-3.2132,-3.1819,-3.1819,-3.1806,-3.1504,-3.1001,-3.0225,-2.9976,-3.0113,-3.0201,-3.0252,-2.9894,-2.9712,-2.9346,-2.9128,-2.8994,-2.891,-2.8729,-2.862,-2.862,-2.8669,-2.8717,-2.8729,-2.8705,-2.8729,-2.8777,-2.8729,-2.8669,-2.8874,-2.9055,-2.9031,-2.9175,-2.9405,-2.9471,-2.932,-2.9913,-2.9913,-2.9913,-2.9913,-2.9913,-2.9913,-2.986,-2.9753,-2.9579,-2.9419,-2.9366,-2.9459,-2.9486,-2.9579,-2.9753,-2.99,-2.9913,-2.9913,-2.9913,-2.9913,-2.9913,-2.9913,-2.9913,-2.994,-3.0074,-3.0207,-3.01,-3.0074,-3.0381,-3.0207,-3.006,-2.998,-3.006,-3.0341,-3.0742,-3.1076,-3.137,-3.1623,-3.1677,-3.1677,-3.1677,-3.1677,-3.1677,-3.1677,-3.1677,-3.1677,-3.1677,-3.1677,-3.1677,-3.1677,-3.1677,-3.1677,-3.1677,-3.1677,-3.173,-3.1877,-3.1957,-3.2238,-3.2532,-3.2919,-3.32,-3.3307,-3.34,-3.34,-3.3414,-3.3414,-3.3414,-3.3414,-3.3414,-3.3414,-3.3414,-3.3414,-3.3287,-3.3293,-3.3047,-3.2981,-3.2828,-3.2616,-3.2563,-3.2862,-3.2912,-3.2712,-3.2712,-3.241,-3.2109,-3.2008,-3.1353,-3.1014,-3.1039,-3.1064,-3.1139,-3.0552,-3.0156,-2.9701,-2.9408,-2.9372,-2.9092,-2.8789,-2.862,-2.862,-2.8681,-2.8753,-2.8717,-2.8656,-2.8717,-2.8765,-2.8777,-2.8813,-2.8946,-2.9043,-2.9043,-2.9188,-2.9501,-2.9419,-2.9072,-3.087,-3.0767,-3.0074,-2.9833,-2.99,-2.9913,-2.9913,-2.986,-2.9619,-2.9526,-2.9579,-2.9446,-2.9472,-2.9606,-2.9713,-2.986,-2.99,-2.9913,-2.9913,-2.9913,-2.9913,-2.9913,-2.9913,-2.9927,-3.0007,-3.0114,-3.0074,-3.0034,-3.0167,-3.0007,-2.9927,-2.9913,-2.9927,-3.0207,-3.0581,-3.0915,-3.1196,-3.1436,-3.1557,-3.1677,-3.1677,-3.1677,-3.1677,-3.1677,-3.1677,-3.1677,-3.1677,-3.1677,-3.1677,-3.1677,-3.1677,-3.1677,-3.1677,-3.1677,-3.1717,-3.1851,-3.1984,-3.2211,-3.2398,-3.2652,-3.2893,-3.3026,-3.3253,-3.34,-3.3414,-3.3414,-3.3414,-3.3414,-3.3414,-3.3414,-3.3414,-3.3414,-3.3374,-3.328,-3.316,-3.3093,-3.3026,-3.2812,-3.2786,-3.3187,-3.34,-3.34,-3.3414,-3.3213,-3.2812,-3.2712,-3.2598,-3.2245,-3.1805,-3.1818,-3.1641,-3.1113,-3.069,-3.0354,-3.002,-2.9834,-2.9442,-2.8945,-2.8908,-2.8908,-2.8632,-2.8681,-2.8644,-2.8632,-2.8681,-2.8753,-2.8898,-2.8994,-2.9067,-2.9091,-2.9091,-2.9308,-2.961,-2.9455,-2.9173,-3.2778,-3.247,-3.0566,-2.9939,-3.0066,-3.0003,-2.99,-2.9873,-2.9606,-2.9619,-2.982,-2.9272,-2.9339,-2.9713,-2.9606,-2.9646,-2.9847,-2.9887,-2.9913,-2.9913,-2.9913,-2.9913,-2.9913,-2.9913,-2.9953,-2.994,-2.9927,-2.994,-2.994,-2.9927,-2.9913,-2.9913,-2.9913,-3.01,-3.0368,-3.0635,-3.0955,-3.1263,-3.1463,-3.1583,-3.165,-3.1677,-3.1677,-3.1677,-3.1677,-3.1677,-3.1677,-3.1677,-3.1677,-3.1677,-3.1677,-3.1677,-3.1677,-3.1677,-3.1851,-3.1984,-3.2051,-3.2078,-3.2198,-3.2452,-3.2572,-3.2772,-3.316,-3.332,-3.3374,-3.336,-3.3414,-3.3414,-3.3414,-3.3414,-3.3414,-3.3414,-3.34,-3.328,-3.3133,-3.308,-3.3053,-3.2986,-3.2973,-3.3146,-3.3334,-3.3387,-3.34,-3.3314,-3.3187,-3.2981,-3.2815,-3.2445,-3.2147,-3.2129,-3.19,-3.1295,-3.1094,-3.1056,-3.0644,-3.021,-2.9925,-2.9425,-2.9375,-2.9375,-2.9004,-2.8716,-2.8812,-2.8824,-2.8741,-2.8741,-2.891,-2.9043,-2.9139,-2.9151,-2.9127,-2.92,-2.9441,-2.9695,-2.9515,-3.471,-3.4607,-3.399,-3.3057,-3.1731,-3.0437,-2.9806,-2.9606,-2.9499,-2.9446,-2.9285,-2.9352,-2.9299,-2.9299,-2.9419,-2.9513,-2.9659,-2.9793,-2.9887,-2.99,-2.9873,-2.99,-2.9913,-2.9913,-2.9913,-2.9913,-2.9913,-2.9913,-2.9927,-2.9913,-2.9913,-2.9913,-2.9913,-2.9993,-3.0127,-3.0341,-3.0742,-3.1089,-3.1289,-3.145,-3.1597,-3.165,-3.165,-3.1637,-3.1664,-3.1664,-3.1677,-3.1677,-3.1677,-3.1677,-3.1677,-3.1677,-3.1677,-3.1677,-3.1757,-3.177,-3.181,-3.1877,-3.2091,-3.2372,-3.2603,-3.2585,-3.3026,-3.3187,-3.324,-3.3253,-3.336,-3.336,-3.34,-3.3414,-3.3414,-3.3414,-3.3414,-3.3334,-3.32,-3.3146,-3.3133,-3.312,-3.312,-3.3213,-3.3387,-3.3387,-3.3414,-3.3414,-3.3274,-3.32,-3.2927,-3.2544,-3.2379,-3.2366,-3.2064,-3.1542,-3.1405,-3.1367,-3.0958,-3.0438,-3.0273,-3.0025,-2.9975,-2.9854,-2.965,-2.9375,-2.9184,-2.9137,-2.9102,-2.9007,-2.8934,-2.9067,-2.9236,-2.9175,-2.9151,-2.9175,-2.926,-2.9513,-2.967,-3.6539,-3.622,-3.5387,-3.4314,-3.3086,-3.2092,-3.1525,-3.1208,-2.9913,-2.9192,-2.9045,-2.8951,-2.8978,-2.9072,-2.9112,-2.9179,-2.9325,-2.9432,-2.9566,-2.9713,-2.974,-2.9833,-2.986,-2.99,-2.9913,-2.9913,-2.9913,-2.9913,-2.99,-2.9913,-2.9913,-2.9913,-2.9913,-2.9913,-2.998,-3.0127,-3.0408,-3.0782,-3.1076,-3.1236,-3.137,-3.153,-3.1597,-3.1543,-3.1583,-3.165,-3.1677,-3.1677,-3.1677,-3.1677,-3.1677,-3.1677,-3.1677,-3.1677,-3.1677,-3.169,-3.1704,-3.177,-3.1917,-3.2185,-3.2251,-3.2385,-3.2746,-3.2799,-3.2959,-3.3026,-3.316,-3.3253,-3.3347,-3.3414,-3.3414,-3.3414,-3.3414,-3.34,-3.332,-3.324,-3.324,-3.3227,-3.3293,-3.3374,-3.3414,-3.34,-3.3414,-3.34,-3.3374,-3.3267,-3.3066,-3.2812,-3.2594,-3.2509,-3.22,-3.1649,-3.1715,-3.1671,-3.1237,-3.0831,-3.0689,-3.0574,-3.0452,-3.0331,-3.0128,-2.9937,-2.9663,-2.9571,-2.9502,-2.9358,-2.9249,-2.9261,-2.932,-2.92,-2.9079,-2.9115,-2.9163,-2.932,-2.9429,-3.8235,-3.7722,-3.5518,-3.4586,-3.4132,-3.4245,-3.417,-3.3992,-3.0995,-2.9366,-2.9231,-2.8542,-2.8537,-2.8778,-2.8778,-2.8845,-2.8991,-2.9125,-2.9285,-2.9446,-2.9446,-2.9566,-2.9766,-2.9873,-2.9847,-2.9887,-2.9873,-2.9793,-2.986,-2.9887,-2.9913,-2.9913,-2.9913,-2.9913,-2.9927,-2.9953,-3.0154,-3.0394,-3.0755,-3.1009,-3.1036,-3.1249,-3.1517,-3.1343,-3.145,-3.1623,-3.1664,-3.1677,-3.1677,-3.1677,-3.1677,-3.1677,-3.1677,-3.1677,-3.1677,-3.1677,-3.1677,-3.1757,-3.1851,-3.2064,-3.1998,-3.2064,-3.2211,-3.2332,-3.2519,-3.2812,-3.2973,-3.3026,-3.3093,-3.3227,-3.3253,-3.336,-3.3414,-3.3414,-3.3374,-3.3334,-3.3334,-3.3267,-3.32,-3.3227,-3.3146,-3.316,-3.324,-3.3213,-3.3066,-3.3133,-3.2959,-3.2666,-3.2519,-3.2425,-3.2211,-3.1755,-3.1739,-3.1723,-3.1604,-3.1307,-3.1268,-3.1202,-3.1011,-3.0916,-3.0713,-3.0414,-3.0128,-2.9929,-2.9717,-2.9704,-2.9561,-2.9493,-2.9372,-2.9116,-2.9068,-2.8982,-2.9079,-2.9163,-2.9127,-3.9493,-3.922,-3.7276,-3.6425,-3.6142,-3.5209,-3.4509,-3.3913,-3.3506,-3.2189,-3.0794,-2.9391,-2.8516,-2.8686,-2.8807,-2.8816,-2.8711,-2.8845,-2.9045,-2.9125,-2.9152,-2.9312,-2.9539,-2.9593,-2.9686,-2.978,-2.974,-2.9633,-2.9673,-2.978,-2.9913,-2.9913,-2.9913,-2.9913,-2.9913,-2.9913,-2.9993,-3.0114,-3.0421,-3.0715,-3.0782,-3.1036,-3.1276,-3.1223,-3.1316,-3.145,-3.1517,-3.1623,-3.165,-3.1677,-3.1677,-3.1677,-3.1677,-3.1677,-3.1677,-3.1677,-3.1677,-3.1757,-3.1877,-3.1984,-3.1971,-3.2078,-3.2198,-3.2078,-3.2185,-3.2545,-3.2746,-3.2772,-3.2853,-3.3,-3.312,-3.3253,-3.3374,-3.3374,-3.336,-3.336,-3.336,-3.324,-3.3093,-3.3,-3.2879,-3.2919,-3.3,-3.2959,-3.2799,-3.2639,-3.2425,-3.2211,-3.2064,-3.1971,-3.1998,-3.1744,-3.173,-3.1744,-3.1677,-3.1677,-3.1582,-3.1487,-3.1392,-3.1284,-3.1284,-3.0998,-3.0617,-3.0223,-2.9975,-2.9987,-2.9904,-2.9546,-2.9378,-2.9137,-2.8981,-2.9019,-2.8874,-2.8934,-2.885,-3.9821,-3.9475,-3.8301,-3.7742,-3.7632,-3.7056,-3.6539,-3.6152,-3.5643,-3.4779,-3.3489,-3.1697,-3.0351,-2.9677,-2.9663,-2.8999,-2.8771,-2.8551,-2.8698,-2.8791,-2.9131,-2.9045,-2.9179,-2.9373,-2.9339,-2.9446,-2.9539,-2.9513,-2.9513,-2.9753,-2.9913,-2.9913,-2.9913,-2.99,-2.9913,-2.9913,-2.9913,-2.994,-3.0207,-3.0368,-3.0528,-3.0768,-3.0915,-3.0915,-3.0982,-3.1129,-3.1183,-3.1303,-3.137,-3.149,-3.1583,-3.1664,-3.1677,-3.1677,-3.1677,-3.1677,-3.169,-3.1744,-3.1864,-3.1931,-3.1931,-3.2011,-3.2024,-3.1851,-3.1824,-3.2144,-3.2265,-3.2332,-3.2612,-3.2772,-3.2786,-3.2893,-3.3053,-3.3106,-3.3,-3.2919,-3.2919,-3.2853,-3.2786,-3.2759,-3.2692,-3.279,-3.2759,-3.2759,-3.2625,-3.2572,-3.2291,-3.2104,-3.1891,-3.1704,-3.1677,-3.1677,-3.1677,-3.1677,-3.1677,-3.1677,-3.1677,-3.1677,-3.1677,-3.1582,-3.1474,-3.1379,-3.1093,-3.0808,-3.0617,-3.0427,-3.0331,-3.0045,-2.9567,-2.9304,-2.9125,-2.8969,-2.891,-2.885,-2.8717,-3.9465,-3.9116,-3.8725,-3.8579,-3.8615,-3.9,-3.9047,-3.8751,-3.7573,-3.6938,-3.6607,-3.4882,-3.3289,-3.1911,-3.1268,-3.0095,-2.9579,-2.9929,-2.9564,-2.9577,-2.9618,-2.9827,-2.9735,-2.9499,-2.9366,-2.93,-2.9259,-2.9339,-2.9379,-2.9579,-2.9713,-2.986,-2.9887,-2.9873,-2.99,-2.9913,-2.9913,-2.9967,-3.0087,-3.0114,-3.0261,-3.0421,-3.0515,-3.0555,-3.0581,-3.0742,-3.0782,-3.0849,-3.0969,-3.1236,-3.1517,-3.1623,-3.1677,-3.1677,-3.1677,-3.1677,-3.1677,-3.169,-3.1717,-3.173,-3.1717,-3.1704,-3.1677,-3.1677,-3.1677,-3.1744,-3.1877,-3.2038,-3.2332,-3.2478,-3.2492,-3.2585,-3.2746,-3.2826,-3.2679,-3.2572,-3.2559,-3.2519,-3.2492,-3.2492,-3.2549,-3.2536,-3.2576,-3.2478,-3.2438,-3.2398,-3.2305,-3.2158,-3.1984,-3.1784,-3.1677,-3.1677,-3.1677,-3.1677,-3.1677,-3.1677,-3.1677,-3.1677,-3.1677,-3.1677,-3.1677,-3.1569,-3.1474,-3.1487,-3.1284,-3.0998,-3.0808,-3.0522,-3.014,-2.9663,-2.9579,-2.94,-2.9208,-2.9149,-2.8933,-3.8823,-3.867,-3.8597,-3.864,-3.8634,-3.9061,-3.9043,-3.8762,-3.8777,-3.8725,-3.8356,-3.7784,-3.608,-3.3081,-3.2952,-3.233,-3.1753,-3.1753,-3.2247,-3.2505,-3.1836,-3.1446,-3.1017,-3.0765,-2.9857,-2.9638,-2.9544,-2.9259,-3.001,-2.973,-2.9547,-2.9998,-2.9619,-2.9686,-2.99,-2.99,-2.9887,-2.994,-2.9953,-2.9993,-3.0047,-3.0207,-3.0368,-3.0408,-3.0408,-3.0595,-3.0715,-3.0782,-3.0969,-3.1223,-3.1463,-3.1583,-3.161,-3.161,-3.1637,-3.157,-3.1583,-3.1637,-3.1623,-3.165,-3.1664,-3.1677,-3.1677,-3.1677,-3.1677,-3.1677,-3.177,-3.1797,-3.2024,-3.2158,-3.2225,-3.2398,-3.2643,-3.2656,-3.2576,-3.2465,-3.2452,-3.2305,-3.2185,-3.2118,-3.2038,-3.2091,-3.2185,-3.2144,-3.2051,-3.2011,-3.1984,-3.1851,-3.1837,-3.1744,-3.1664,-3.1664,-3.1664,-3.1677,-3.1677,-3.1677,-3.1677,-3.1677,-3.1677,-3.1677,-3.1677,-3.1677,-3.1677,-3.1677,-3.1677,-3.1487,-3.1297,-3.0998,-3.0821,-3.0427,-3.0128,-2.9937,-2.965,-2.9434,-2.9218]},{"header":{"parameterUnit":"m.s-1","parameterCategory":1,"la1":31.0,"la2":29.5877,"lo1":-88.7671,"lo2":-86.6584,"dy":0.0162,"dx":0.0185,"nx":115,"ny":88,"refTime":"2024-09-01T06:00:00:Z","depth":0,"parameterNumber":3,"parameterNumberName":"V-component_of_WINDS"},"data":[0.0,0.0,0.0,0.0,0.0,0.0,0.0,0.0,0.0,0.0,0.0,0.0,0.0,0.0,0.0,0.0,0.0,0.0,0.0,0.0,0.0,0.0,0.0,0.0,0.0,0.0,0.0,0.0,0.0,0.0,0.0,0.0,0.0,0.0,0.0,0.0,0.0,0.0,0.0,0.0,0.0,0.0,0.0,0.0,0.0,0.0,0.0,0.0,0.0,0.0,0.0,0.0,0.0,0.0,0.0,0.0,0.0,0.0,0.0,0.0,0.0,0.0,0.0,0.0,0.0,0.0,0.0,0.0,0.0,0.0,0.0,0.0,0.0,0.0,0.0,0.0,0.0,0.0,0.0,0.0,0.0,0.0,0.0,0.0,0.0,0.0,0.0,0.0,0.0,0.0,0.0,0.0,0.0,0.0,0.0,0.0,0.0,0.0,0.0,0.0,0.0,0.0,0.0,0.0,0.0,0.0,0.0,0.0,0.0,0.0,0.0,0.0,0.0,0.0,0.0,0.0,0.0,0.0,0.0,0.0,0.0,0.0,0.0,0.0,0.0,0.0,0.0,0.0,0.0,0.0,0.0,0.0,0.0,0.0,0.0,0.0,0.0,0.0,0.0,0.0,0.0,0.0,0.0,0.0,0.0,0.0,0.0,0.0,0.0,0.0,0.0,0.0,0.0,0.0,0.0,0.0,0.0,0.0,0.0,0.0,0.0,0.0,0.0,0.0,0.0,0.0,0.0,0.0,0.0,0.0,0.0,0.0,0.0,0.0,0.0,0.0,0.0,0.0,0.0,0.0,0.0,0.0,0.0,0.0,0.0,0.0,0.0,0.0,0.0,0.0,0.0,0.0,0.0,0.0,0.0,0.0,0.0,0.0,0.0,0.0,0.0,0.0,0.0,0.0,0.0,0.0,0.0,0.0,0.0,0.0,0.0,0.0,0.0,0.0,0.0,0.0,0.0,0.0,0.0,0.0,0.0,0.0,0.0,0.0,0.0,0.0,0.0,0.0,0.0,0.0,0.0,0.0,0.0,0.0,0.0,0.0,0.0,0.0,0.0,0.0,0.0,0.0,0.0,0.0,0.0,0.0,0.0,0.0,0.0,0.0,0.0,0.0,0.0,0.0,0.0,0.0,0.0,0.0,0.0,0.0,0.0,0.0,0.0,0.0,0.0,0.0,0.0,0.0,0.0,0.0,0.0,0.0,0.0,0.0,0.0,0.0,0.0,0.0,0.0,0.0,0.0,0.0,0.0,0.0,0.0,0.0,0.0,0.0,0.0,0.0,0.0,0.0,0.0,0.0,0.0,0.0,0.0,0.0,0.0,0.0,0.0,0.0,0.0,0.0,0.0,0.0,0.0,0.0,0.0,0.0,0.0,0.0,0.0,0.0,0.0,0.0,0.0,0.0,0.0,0.0,0.0,0.0,0.0,0.0,0.0,0.0,0.0,0.0,0.0,0.0,0.0,0.0,0.0,0.0,0.0,0.0,0.0,0.0,0.0,0.0,0.0,0.0,0.0,0.0,0.0,0.0,0.0,0.0,0.0,0.0,0.0,0.0,0.0,0.0,0.0,0.0,0.0,0.0,0.0,0.0,0.0,0.0,0.0,0.0,0.0,0.0,0.0,0.0,0.0,0.0,0.0,0.0,0.0,0.0,0.0,0.0,0.0,0.0,0.0,0.0,0.0,0.0,0.0,0.0,0.0,0.0,0.0,0.0,0.0,0.0,0.0,0.0,0.0,0.0,0.0,0.0,0.0,0.0,0.0,0.0,0.0,0.0,0.0,0.0,0.0,0.0,0.0,0.0,0.0,0.0,0.0,0.0,0.0,0.0,0.0,0.0,0.0,0.0,0.0,0.0,0.0,0.0,0.0,0.0,0.0,0.0,0.0,0.0,0.0,0.0,0.0,0.0,0.0,0.0,0.0,0.0,0.0,0.0,0.0,0.0,0.0,0.0,0.0,0.0,0.0,0.0,0.0,0.0,0.0,0.0,0.0,0.0,0.0,0.0,0.0,0.0,0.0,0.0,0.0,0.0,0.0,0.0,0.0,0.0,0.0,0.0,0.0,0.0,0.0,0.0,0.0,0.0,0.0,0.0,0.0,0.0,0.0,0.0,0.0,0.0,0.0,0.0,0.0,0.0,0.0,0.0,0.0,0.0,0.0,0.0,0.0,0.0,0.0,0.0,0.0,0.0,0.0,0.0,0.0,0.0,0.0,0.0,0.0,0.0,0.0,0.0,0.0,0.0,0.0,0.0,0.0,0.0,0.0,0.0,0.0,0.0,0.0,0.0,0.0,0.0,0.0,0.0,0.0,0.0,0.0,0.0,0.0,0.0,0.0,0.0,0.0,0.0,0.0,0.0,0.0,0.0,0.0,0.0,0.0,0.0,0.0,0.0,0.0,0.0,0.0,0.0,0.0,0.0,0.0,0.0,0.0,0.0,0.0,0.0,0.0,0.0,0.0,0.0,0.0,0.0,0.0,0.0,0.0,0.0,0.0,0.0,0.0,0.0,0.0,0.0,0.0,0.0,0.0,0.0,0.0,0.0,0.0,0.0,0.0,0.0,0.0,0.0,0.0,0.0,0.0,0.0,0.0,0.0,0.0,0.0,0.0,0.0,0.0,0.0,0.0,0.0,0.0,0.0,0.0,0.0,0.0,0.0,0.0,0.0,0.0,0.0,0.0,0.0,0.0,0.0,0.0,0.0,0.0,0.0,0.0,0.0,0.0,0.0,0.0,0.0,0.0,0.0,0.0,0.0,0.0,0.0,0.0,0.0,0.0,0.0,0.0,0.0,0.0,0.0,0.0,0.0,0.0,0.0,0.0,0.0,0.0,0.0,0.0,0.0,0.0,0.0,0.0,0.0,0.0,0.0,0.0,0.0,0.0,0.0,0.0,0.0,0.0,0.0,0.0,0.0,0.0,0.0,0.0,0.0,0.0,0.0,0.0,0.0,0.0,0.0,0.0,0.0,0.0,0.0,0.0,0.0,0.0,0.0,0.0,0.0,0.0,0.0,0.0,0.0,0.0,0.0,0.0,0.0,0.0,0.0,0.0,0.0,0.0,0.0,0.0,0.0,0.0,0.0,0.0,0.0,0.0,0.0,0.0,0.0,0.0,0.0,0.0,0.0,0.0,0.0,0.0,0.0,0.0,0.0,0.0,0.0,0.0,0.0,0.0,0.0,0.0,0.0,0.0,0.0,0.0,0.0,0.0,0.0,0.0,0.0,0.0,0.0,0.0,0.0,0.0,0.0,0.0,0.0,0.0,0.0,0.0,0.0,0.0,0.0,0.0,0.0,0.0,0.0,0.0,0.0,0.0,0.0,0.0,0.0,0.0,0.0,0.0,0.0,0.0,0.0,0.0,0.0,0.0,0.0,0.0,0.0,0.0,0.0,0.0,0.0,0.0,0.0,0.0,0.0,0.0,0.0,0.0,0.0,0.0,0.0,0.0,0.0,0.0,0.0,0.0,0.0,0.0,0.0,0.0,0.0,0.0,0.0,0.0,0.0,0.0,0.0,0.0,0.0,0.0,0.0,0.0,0.0,0.0,0.0,0.0,0.0,0.0,0.0,0.0,0.0,0.0,0.0,0.0,0.0,0.0,0.0,0.0,0.0,0.0,0.0,0.0,0.0,0.0,0.0,0.0,0.0,0.0,0.0,0.0,0.0,0.0,0.0,0.0,0.0,0.0,0.0,0.0,0.0,0.0,0.0,0.0,0.0,0.0,0.0,0.0,0.0,0.0,0.0,0.0,0.0,0.0,0.0,0.0,0.0,0.0,0.0,0.0,0.0,0.0,0.0,0.0,0.0,0.0,0.0,0.0,0.0,0.0,0.0,0.0,0.0,0.0,0.0,0.0,0.0,0.0,0.0,0.0,0.0,0.0,0.0,0.0,0.0,0.0,0.0,0.0,0.0,0.0,0.0,0.0,0.0,0.0,0.0,0.0,0.0,0.0,0.0,0.0,0.0,0.0,0.0,0.0,0.0,0.0,0.0,0.0,0.0,0.0,0.0,0.0,0.0,0.0,0.0,0.0,0.0,0.0,0.0,0.0,0.0,0.0,0.0,0.0,0.0,0.0,0.0,0.0,0.0,0.0,0.0,0.0,0.0,0.0,0.0,0.0,0.0,0.0,0.0,0.0,0.0,0.0,0.0,0.0,0.0,0.0,0.0,0.0,0.0,0.0,0.0,0.0,0.0,0.0,0.0,0.0,0.0,0.0,0.0,0.0,0.0,0.0,0.0,0.0,0.0,0.0,0.0,0.0,0.0,5.055,0.0,0.0,0.0,0.0,0.0,0.0,0.0,0.0,0.0,0.0,0.0,0.0,0.0,0.0,0.0,0.0,0.0,0.0,0.0,0.0,0.0,0.0,0.0,0.0,0.0,0.0,0.0,0.0,0.0,0.0,0.0,0.0,0.0,0.0,0.0,0.0,0.0,0.0,0.0,0.0,0.0,0.0,0.0,0.0,0.0,0.0,0.0,0.0,0.0,0.0,0.0,0.0,0.0,0.0,0.0,0.0,0.0,0.0,0.0,0.0,0.0,0.0,0.0,0.0,0.0,0.0,0.0,0.0,0.0,0.0,0.0,0.0,0.0,0.0,0.0,0.0,0.0,0.0,0.0,0.0,0.0,0.0,0.0,0.0,0.0,0.0,0.0,0.0,0.0,0.0,0.0,0.0,0.0,0.0,0.0,0.0,0.0,0.0,0.0,0.0,0.0,0.0,0.0,0.0,0.0,0.0,0.0,0.0,0.0,0.0,5.195,5.1525,5.195,5.1563,5.0287,0.0,0.0,0.0,0.0,0.0,0.0,0.0,0.0,0.0,0.0,0.0,0.0,0.0,0.0,0.0,0.0,0.0,0.0,0.0,0.0,0.0,0.0,0.0,0.0,0.0,0.0,0.0,0.0,0.0,0.0,0.0,0.0,0.0,0.0,0.0,0.0,0.0,0.0,0.0,0.0,0.0,0.0,0.0,0.0,0.0,0.0,0.0,0.0,0.0,0.0,0.0,0.0,0.0,0.0,0.0,0.0,0.0,0.0,0.0,0.0,0.0,0.0,0.0,0.0,0.0,0.0,0.0,0.0,0.0,0.0,0.0,0.0,0.0,0.0,0.0,0.0,0.0,0.0,0.0,0.0,0.0,0.0,0.0,0.0,0.0,0.0,0.0,0.0,0.0,0.0,0.0,0.0,0.0,0.0,0.0,0.0,0.0,0.0,0.0,0.0,0.0,0.0,0.0,0.0,0.0,0.0,0.0,0.0,0.0,0.0,0.0,0.0,5.2608,5.2066,5.0055,0.0,0.0,0.0,0.0,0.0,0.0,0.0,0.0,0.0,0.0,0.0,0.0,0.0,0.0,0.0,0.0,0.0,0.0,0.0,0.0,0.0,0.0,0.0,0.0,0.0,0.0,0.0,0.0,0.0,0.0,0.0,0.0,0.0,0.0,0.0,0.0,0.0,0.0,0.0,0.0,0.0,0.0,0.0,0.0,0.0,0.0,0.0,0.0,0.0,0.0,0.0,0.0,0.0,0.0,0.0,0.0,0.0,0.0,0.0,0.0,0.0,0.0,0.0,0.0,0.0,0.0,0.0,0.0,0.0,0.0,0.0,0.0,0.0,0.0,0.0,0.0,0.0,0.0,0.0,0.0,0.0,0.0,0.0,0.0,0.0,0.0,0.0,0.0,0.0,0.0,0.0,0.0,0.0,0.0,0.0,0.0,0.0,0.0,0.0,0.0,0.0,0.0,0.0,0.0,0.0,0.0,0.0,0.0,0.0,0.0,5.373,5.4426,5.52,0.0,5.1091,0.0,0.0,0.0,0.0,0.0,0.0,0.0,0.0,0.0,0.0,0.0,0.0,0.0,0.0,0.0,0.0,0.0,0.0,0.0,0.0,0.0,0.0,0.0,0.0,0.0,0.0,0.0,0.0,0.0,0.0,0.0,0.0,0.0,0.0,0.0,0.0,0.0,0.0,0.0,0.0,0.0,0.0,0.0,0.0,0.0,0.0,0.0,0.0,0.0,0.0,0.0,0.0,0.0,0.0,0.0,0.0,0.0,0.0,0.0,0.0,0.0,0.0,0.0,0.0,0.0,0.0,0.0,0.0,0.0,0.0,0.0,0.0,0.0,0.0,0.0,0.0,0.0,0.0,0.0,0.0,0.0,0.0,0.0,0.0,0.0,0.0,0.0,0.0,0.0,0.0,0.0,0.0,0.0,0.0,0.0,0.0,0.0,0.0,0.0,0.0,0.0,0.0,0.0,0.0,0.0,0.0,0.0,0.0,0.0,0.0,5.4426,5.4813,5.3614,5.2329,0.0,0.0,0.0,0.0,0.0,0.0,0.0,0.0,0.0,0.0,0.0,0.0,0.0,0.0,0.0,0.0,0.0,0.0,0.0,0.0,0.0,0.0,0.0,0.0,0.0,0.0,0.0,0.0,0.0,0.0,0.0,0.0,0.0,0.0,0.0,0.0,0.0,0.0,0.0,0.0,0.0,0.0,0.0,0.0,0.0,0.0,0.0,0.0,0.0,0.0,0.0,0.0,0.0,0.0,0.0,0.0,0.0,0.0,0.0,0.0,0.0,0.0,0.0,0.0,0.0,0.0,0.0,0.0,0.0,0.0,0.0,0.0,0.0,0.0,0.0,0.0,0.0,0.0,0.0,0.0,0.0,0.0,0.0,0.0,0.0,0.0,0.0,0.0,0.0,0.0,0.0,0.0,0.0,0.0,0.0,0.0,0.0,0.0,0.0,0.0,0.0,0.0,0.0,0.0,0.0,0.0,0.0,0.0,0.0,0.0,5.4271,5.489,5.5045,5.3296,5.1788,5.0589,0.0,0.0,0.0,0.0,0.0,0.0,0.0,0.0,0.0,0.0,0.0,0.0,0.0,0.0,0.0,0.0,0.0,0.0,0.0,0.0,0.0,0.0,0.0,0.0,0.0,0.0,0.0,0.0,0.0,0.0,0.0,0.0,0.0,0.0,0.0,0.0,0.0,0.0,0.0,0.0,0.0,0.0,0.0,0.0,0.0,0.0,0.0,0.0,0.0,0.0,0.0,0.0,0.0,0.0,0.0,0.0,0.0,0.0,0.0,0.0,0.0,0.0,0.0,0.0,0.0,0.0,0.0,0.0,0.0,0.0,0.0,0.0,0.0,0.0,0.0,0.0,0.0,0.0,0.0,0.0,0.0,0.0,0.0,0.0,0.0,0.0,0.0,0.0,0.0,0.0,0.0,0.0,0.0,0.0,0.0,0.0,0.0,0.0,0.0,0.0,0.0,0.0,0.0,0.0,0.0,0.0,0.0,0.0,0.0,5.5122,5.5161,5.5973,5.5818,5.3884,0.0,0.0,0.0,0.0,0.0,0.0,0.0,0.0,0.0,0.0,0.0,0.0,0.0,0.0,0.0,0.0,0.0,0.0,0.0,0.0,0.0,0.0,0.0,0.0,0.0,0.0,0.0,0.0,0.0,0.0,0.0,0.0,0.0,0.0,0.0,0.0,0.0,0.0,0.0,0.0,0.0,0.0,0.0,0.0,0.0,0.0,0.0,0.0,0.0,0.0,0.0,0.0,0.0,0.0,0.0,0.0,0.0,0.0,0.0,0.0,0.0,0.0,0.0,0.0,0.0,0.0,0.0,0.0,0.0,0.0,0.0,0.0,0.0,0.0,0.0,0.0,0.0,0.0,0.0,0.0,0.0,0.0,0.0,0.0,0.0,0.0,0.0,0.0,0.0,0.0,0.0,0.0,0.0,0.0,0.0,0.0,0.0,0.0,0.0,0.0,0.0,0.0,0.0,0.0,0.0,0.0,0.0,0.0,0.0,5.3498,5.4349,5.5973,5.8255,5.4774,5.2531,0.0,0.0,0.0,0.0,0.0,0.0,0.0,0.0,0.0,0.0,0.0,0.0,0.0,0.0,0.0,0.0,0.0,0.0,0.0,0.0,0.0,0.0,0.0,0.0,0.0,0.0,0.0,0.0,0.0,0.0,0.0,0.0,0.0,0.0,0.0,0.0,0.0,0.0,0.0,0.0,0.0,0.0,0.0,0.0,0.0,0.0,0.0,0.0,0.0,0.0,0.0,0.0,0.0,0.0,0.0,0.0,0.0,0.0,0.0,0.0,0.0,0.0,0.0,0.0,0.0,0.0,0.0,0.0,0.0,0.0,0.0,0.0,0.0,0.0,0.0,0.0,0.0,0.0,0.0,0.0,0.0,0.0,0.0,0.0,0.0,0.0,0.0,0.0,0.0,0.0,0.0,0.0,0.0,0.0,0.0,0.0,0.0,0.0,0.0,0.0,0.0,0.0,0.0,0.0,0.0,0.0,0.0,0.0,0.0,5.2995,0.0,5.6747,0.0,5.431,5.195,0.0,0.0,0.0,0.0,0.0,0.0,0.0,0.0,0.0,0.0,0.0,0.0,0.0,0.0,0.0,0.0,0.0,0.0,0.0,0.0,0.0,0.0,0.0,0.0,0.0,0.0,0.0,0.0,0.0,0.0,0.0,0.0,0.0,0.0,0.0,0.0,0.0,0.0,0.0,0.0,0.0,0.0,0.0,0.0,0.0,0.0,0.0,0.0,0.0,0.0,0.0,0.0,0.0,0.0,0.0,0.0,0.0,0.0,0.0,0.0,0.0,0.0,0.0,0.0,0.0,0.0,0.0,0.0,0.0,0.0,0.0,0.0,0.0,0.0,0.0,0.0,0.0,0.0,0.0,0.0,0.0,0.0,0.0,0.0,0.0,0.0,0.0,0.0,0.0,0.0,0.0,0.0,0.0,0.0,0.0,0.0,0.0,0.0,0.0,0.0,0.0,0.0,0.0,0.0,0.0,0.0,0.0,0.0,5.1439,5.4697,5.7172,5.7327,5.5006,5.4774,5.2337,0.0,0.0,0.0,0.0,0.0,0.0,0.0,0.0,0.0,0.0,0.0,0.0,0.0,0.0,0.0,0.0,0.0,0.0,0.0,0.0,0.0,0.0,0.0,0.0,0.0,0.0,0.0,0.0,0.0,0.0,0.0,0.0,0.0,0.0,0.0,0.0,0.0,0.0,0.0,0.0,0.0,0.0,0.0,0.0,0.0,0.0,0.0,0.0,0.0,0.0,0.0,0.0,0.0,0.0,0.0,0.0,0.0,0.0,0.0,0.0,0.0,0.0,0.0,0.0,0.0,0.0,0.0,0.0,0.0,0.0,0.0,0.0,0.0,0.0,0.0,0.0,0.0,0.0,0.0,0.0,0.0,0.0,0.0,0.0,0.0,0.0,0.0,0.0,0.0,0.0,0.0,0.0,0.0,0.0,0.0,0.0,0.0,0.0,0.0,0.0,0.0,0.0,0.0,0.0,0.0,0.0,0.0,0.0,0.0,5.4813,5.6128,5.7288,5.8139,5.4851,5.2531,0.0,0.0,0.0,0.0,0.0,0.0,0.0,0.0,0.0,0.0,0.0,0.0,0.0,0.0,0.0,0.0,0.0,0.0,0.0,0.0,0.0,0.0,0.0,0.0,0.0,0.0,0.0,0.0,0.0,0.0,0.0,0.0,0.0,0.0,0.0,0.0,0.0,0.0,0.0,0.0,0.0,0.0,0.0,0.0,0.0,0.0,0.0,0.0,0.0,0.0,0.0,0.0,0.0,0.0,0.0,0.0,0.0,0.0,0.0,0.0,0.0,0.0,0.0,0.0,0.0,0.0,0.0,0.0,0.0,0.0,0.0,0.0,0.0,0.0,0.0,0.0,0.0,0.0,0.0,0.0,0.0,0.0,0.0,0.0,0.0,0.0,0.0,0.0,0.0,0.0,0.0,0.0,0.0,0.0,0.0,0.0,0.0,0.0,0.0,0.0,0.0,0.0,0.0,0.0,0.0,0.0,0.0,0.0,0.0,5.6738,5.8101,5.9339,6.0306,5.6283,5.3575,5.2492,0.0,0.0,0.0,0.0,0.0,0.0,0.0,0.0,0.0,0.0,0.0,0.0,0.0,0.0,0.0,0.0,0.0,0.0,0.0,0.0,0.0,0.0,0.0,0.0,0.0,0.0,0.0,0.0,0.0,0.0,0.0,0.0,0.0,0.0,0.0,0.0,0.0,0.0,0.0,0.0,0.0,0.0,0.0,0.0,0.0,0.0,0.0,0.0,0.0,0.0,0.0,0.0,0.0,0.0,0.0,0.0,0.0,0.0,0.0,0.0,0.0,0.0,0.0,0.0,0.0,0.0,0.0,0.0,0.0,0.0,0.0,0.0,0.0,0.0,0.0,0.0,0.0,0.0,0.0,0.0,0.0,0.0,0.0,0.0,0.0,0.0,0.0,0.0,0.0,0.0,0.0,0.0,0.0,0.0,0.0,0.0,0.0,0.0,0.0,0.0,0.0,0.0,0.0,0.0,0.0,0.0,0.0,0.0,5.9978,6.2617,6.3081,6.135,5.8749,5.5423,0.0,0.0,0.0,0.0,0.0,0.0,0.0,0.0,0.0,0.0,0.0,0.0,0.0,0.0,0.0,0.0,0.0,0.0,0.0,0.0,0.0,0.0,0.0,0.0,0.0,0.0,0.0,0.0,0.0,0.0,0.0,0.0,0.0,0.0,0.0,0.0,0.0,0.0,0.0,0.0,0.0,0.0,0.0,0.0,0.0,0.0,0.0,0.0,0.0,0.0,0.0,0.0,0.0,0.0,0.0,0.0,0.0,0.0,0.0,0.0,0.0,0.0,0.0,0.0,0.0,0.0,0.0,0.0,0.0,0.0,0.0,0.0,0.0,0.0,0.0,0.0,0.0,0.0,0.0,0.0,0.0,0.0,0.0,0.0,0.0,0.0,0.0,0.0,0.0,0.0,0.0,0.0,0.0,0.0,0.0,0.0,0.0,0.0,0.0,0.0,0.0,0.0,0.0,0.0,0.0,0.0,0.0,0.0,0.0,6.1366,6.5137,6.6117,6.3971,6.0267,5.6863,0.0,0.0,0.0,0.0,0.0,0.0,0.0,0.0,0.0,0.0,0.0,0.0,0.0,0.0,0.0,0.0,0.0,0.0,0.0,0.0,0.0,0.0,0.0,0.0,0.0,0.0,0.0,0.0,0.0,0.0,0.0,0.0,0.0,0.0,0.0,0.0,0.0,0.0,0.0,0.0,0.0,0.0,0.0,0.0,0.0,0.0,0.0,0.0,0.0,0.0,0.0,0.0,0.0,0.0,0.0,0.0,0.0,0.0,0.0,0.0,0.0,0.0,0.0,0.0,0.0,0.0,0.0,0.0,0.0,0.0,0.0,0.0,0.0,0.0,0.0,0.0,0.0,0.0,0.0,0.0,0.0,0.0,0.0,0.0,0.0,0.0,0.0,0.0,0.0,0.0,0.0,0.0,0.0,0.0,0.0,0.0,0.0,0.0,0.0,0.0,0.0,0.0,0.0,0.0,0.0,0.0,0.0,0.0,6.0226,6.2912,6.7141,6.854,6.6962,6.2887,5.9029,0.0,0.0,0.0,0.0,0.0,0.0,0.0,0.0,0.0,0.0,0.0,0.0,0.0,0.0,0.0,0.0,0.0,0.0,0.0,0.0,0.0,0.0,0.0,0.0,0.0,0.0,0.0,0.0,0.0,0.0,0.0,0.0,0.0,0.0,0.0,0.0,0.0,0.0,0.0,0.0,0.0,0.0,0.0,0.0,0.0,0.0,0.0,0.0,0.0,0.0,0.0,0.0,0.0,0.0,0.0,0.0,0.0,0.0,0.0,0.0,0.0,0.0,0.0,0.0,0.0,0.0,0.0,0.0,0.0,0.0,0.0,0.0,0.0,0.0,0.0,0.0,0.0,0.0,0.0,0.0,0.0,0.0,0.0,0.0,0.0,0.0,0.0,0.0,0.0,0.0,0.0,0.0,0.0,0.0,0.0,0.0,0.0,0.0,0.0,0.0,0.0,0.0,0.0,0.0,0.0,0.0,0.0,0.0,6.2223,6.4396,6.852,7.0301,6.9341,6.5677,6.1389,0.0,0.0,0.0,0.0,0.0,0.0,0.0,0.0,0.0,0.0,0.0,0.0,0.0,0.0,0.0,0.0,0.0,0.0,0.0,0.0,0.0,0.0,0.0,0.0,0.0,0.0,0.0,0.0,0.0,0.0,0.0,0.0,0.0,0.0,0.0,0.0,0.0,0.0,0.0,0.0,0.0,0.0,0.0,0.0,0.0,0.0,0.0,0.0,0.0,0.0,0.0,0.0,0.0,0.0,0.0,0.0,0.0,0.0,0.0,0.0,0.0,0.0,0.0,0.0,0.0,0.0,0.0,0.0,0.0,0.0,0.0,0.0,0.0,0.0,0.0,0.0,0.0,0.0,0.0,0.0,0.0,0.0,0.0,0.0,0.0,0.0,0.0,0.0,0.0,0.0,0.0,0.0,0.0,0.0,0.0,0.0,0.0,0.0,0.0,0.0,0.0,0.0,0.0,0.0,0.0,0.0,0.0,0.0,6.2595,6.4651,6.8157,6.9599,6.8724,6.5448,6.193,0.0,0.0,0.0,0.0,0.0,0.0,0.0,0.0,0.0,0.0,0.0,0.0,0.0,0.0,0.0,0.0,0.0,0.0,0.0,0.0,0.0,0.0,0.0,0.0,0.0,0.0,0.0,0.0,0.0,0.0,0.0,0.0,0.0,0.0,0.0,0.0,0.0,0.0,0.0,0.0,0.0,0.0,0.0,0.0,0.0,0.0,0.0,0.0,6.2934,0.0,0.0,0.0,0.0,0.0,0.0,0.0,0.0,0.0,0.0,0.0,0.0,0.0,0.0,0.0,0.0,0.0,0.0,0.0,0.0,0.0,0.0,0.0,0.0,0.0,0.0,0.0,0.0,0.0,0.0,0.0,0.0,0.0,0.0,0.0,0.0,0.0,0.0,0.0,0.0,0.0,0.0,0.0,0.0,0.0,0.0,0.0,0.0,0.0,0.0,0.0,0.0,0.0,0.0,0.0,0.0,0.0,0.0,0.0,6.3521,6.5841,6.8452,6.9588,6.9038,6.6427,6.3063,0.0,0.0,0.0,0.0,0.0,0.0,0.0,0.0,0.0,0.0,0.0,0.0,0.0,0.0,0.0,0.0,0.0,0.0,0.0,0.0,0.0,0.0,0.0,0.0,0.0,0.0,0.0,0.0,0.0,0.0,0.0,0.0,0.0,0.0,0.0,0.0,0.0,0.0,0.0,0.0,0.0,0.0,0.0,0.0,0.0,0.0,0.0,0.0,0.0,0.0,0.0,0.0,0.0,0.0,0.0,0.0,0.0,0.0,0.0,0.0,0.0,0.0,0.0,0.0,0.0,0.0,0.0,0.0,0.0,0.0,0.0,0.0,0.0,0.0,0.0,0.0,0.0,0.0,0.0,0.0,0.0,0.0,0.0,0.0,0.0,0.0,0.0,0.0,0.0,0.0,0.0,0.0,0.0,0.0,0.0,0.0,0.0,0.0,0.0,0.0,0.0,0.0,0.0,0.0,0.0,0.0,0.0,6.1224,6.4405,6.7373,6.8943,6.972,6.9644,6.7528,6.3984,5.903,0.0,0.0,0.0,0.0,0.0,0.0,0.0,0.0,0.0,0.0,0.0,0.0,0.0,0.0,0.0,0.0,0.0,0.0,0.0,0.0,0.0,0.0,0.0,0.0,0.0,0.0,0.0,0.0,0.0,0.0,0.0,0.0,0.0,0.0,0.0,0.0,0.0,0.0,5.6796,5.8933,0.0,0.0,0.0,0.0,0.0,0.0,0.0,0.0,6.2701,0.0,0.0,0.0,0.0,0.0,0.0,0.0,0.0,0.0,0.0,0.0,0.0,0.0,0.0,0.0,0.0,0.0,0.0,0.0,0.0,0.0,0.0,0.0,0.0,0.0,0.0,0.0,0.0,0.0,0.0,0.0,0.0,0.0,0.0,0.0,0.0,0.0,0.0,0.0,0.0,0.0,0.0,0.0,0.0,0.0,0.0,0.0,0.0,0.0,0.0,0.0,0.0,0.0,0.0,0.0,0.0,6.0924,6.1694,6.4229,6.8725,6.9139,6.931,6.9235,6.6927,6.3314,5.8473,0.0,0.0,0.0,0.0,0.0,0.0,0.0,0.0,0.0,0.0,0.0,0.0,0.0,0.0,0.0,0.0,0.0,0.0,0.0,0.0,0.0,0.0,0.0,0.0,0.0,0.0,0.0,0.0,0.0,0.0,0.0,0.0,0.0,0.0,0.0,0.0,0.0,0.0,0.0,6.0907,6.1808,0.0,0.0,0.0,0.0,0.0,0.0,0.0,0.0,6.215,0.0,0.0,0.0,0.0,0.0,0.0,0.0,0.0,0.0,0.0,0.0,0.0,0.0,0.0,0.0,0.0,0.0,0.0,0.0,0.0,0.0,0.0,0.0,0.0,0.0,0.0,0.0,0.0,0.0,0.0,0.0,0.0,0.0,0.0,0.0,0.0,0.0,0.0,0.0,0.0,0.0,0.0,0.0,0.0,0.0,0.0,0.0,0.0,0.0,0.0,0.0,0.0,0.0,0.0,0.0,6.0229,6.2595,6.5523,6.9031,6.9181,6.9181,6.9106,6.5561,6.1656,0.0,0.0,0.0,0.0,0.0,0.0,0.0,0.0,0.0,0.0,0.0,0.0,0.0,0.0,0.0,0.0,0.0,0.0,0.0,0.0,0.0,0.0,0.0,0.0,0.0,0.0,0.0,0.0,0.0,0.0,0.0,0.0,0.0,0.0,0.0,0.0,0.0,0.0,0.0,0.0,6.1886,6.3206,6.445,0.0,0.0,0.0,0.0,0.0,0.0,6.3439,6.2507,0.0,0.0,0.0,0.0,0.0,0.0,0.0,0.0,0.0,0.0,0.0,0.0,0.0,0.0,0.0,0.0,0.0,0.0,0.0,0.0,0.0,0.0,0.0,0.0,0.0,0.0,0.0,0.0,0.0,0.0,0.0,0.0,0.0,0.0,0.0,0.0,0.0,0.0,0.0,0.0,0.0,0.0,0.0,0.0,0.0,0.0,0.0,0.0,0.0,0.0,0.0,0.0,0.0,0.0,0.0,5.9253,6.3083,6.6387,6.9031,6.9181,6.9181,6.9106,6.4547,6.0417,0.0,0.0,0.0,0.0,0.0,0.0,0.0,0.0,0.0,0.0,0.0,0.0,0.0,0.0,0.0,0.0,0.0,0.0,0.0,0.0,0.0,0.0,0.0,0.0,0.0,0.0,0.0,0.0,0.0,0.0,0.0,0.0,0.0,0.0,0.0,0.0,0.0,0.0,0.0,0.0,0.0,6.476,6.5382,6.4916,0.0,0.0,0.0,0.0,6.4636,6.4155,0.0,0.0,0.0,0.0,0.0,0.0,0.0,0.0,0.0,0.0,0.0,0.0,0.0,0.0,0.0,0.0,0.0,0.0,0.0,0.0,0.0,0.0,0.0,0.0,0.0,0.0,0.0,0.0,0.0,0.0,0.0,0.0,0.0,0.0,0.0,0.0,0.0,0.0,0.0,0.0,0.0,0.0,0.0,0.0,0.0,0.0,0.0,0.0,0.0,0.0,0.0,0.0,0.0,0.0,0.0,0.0,5.914,6.1994,6.5298,6.8956,6.9181,6.9181,6.9144,6.5148,6.1055,0.0,0.0,0.0,0.0,0.0,0.0,0.0,0.0,0.0,0.0,0.0,0.0,0.0,0.0,0.0,0.0,0.0,0.0,0.0,0.0,0.0,0.0,0.0,0.0,0.0,0.0,0.0,0.0,0.0,0.0,0.0,0.0,0.0,0.0,0.0,0.0,0.0,0.0,0.0,0.0,0.0,6.6237,6.6353,6.6275,6.5926,0.0,0.0,6.6281,6.7152,6.7148,0.0,0.0,0.0,0.0,0.0,0.0,0.0,0.0,0.0,0.0,0.0,0.0,0.0,0.0,0.0,0.0,0.0,0.0,0.0,0.0,0.0,0.0,0.0,0.0,0.0,0.0,0.0,0.0,0.0,0.0,0.0,0.0,0.0,0.0,0.0,0.0,0.0,0.0,0.0,0.0,0.0,0.0,0.0,0.0,0.0,0.0,0.0,0.0,0.0,0.0,0.0,0.0,0.0,0.0,0.0,5.5385,5.929,6.3646,6.695,6.9069,6.9181,6.9181,6.9181,6.3834,5.9666,0.0,0.0,0.0,0.0,0.0,0.0,0.0,0.0,0.0,0.0,0.0,0.0,0.0,0.0,0.0,0.0,0.0,0.0,0.0,0.0,0.0,0.0,0.0,0.0,0.0,0.0,0.0,0.0,0.0,0.0,0.0,0.0,0.0,0.0,0.0,0.0,0.0,0.0,0.0,0.0,0.0,0.0,6.7906,6.8396,0.0,0.0,0.0,6.7515,6.6403,0.0,0.0,0.0,0.0,0.0,0.0,0.0,0.0,0.0,0.0,0.0,0.0,0.0,0.0,0.0,0.0,0.0,0.0,0.0,0.0,0.0,0.0,0.0,0.0,0.0,0.0,0.0,0.0,0.0,0.0,0.0,0.0,0.0,0.0,0.0,0.0,0.0,0.0,0.0,0.0,0.0,0.0,0.0,0.0,0.0,0.0,0.0,0.0,0.0,0.0,0.0,0.0,0.0,0.0,0.0,0.0,0.0,5.9328,6.5035,6.8377,6.9144,6.9181,6.9181,6.9069,6.3571,0.0,0.0,0.0,0.0,0.0,0.0,0.0,0.0,0.0,0.0,0.0,0.0,0.0,0.0,0.0,0.0,0.0,0.0,0.0,0.0,0.0,0.0,0.0,0.0,0.0,0.0,0.0,4.7635,0.0,0.0,0.0,0.0,0.0,0.0,0.0,0.0,0.0,0.0,0.0,0.0,0.0,0.0,6.895,6.8989,6.9753,7.0218,0.0,0.0,6.8682,6.6931,6.8074,6.8036,0.0,0.0,0.0,0.0,0.0,0.0,0.0,0.0,0.0,0.0,0.0,0.0,0.0,0.0,0.0,0.0,0.0,0.0,0.0,0.0,0.0,0.0,0.0,0.0,0.0,0.0,0.0,0.0,0.0,0.0,0.0,0.0,0.0,0.0,0.0,0.0,0.0,0.0,0.0,0.0,0.0,0.0,0.0,0.0,0.0,0.0,0.0,0.0,0.0,0.0,0.0,0.0,0.0,0.0,5.6832,5.9403,6.5035,6.8415,6.9144,6.9181,6.9181,6.9144,6.5786,6.1693,0.0,0.0,0.0,0.0,0.0,0.0,0.0,0.0,0.0,0.0,0.0,0.0,0.0,0.0,0.0,0.0,0.0,0.0,0.0,0.0,0.0,0.0,0.0,0.0,0.0,0.0,0.0,0.0,0.0,0.0,0.0,0.0,0.0,0.0,0.0,0.0,0.0,0.0,0.0,0.0,0.0,6.8897,6.8897,6.9642,7.0767,0.0,7.1058,7.0214,7.0873,7.2341,7.1545,6.5867,0.0,0.0,0.0,0.0,0.0,0.0,0.0,0.0,0.0,0.0,0.0,0.0,0.0,0.0,0.0,0.0,0.0,0.0,0.0,0.0,0.0,0.0,0.0,0.0,0.0,0.0,0.0,0.0,0.0,0.0,0.0,0.0,0.0,0.0,0.0,0.0,0.0,0.0,0.0,0.0,0.0,0.0,0.0,0.0,0.0,0.0,0.0,0.0,0.0,0.0,0.0,0.0,0.0,5.7338,5.9328,6.5523,6.8881,6.9181,6.9181,6.9181,6.9181,6.6011,6.2219,0.0,0.0,0.0,0.0,0.0,0.0,0.0,0.0,0.0,0.0,0.0,0.0,0.0,0.0,0.0,0.0,0.0,0.0,0.0,0.0,0.0,0.0,0.0,0.0,0.0,0.0,0.0,0.0,5.6028,5.6258,5.6451,0.0,0.0,0.0,0.0,0.0,0.0,0.0,0.0,0.0,0.0,7.0815,7.1823,7.2744,0.0,0.0,7.2865,7.2169,7.1451,7.1429,7.018,6.637,6.49,0.0,0.0,0.0,0.0,0.0,0.0,0.0,0.0,0.0,0.0,0.0,0.0,0.0,0.0,0.0,0.0,0.0,0.0,0.0,0.0,0.0,0.0,0.0,0.0,0.0,0.0,0.0,0.0,0.0,0.0,0.0,0.0,0.0,0.0,0.0,0.0,0.0,0.0,0.0,0.0,0.0,0.0,0.0,0.0,0.0,0.0,0.0,0.0,0.0,0.0,0.0,0.0,5.8051,5.9703,6.5953,6.9181,6.9181,6.9181,6.9181,6.9106,6.6725,6.3345,0.0,0.0,0.0,0.0,0.0,0.0,0.0,0.0,0.0,0.0,0.0,0.0,0.0,0.0,0.0,0.0,0.0,0.0,0.0,0.0,0.0,0.0,0.0,0.0,0.0,0.0,0.0,0.0,5.826,5.8285,5.9396,0.0,0.0,0.0,0.0,0.0,0.0,0.0,0.0,0.0,0.0,7.239,7.3048,7.3893,7.4242,7.3585,7.2872,7.2109,7.1418,7.0982,6.9899,6.7384,0.0,0.0,0.0,0.0,0.0,0.0,0.0,0.0,0.0,0.0,0.0,0.0,0.0,0.0,0.0,0.0,0.0,0.0,0.0,0.0,0.0,0.0,0.0,0.0,0.0,0.0,0.0,4.9415,0.0,0.0,4.6997,0.0,0.0,0.0,0.0,0.0,0.0,0.0,0.0,0.0,0.0,0.0,0.0,0.0,0.0,0.0,0.0,0.0,0.0,0.0,0.0,0.0,0.0,5.8915,6.0604,6.6274,6.9181,6.9181,6.9181,6.9181,6.9144,6.834,6.5598,6.0642,0.0,0.0,0.0,0.0,0.0,0.0,0.0,0.0,0.0,0.0,0.0,0.0,0.0,0.0,0.0,0.0,0.0,0.0,0.0,0.0,0.0,0.0,0.0,0.0,0.0,0.0,5.5163,5.6367,5.7952,0.0,0.0,0.0,0.0,0.0,0.0,0.0,0.0,0.0,6.7216,7.1137,7.3226,7.164,7.2115,7.2811,7.2723,7.0672,6.9589,7.1175,7.1988,7.1678,0.0,0.0,0.0,0.0,0.0,0.0,0.0,0.0,0.0,0.0,0.0,0.0,0.0,0.0,0.0,0.0,0.0,0.0,0.0,0.0,0.0,0.0,0.0,0.0,0.0,0.0,0.0,5.2381,5.1067,0.0,0.0,0.0,0.0,0.0,0.0,0.0,0.0,0.0,0.0,0.0,6.0548,6.1636,0.0,0.0,0.0,0.0,0.0,0.0,0.0,0.0,0.0,0.0,0.0,0.0,5.8952,6.0755,6.6291,6.9181,6.9181,6.9181,6.9181,6.9181,6.8415,6.5674,6.0755,0.0,0.0,0.0,0.0,0.0,0.0,0.0,0.0,0.0,0.0,0.0,0.0,0.0,0.0,0.0,0.0,0.0,0.0,0.0,0.0,0.0,0.0,0.0,0.0,0.0,5.7863,0.0,0.0,0.0,0.0,0.0,0.0,0.0,0.0,0.0,0.0,0.0,6.7927,6.9761,7.1253,7.2181,7.2142,7.338,7.4463,0.0,0.0,0.0,0.0,0.0,0.0,0.0,0.0,0.0,0.0,0.0,0.0,0.0,0.0,7.6924,7.1827,7.1141,7.1268,7.0986,0.0,0.0,0.0,0.0,0.0,0.0,0.0,0.0,0.0,0.0,0.0,0.0,0.0,0.0,5.528,5.4715,5.3119,0.0,0.0,0.0,0.0,0.0,0.0,0.0,0.0,6.2895,6.4434,6.5223,6.6254,6.6237,0.0,6.4359,6.143,0.0,0.0,0.0,0.0,0.0,0.0,0.0,0.0,5.9816,6.1581,6.6554,6.9181,6.9181,6.9181,6.9181,6.9181,6.8152,6.5936,6.2407,5.8614,5.5648,0.0,0.0,0.0,0.0,0.0,0.0,0.0,0.0,0.0,0.0,0.0,0.0,0.0,0.0,0.0,0.0,0.0,0.0,0.0,0.0,0.0,0.0,0.0,6.0001,0.0,0.0,0.0,0.0,0.0,0.0,0.0,0.0,0.0,6.633,6.7955,6.9912,7.1955,7.2251,7.2379,7.2597,0.0,0.0,0.0,0.0,0.0,0.0,0.0,7.2308,7.2568,7.2761,7.3342,7.4966,7.779,7.9685,7.9105,0.0,0.0,7.6281,7.5508,7.5624,7.5314,7.4309,7.3419,7.3148,7.2607,7.2142,0.0,0.0,0.0,0.0,0.0,0.0,0.0,0.0,5.876,5.8968,0.0,5.7042,0.0,0.0,0.0,0.0,5.7187,6.0304,0.0,0.0,6.8452,7.0067,6.9294,6.9332,6.9332,6.9257,6.8527,6.7251,6.5411,6.083,0.0,0.0,0.0,0.0,0.0,0.0,6.143,6.3158,6.7117,6.9181,6.9181,6.9181,6.9181,6.9144,6.7664,6.6425,6.5448,6.2407,5.9591,5.7075,5.3958,0.0,0.0,0.0,0.0,0.0,0.0,0.0,0.0,0.0,0.0,0.0,0.0,0.0,0.0,0.0,0.0,0.0,0.0,0.0,0.0,5.9703,0.0,0.0,0.0,0.0,0.0,0.0,0.0,0.0,0.0,0.0,6.7846,6.8962,7.0913,7.3598,0.0,0.0,0.0,0.0,7.3625,7.2486,7.1577,7.1608,7.2805,7.485,7.6049,7.5353,0.0,0.0,8.0575,8.1078,8.1233,7.9608,8.2045,8.3863,8.2935,8.1929,8.1194,8.0382,7.8873,7.7597,7.6784,7.6436,7.6165,6.4582,0.0,0.0,0.0,0.0,6.2061,6.2626,6.3153,6.3245,6.2591,6.1354,6.0416,0.0,0.0,0.0,0.0,0.0,0.0,6.4772,6.7025,6.9391,7.0968,7.1869,7.247,7.247,7.1869,7.1606,7.0968,6.9879,6.7926,6.3834,5.7863,0.0,0.0,0.0,0.0,6.2557,6.481,6.768,6.9181,6.9181,6.9181,6.9181,6.9181,6.8227,6.7251,6.6425,6.4923,6.267,5.9703,5.8652,0.0,0.0,0.0,0.0,0.0,0.0,0.0,0.0,0.0,0.0,0.0,0.0,0.0,0.0,0.0,0.0,0.0,0.0,0.0,5.9722,6.1393,6.2521,0.0,0.0,0.0,0.0,0.0,0.0,0.0,0.0,0.0,7.2316,7.2547,7.2896,0.0,0.0,7.2293,7.1449,7.3287,7.5067,7.5928,7.6404,0.0,7.7894,7.7094,7.6746,7.7713,8.0614,8.2819,8.2973,8.4173,8.4985,8.4443,8.4714,8.5062,8.541,8.4792,8.394,8.3128,8.2084,8.1078,8.0227,7.9569,7.9028,6.9027,6.5405,6.4475,6.4362,6.4828,6.5293,6.5876,6.6512,6.6656,6.6244,6.5427,6.4454,6.3501,6.251,6.1596,0.0,0.0,0.0,6.71,6.9541,7.0855,7.2132,7.3409,7.3934,7.3934,7.3409,7.3409,7.3146,7.2695,7.1531,6.7964,6.2181,0.0,0.0,5.944,6.1956,6.4172,6.6011,6.8452,6.9579,6.9219,6.9181,6.9181,6.9181,6.8415,6.7739,6.7288,6.6462,6.4772,6.2181,6.143,5.929,0.0,0.0,0.0,0.0,0.0,0.0,0.0,0.0,0.0,0.0,0.0,5.7375,5.5047,0.0,0.0,0.0,6.0079,6.2033,6.3126,6.4609,0.0,0.0,0.0,0.0,0.0,0.0,0.0,7.1459,7.4241,7.5856,7.5026,7.4981,7.4957,7.4843,7.3687,7.2917,7.3052,0.0,7.6378,7.755,7.8602,7.9379,7.9673,7.9299,7.9415,8.0769,8.2238,8.3554,8.4443,8.572,8.6571,8.6532,8.5913,8.5449,8.5991,8.541,8.4714,8.4211,8.367,8.2935,8.1774,8.1078,8.0691,7.2283,7.1336,6.9372,6.8338,6.801,6.7987,6.874,6.9951,6.9136,6.9681,7.0933,6.8735,6.7775,6.7778,6.5646,0.0,6.6066,6.7621,6.9573,7.1787,7.2597,7.3386,7.4174,7.4151,7.4174,7.4174,7.4174,7.4174,7.4122,7.2658,7.0668,6.8302,6.6687,6.4998,6.3345,6.4697,6.5974,6.6896,6.9128,6.9954,6.9219,6.9181,6.9181,6.9181,6.8415,6.7964,6.7889,6.7251,6.6107,6.4359,6.297,6.1017,5.8408,0.0,0.0,0.0,0.0,0.0,0.0,0.0,0.0,0.0,0.0,0.0,0.0,0.0,0.0,0.0,6.5523,0.0,6.7619,6.8813,0.0,0.0,0.0,7.0743,7.3146,7.521,7.6107,7.5253,0.0,0.0,7.6466,7.6663,7.7249,7.8014,7.6009,7.492,7.6348,7.7003,7.7548,7.7941,7.8996,7.9688,7.9752,8.1271,8.2857,8.3747,8.4211,8.4482,8.5256,8.6145,8.6687,8.6455,8.5913,8.541,8.5333,8.4714,8.4095,8.4134,8.3979,8.3438,8.189,8.1452,8.1387,7.4499,7.3217,7.3303,7.2219,7.049,7.1088,7.1213,7.1003,7.1389,7.1464,7.1189,7.0629,7.0368,7.0378,6.9841,6.9714,6.9985,7.0971,7.1719,7.2355,7.3202,7.3701,7.3888,7.3888,7.3961,7.4056,7.4056,7.4104,7.4174,7.3784,7.2658,7.0855,6.9804,6.7551,6.4172,6.4998,6.6237,6.7701,6.8302,6.879,6.9181,6.9181,6.9181,6.9181,6.8415,6.7701,6.71,6.7513,6.665,6.4492,6.511,6.3909,6.0191,5.7488,0.0,0.0,0.0,0.0,0.0,0.0,0.0,0.0,0.0,6.3083,5.7901,0.0,6.3533,0.0,6.7063,7.0148,7.1401,7.244,0.0,0.0,7.4619,7.5587,7.7426,7.9201,7.9688,7.8257,7.9993,8.0575,7.8606,7.9259,7.9863,7.9754,7.7907,7.6431,7.6263,7.7817,7.9062,7.9259,8.0084,8.0906,8.1801,8.2935,8.4018,8.4869,8.4985,8.5294,8.6145,8.7035,8.719,8.5991,8.6029,8.5991,8.541,8.4637,8.4134,8.4057,8.3592,8.278,8.1736,8.1491,8.131,7.5503,7.4721,7.5168,7.4162,7.2261,7.2758,7.2708,7.2372,7.2733,7.2634,7.2224,7.2224,7.2062,7.18,7.18,7.16,7.1349,7.2134,7.2507,7.2545,7.3404,7.379,7.379,7.379,7.3839,7.3912,7.3937,7.3961,7.4009,7.4009,7.3358,7.2061,7.1635,6.9724,6.6502,6.6195,6.6537,6.7438,6.8189,6.9128,7.0233,6.9992,6.9428,6.8677,6.7513,6.6349,6.5185,6.5561,6.4998,6.3308,6.4434,6.3946,6.128,5.914,5.7676,0.0,0.0,0.0,0.0,0.0,0.0,0.0,0.0,0.0,0.0,0.0,6.7739,6.8039,7.2207,7.4948,7.5098,7.6563,7.7689,7.8102,7.8553,7.9492,8.1144,8.231,8.247,8.1188,8.2065,8.2187,8.0707,8.0872,8.1198,8.1212,8.0197,7.9253,7.8976,8.0106,8.109,8.133,8.2524,8.348,8.3928,8.4018,8.3979,8.3786,8.4908,8.5952,8.6068,8.7383,8.8041,8.6803,8.6532,8.6339,8.5449,8.4637,8.4095,8.4057,8.3708,8.2935,8.1774,8.1491,8.131,7.6084,7.5787,7.5899,7.5081,7.3733,7.3725,7.3552,7.3254,7.3127,7.3149,7.3287,7.3361,7.3078,7.2509,7.2509,7.2174,7.1637,7.2309,7.2645,7.2683,7.3504,7.3915,7.3915,7.4027,7.4064,7.4064,7.4064,7.4089,7.4113,7.4001,7.3516,7.2694,7.247,7.1237,6.9108,6.7701,6.6967,6.68,6.8243,6.982,7.1321,7.0517,6.9316,6.7851,6.6237,6.4622,6.3195,6.3195,6.2895,6.2219,6.3045,6.327,6.2595,6.1093,6.0905,0.0,6.1243,0.0,0.0,0.0,0.0,0.0,0.0,0.0,0.0,7.1832,7.3221,7.4986,7.8515,8.0243,7.9079,8.0881,8.2083,8.2083,8.197,8.2496,8.3911,8.4505,8.4505,8.3724,8.3762,8.352,8.258,8.2333,8.2459,8.2597,8.2867,8.2977,8.3003,8.3007,8.3096,8.35,8.527,8.5912,8.5421,8.4959,8.425,8.3167,8.4869,8.6494,8.6107,8.7809,8.9008,8.8079,8.7499,8.6842,8.572,8.4946,8.4443,8.4327,8.4173,8.3515,8.2161,8.1774,8.1658,7.7645,7.5861,7.6594,7.6233,7.5267,7.4662,7.3275,7.1391,7.1403,7.1775,7.2469,7.3138,7.3324,7.3201,7.3201,7.3152,7.3004,7.3152,7.3227,7.3264,7.4082,7.4454,7.4491,7.5124,7.5474,7.5578,7.5578,7.563,7.5732,7.5097,7.435,7.3553,7.2208,7.0976,6.9869,0.0,0.0,0.0,6.7588,6.8569,6.9557,6.8227,6.7347,6.7009,6.5411,0.0,6.3195,6.3721,6.3984,6.3871,6.5261,0.0,0.0,0.0,0.0,0.0,0.0,0.0,0.0,0.0,0.0,0.0,7.2695,7.2357,7.2507,7.5061,7.7689,7.998,8.1519,8.3059,8.4711,8.4673,8.4598,8.4598,8.4035,8.3772,8.4073,8.4741,8.5094,8.4993,8.5508,8.5357,8.4129,8.5071,8.5565,8.4651,8.5697,8.685,8.7213,8.5612,8.4236,8.3817,8.5516,8.6398,8.5946,8.6588,8.6919,8.688,8.7035,8.7809,8.8312,8.9279,8.9588,8.835,8.8853,8.8892,8.6842,8.6223,8.5913,8.5217,8.4598,8.3786,8.278,8.2548,8.2355,7.8536,7.7087,7.7496,7.6939,0.0,7.5378,7.4041,7.2146,7.2146,7.2369,7.2841,7.325,7.3372,7.3372,7.299,7.2804,7.2778,7.2369,7.2629,7.341,7.3844,7.4413,7.5193,7.5601,7.5814,7.5894,7.5894,7.592,7.5999,7.5589,7.518,7.477,7.395,7.2907,7.1752,7.0461,6.9327,6.8339,6.9125,6.9933,7.0765,7.0039,6.9252,6.8466,6.7192,0.0,0.0,0.0,0.0,0.0,0.0,0.0,0.0,0.0,0.0,7.099,7.217,7.3258,7.4085,7.5286,7.6713,7.8328,7.9204,7.8816,7.6751,7.9266,8.182,8.3772,8.4073,8.4711,8.6288,8.61,8.5725,8.5349,8.4936,8.4824,8.5199,8.5274,8.5462,8.5902,8.6451,8.6631,8.638,8.6927,8.7688,8.7786,8.7983,8.8703,8.9623,8.8072,8.6582,8.6793,8.6886,8.7329,8.7562,8.8045,8.8157,8.7615,8.8312,8.9047,8.9163,9.0207,9.0633,8.9472,8.9859,8.9782,8.835,8.7886,8.7615,8.6842,8.661,8.5952,8.4482,8.3399,8.2548,7.9391,7.8536,7.8676,7.7756,7.6233,7.6233,7.5304,7.3781,7.3547,0.0,0.0,7.3361,7.3372,7.3398,7.2878,7.2618,7.2555,7.2035,7.2518,7.3844,7.3993,7.4747,7.601,7.6159,7.6233,7.6233,7.6233,7.6233,7.6233,7.6084,7.601,7.601,7.5861,7.5118,7.3844,7.2481,7.1541,7.1141,7.1077,7.1549,7.247,7.2246,7.1512,7.0317,6.9346,6.8234,6.7052,6.6977,6.7155,6.76,6.8522,6.9497,7.0473,7.2072,7.4009,7.6112,7.7314,7.8853,8.0881,8.1319,8.2021,8.3263,8.4767,8.4454,8.1558,8.3251,8.5045,8.6616,8.5936,8.5782,8.6723,8.6535,8.6207,8.5762,8.5647,8.58,8.6474,8.6289,8.6354,8.6856,8.7496,8.8022,8.8676,8.8786,8.9286,9.0657,9.0184,8.9832,9.1243,9.0234,8.9478,9.0523,8.9922,8.9149,8.9472,8.9859,8.9163,8.7925,8.9279,9.0362,9.0246,9.1019,9.1522,9.1019,9.0865,9.0478,8.9665,8.9201,8.8892,8.8079,8.8312,8.8041,8.5836,8.4211,8.3012,8.0728,7.9354,8.0059,7.9428,7.7942,7.7942,7.6976,7.5378,7.403,7.3027,7.2432,7.3101,7.3372,7.3435,7.403,7.4264,7.4264,7.4858,7.523,7.549,7.626,7.6706,7.6939,7.7608,7.7942,7.7942,7.7942,7.7942,7.7895,7.7236,7.6929,7.6827,7.6159,7.5676,7.5453,7.523,7.5071,7.4911,7.174,7.0893,7.2408,7.1139,7.069,7.1064,6.9659,6.8749,6.8487,6.8525,6.9183,7.0626,7.2276,7.3821,7.532,7.7053,7.8553,7.9679,8.1782,8.3209,8.3585,8.4861,8.5597,8.5531,8.6398,8.6398,8.5276,8.5427,8.6198,8.7394,8.6495,8.6487,8.7787,8.6866,8.643,8.7201,8.6819,8.6589,8.7127,8.7901,8.8466,8.8657,8.9473,8.9936,9.0207,9.0973,9.1657,9.2126,9.2309,9.2509,9.2601,9.1958,9.2021,9.3133,9.2876,9.2102,9.1561,9.1986,9.1522,9.0168,9.0749,9.1716,9.218,9.2528,9.2721,9.2644,9.2528,9.1986,9.0671,8.9665,8.9085,8.8312,8.7847,8.6919,8.5759,8.5178,8.4443,8.1248,8.0245,8.0542,8.0282,7.9576,7.9131,7.8276,7.705,7.5899,7.4933,7.4216,7.455,7.471,7.4673,7.4635,7.4561,7.4598,7.497,7.5405,7.5861,7.6679,7.7338,7.7784,7.8155,7.8499,7.8908,7.8527,7.8499,7.8833,7.8128,7.7784,7.7709,7.6929,7.652,7.6483,7.6047,7.5787,7.575,7.4019,7.3501,7.426,7.3589,7.3366,7.3738,7.2968,7.2646,7.2696,7.2696,7.3119,7.3939,7.5595,7.6879,7.7665,8.011,8.1511,8.1548,8.3794,8.4993,8.4506,8.5629,8.6326,8.6379,8.7184,8.7563,8.7239,8.7078,8.7214,8.7687,8.6871,8.6573,8.7351,8.7084,8.7186,8.7682,8.7791,8.815,8.8653,8.8819,8.9163,8.9642,9.0597,9.1429,9.1908,9.2715,9.3709,9.4431,9.4883,9.4828,9.435,9.4403,9.4302,9.4191,9.3495,9.3108,9.2992,9.2953,9.2837,9.2412,9.2412,9.276,9.3456,9.365,9.365,9.365,9.365,9.334,9.2451,9.1793,9.0787,8.9511,8.9008,8.8234,8.7151,8.6726,8.5797,8.1768,8.0988,8.1174,8.1137,8.0914,8.0097,7.9316,7.8536,7.7905,7.7162,7.6382,7.5973,7.5787,7.575,7.5341,7.5182,7.5156,7.5368,7.5787,7.6382,7.705,7.7821,7.8499,7.8573,7.8982,7.9614,7.9131,7.9094,7.9391,7.8833,7.8462,7.8239,7.7645,7.7347,7.7375,7.6679,7.6344,7.6344,7.6344,7.627,7.6084,7.6084,7.6233,7.6604,7.6419,7.6584,7.7026,7.6877,7.6931,7.7271,7.8666,7.9477,7.9626,8.2267,8.3602,8.3228,8.5096,8.6151,8.5768,8.6368,8.6926,8.7235,8.8139,8.8736,8.871,8.871,8.85,8.804,8.7217,8.6832,8.7309,8.7406,8.7842,8.84,8.9103,8.9776,9.0351,9.0203,9.0173,9.0767,9.17,9.2794,9.3542,9.4048,9.4756,9.5863,9.6529,9.632,9.5663,9.6127,9.6004,9.5099,9.4201,9.4075,9.4423,9.4037,9.3843,9.423,9.365,9.3727,9.423,9.4501,9.4501,9.4501,9.4501,9.4191,9.3959,9.3147,9.1986,9.0555,8.9936,8.9511,8.8389,8.8118,8.7267,8.2586,8.2028,8.2586,8.2511,8.1806,8.0951,8.0134,7.9391,7.9279,7.8824,7.7895,7.6456,7.5861,7.5899,7.6557,7.6855,7.6929,7.7635,7.7979,7.8053,7.8128,7.8638,7.9354,7.9391,7.9799,8.0468,8.0431,8.0022,7.9502,7.9354,7.8982,7.8378,7.8202,7.823,7.8165,7.809,7.8053,7.8081,7.8081,7.7719,7.704,7.6976,7.7682,7.9094,7.8425,7.8759,7.9976,7.9567,7.9493,8.0302,8.1196,8.1839,8.1988,8.3667,8.4657,8.4619,8.6217,8.7449,8.8076,8.8671,8.8797,8.8684,8.969,9.0321,9.0053,9.0625,9.0394,8.9057,8.7704,8.7733,8.8922,8.8021,8.8308,9.0487,9.0973,9.1339,9.1798,9.2885,9.3268,9.2536,9.314,9.4128,9.4771,9.5054,9.5241,9.5605,9.62,9.6277,9.5699,9.6007,9.6509,9.6272,9.6251,9.5995,9.5545,9.5352,9.4926,9.4423,9.4191,9.4501,9.5042,9.5352,9.5352,9.539,9.539,9.4965,9.3766,9.2451,9.1793,9.1174,9.0362,8.9356,8.9124,8.9124,8.8312,8.2994,8.2734,8.3032,8.2994,8.2586,8.1806,8.0988,8.0208,7.9688,7.9019,7.8276,7.7533,7.7273,7.7273,7.7672,7.8053,7.8573,7.9354,7.9725,7.9762,8.0245,8.0394,8.0208,8.0208,8.0394,8.0654,8.0691,8.0282,7.9539,7.9019,7.8611,7.8388,7.8759,7.9019,7.8982,7.8982,7.8982,7.8982,7.8536,7.8155,7.7858,7.7793,7.8313,7.9316,7.9168,7.9502,8.0542,8.0357,8.0357,8.0728,8.1595,8.207,8.2107,8.4071,8.5068,8.4695,8.6073,8.7481,8.8616,8.8897,8.9213,8.9653,9.0194,9.0609,9.0779,9.1082,9.0967,9.0312,8.9431,8.903,8.9167,8.8991,8.956,9.1106,9.1784,9.2353,9.2945,9.3498,9.3641,9.341,9.4065,9.472,9.5105,9.5619,9.5889,9.5931,9.6257,9.6215,9.6022,9.6253,9.6403,9.6492,9.6558,9.6545,9.6205,9.5702,9.5524,9.5569,9.5274,9.5274,9.5971,9.628,9.6241,9.6241,9.6203,9.6048,9.5584,9.4539,9.3688,9.2605,9.1445,9.0555,9.0052,9.0323,9.0168,8.318,8.318,8.318,8.318,8.3143,8.2586,8.1843,8.1025,8.0431,7.9725,7.8982,7.8945,7.8945,7.8908,7.8722,7.9056,7.9837,8.0431,8.0691,8.0765,8.136,8.1397,8.1063,8.1063,8.1174,8.1323,8.1397,8.0988,8.0171,7.9354,7.8945,7.9056,7.9539,7.9799,7.9837,7.9837,7.9837,7.9799,7.9242,7.8945,7.8945,7.8945,7.9242,7.9762,7.9799,8.032,8.1323,8.136,8.1397,8.1397,8.1991,8.2437,8.2697,8.4518,8.5521,8.5521,8.6486,8.7592,8.8558,8.8859,8.9352,9.0105,9.0423,9.0781,9.11,9.121,9.121,9.1133,9.0983,9.0455,8.9777,9.0086,9.0879,9.1814,9.2738,9.3512,9.3998,9.421,9.4364,9.4172,9.4844,9.5365,9.546,9.5937,9.6284,9.6286,9.6322,9.6358,9.6397,9.6358,9.6376,9.6446,9.6446,9.6514,9.6558,9.5934,9.5888,9.619,9.595,9.5694,9.656,9.6729,9.6783,9.6551,9.6744,9.6358,9.5429,9.5081,9.5004,9.3998,9.2876,9.1754,9.0942,9.1367,9.1561,8.318,8.318,8.318,8.318,8.318,8.3143,8.266,8.1843,8.1843,8.136,8.0542,8.0468,8.058,8.0505,7.9799,7.9874,8.058,8.0728,8.0802,8.084,8.0877,8.1211,8.1946,8.1917,8.2288,8.2734,8.2809,8.2474,8.1731,8.0951,8.058,8.0542,8.0617,8.0654,8.0654,8.0654,8.0617,8.0617,8.0505,8.0505,8.0505,8.0505,8.0505,8.0654,8.0654,8.136,8.2771,8.3032,8.3032,8.3032,8.3106,8.3477,8.422,8.5112,8.6301,8.7638,8.7935,8.8078,8.8368,8.9173,8.9676,8.983,9.0719,9.1175,9.1192,9.121,9.121,9.121,9.1766,9.1784,9.1091,9.1052,9.1822,9.3228,9.4267,9.469,9.4903,9.5518,9.5711,9.5249,9.5634,9.6057,9.6172,9.6249,9.6306,9.6288,9.6288,9.6306,9.6306,9.6306,9.6306,9.6306,9.6325,9.6361,9.6403,9.6029,9.5875,9.6117,9.6065,9.5695,9.6267,9.6761,9.6753,9.6768,9.6753,9.6212,9.5042,9.4539,9.4564,9.4099,9.365,9.2721,9.187,9.1716,9.1909,8.318,8.318,8.318,8.318,8.3254,8.3737,8.3217,8.2095,8.2549,8.1954,8.084,8.0691,8.0988,8.1508,8.1211,8.1248,8.1508,8.1508,8.1806,8.2251,8.2288,8.2437,8.2697,8.2734,8.2586,8.2511,8.2957,8.2771,8.1954,8.11,8.0691,8.0802,8.1285,8.1508,8.1508,8.1508,8.1508,8.1471,8.0988,8.0691,8.0728,8.0691,8.0951,8.1471,8.1545,8.2028,8.3143,8.318,8.318,8.318,8.3663,8.4072,8.448,8.5632,8.7118,8.8641,8.8864,8.9237,9.0063,9.0793,9.1112,9.0965,9.1586,9.1787,9.1325,9.121,9.121,9.1287,9.1441,9.1479,9.1441,9.171,9.2479,9.348,9.4018,9.4711,9.5595,9.6134,9.6172,9.5942,9.6134,9.6288,9.6288,9.6288,9.6288,9.6288,9.6288,9.6326,9.6288,9.6288,9.6326,9.6288,9.6288,9.6306,9.6361,9.6257,9.6116,9.609,9.6062,9.5946,9.6288,9.6149,9.605,9.6568,9.6645,9.6506,9.554,9.5331,9.5138,9.4265,9.3817,9.3354,9.2799,9.2388,9.2488,8.318,8.318,8.318,8.318,8.3254,8.3775,8.3403,8.2474,8.2957,8.2549,8.162,8.1508,8.1954,8.2623,8.2511,8.2697,8.3032,8.266,8.2697,8.3143,8.318,8.318,8.318,8.318,8.292,8.2511,8.2883,8.2883,8.24,8.1806,8.1508,8.1583,8.2103,8.2363,8.2363,8.24,8.2363,8.2251,8.1806,8.1508,8.1508,8.1508,8.1768,8.2288,8.2392,8.2623,8.318,8.318,8.3329,8.3589,8.4109,8.4629,8.5223,8.6486,8.7824,8.9087,8.9273,8.9796,9.0916,9.166,9.1985,9.1842,9.2429,9.2595,9.2056,9.2018,9.1902,9.1748,9.1902,9.1941,9.1864,9.2402,9.3095,9.3672,9.421,9.498,9.6095,9.6288,9.6288,9.6249,9.6249,9.6288,9.6326,9.6557,9.6673,9.6711,9.6903,9.7057,9.6749,9.6673,9.6557,9.6365,9.6288,9.6288,9.6306,9.6245,9.6204,9.6163,9.6116,9.6095,9.6034,9.5764,9.5781,9.6283,9.6476,9.6492,9.6398,9.6172,9.5422,9.4403,9.3923,9.3525,9.3156,9.2938,9.2766,8.318,8.318,8.318,8.318,8.3217,8.3366,8.3254,8.3143,8.3254,8.318,8.2883,8.3032,8.3366,8.3997,8.3366,8.3923,8.4703,8.3663,8.318,8.3329,8.3292,8.3254,8.318,8.318,8.318,8.3069,8.318,8.318,8.3069,8.2957,8.2957,8.3069,8.3032,8.3032,8.3143,8.3069,8.3106,8.3069,8.2957,8.2994,8.318,8.2994,8.2994,8.3106,8.3143,8.3217,8.3254,8.3217,8.3552,8.4295,8.4443,8.5186,8.6561,8.7527,8.8418,8.9198,8.9347,8.9788,9.0621,9.1705,9.2292,9.2299,9.3072,9.3502,9.3249,9.3364,9.3095,9.2441,9.2864,9.3172,9.2556,9.3056,9.3633,9.3864,9.5018,9.5903,9.6211,9.6288,9.6288,9.6288,9.6288,9.6288,9.6423,9.6674,9.7001,9.727,9.775,9.8019,9.7481,9.7366,9.7097,9.6462,9.629,9.6328,9.6328,9.6288,9.6249,9.6191,9.6109,9.6086,9.6142,9.5987,9.5945,9.6292,9.6171,9.6171,9.602,9.5733,9.4847,9.3999,9.3786,9.3486,9.2967,9.2574,9.252,8.318,8.318,8.318,8.318,8.3254,8.3775,8.3737,8.3292,8.3737,8.37,8.3254,8.318,8.3663,8.4072,8.3552,8.3775,8.4629,8.37,8.3477,8.3923,8.3997,8.3663,8.3254,8.318,8.318,8.318,8.318,8.318,8.318,8.318,8.318,8.318,8.318,8.318,8.318,8.318,8.318,8.318,8.318,8.318,8.318,8.318,8.318,8.3254,8.37,8.4035,8.3997,8.3477,8.3849,8.5149,8.5223,8.5966,8.7378,8.7935,8.8716,8.9942,9.0127,9.0796,9.2045,9.2803,9.3148,9.3125,9.3632,9.3561,9.3097,9.348,9.3133,9.2018,9.2364,9.2518,9.2056,9.2903,9.3864,9.4518,9.5057,9.5711,9.6135,9.6269,9.6288,9.6288,9.6288,9.6136,9.5821,9.6044,9.6465,9.6963,9.7346,9.7499,9.7729,9.7669,9.7133,9.6023,9.6197,9.611,9.5634,9.5675,9.602,9.5886,9.5788,9.5899,9.5994,9.6148,9.6127,9.6073,9.5983,9.5846,9.5688,9.5151,9.4296,9.3838,9.3683,9.3165,9.2427,9.2333,9.2531,8.3626,8.3626,8.3329,8.318,8.3254,8.3737,8.3663,8.3292,8.37,8.3626,8.3254,8.318,8.3663,8.4109,8.3552,8.4035,8.5038,8.4183,8.4072,8.4592,8.4109,8.3663,8.3217,8.318,8.318,8.318,8.318,8.318,8.318,8.318,8.318,8.318,8.318,8.318,8.318,8.318,8.318,8.318,8.318,8.318,8.318,8.318,8.3329,8.3663,8.4109,8.4666,8.5149,8.4518,8.4666,8.5855,8.6338,8.7081,8.801,8.8121,8.8678,8.9756,9.0387,9.1093,9.2384,9.3244,9.3832,9.387,9.431,9.4492,9.4061,9.448,9.3903,9.2595,9.2672,9.2595,9.2095,9.2864,9.4018,9.4921,9.5326,9.5559,9.5963,9.5981,9.5821,9.572,9.58,9.5619,9.5295,9.582,9.6162,9.6772,9.7382,9.742,9.7763,9.7572,9.652,9.5676,9.5592,9.5244,9.4641,9.5018,9.5675,9.5579,9.5329,9.55,9.567,9.594,9.6017,9.604,9.5962,9.5682,9.5478,9.4755,9.4042,9.3815,9.3449,9.2888,9.2354,9.2928,9.3087,8.4406,8.4295,8.3589,8.3254,8.318,8.3254,8.3254,8.318,8.3217,8.3254,8.318,8.318,8.3626,8.4109,8.3552,8.4332,8.6041,8.4815,8.4518,8.4673,8.4005,8.3188,8.318,8.318,8.318,8.318,8.318,8.318,8.318,8.318,8.3217,8.3329,8.3366,8.3366,8.3514,8.3366,8.3366,8.3366,8.3254,8.318,8.318,8.318,8.3552,8.4295,8.4518,8.5186,8.6226,8.6041,8.6041,8.6784,8.7452,8.7898,8.8084,8.8121,8.8641,8.9533,9.0164,9.1019,9.1891,9.3015,9.3802,9.4156,9.4652,9.544,9.5288,9.5328,9.4829,9.3198,9.3333,9.314,9.2487,9.2929,9.3831,9.481,9.5464,9.5807,9.5495,9.5446,9.5379,9.5018,9.5063,9.5295,9.4958,9.5991,9.6711,9.7279,9.8215,9.8075,9.7495,9.6825,9.5828,9.5211,9.4703,9.4582,9.4058,9.4564,9.5192,9.5173,9.5098,9.5463,9.5557,9.5788,9.6057,9.6059,9.57,9.5468,9.5048,9.4367,9.3726,9.3235,9.2855,9.2481,9.2593,9.299,9.3264,8.4406,8.4369,8.4183,8.3737,8.3217,8.318,8.318,8.318,8.318,8.318,8.318,8.318,8.3626,8.4257,8.3589,8.422,8.5186,8.4295,8.3901,8.4329,8.3514,8.3091,8.318,8.3217,8.3217,8.3217,8.3329,8.318,8.318,8.3292,8.3514,8.4072,8.4072,8.4369,8.4815,8.4332,8.4072,8.396,8.344,8.3217,8.3254,8.3217,8.3589,8.4332,8.4963,8.5781,8.6784,8.723,8.7155,8.6858,8.7638,8.8084,8.8158,8.8604,8.9236,9.0016,9.087,9.1725,9.2463,9.2997,9.322,9.3182,9.3941,9.3917,9.3265,9.4378,9.3806,9.2474,9.2565,9.2573,9.1164,9.1758,9.2863,9.3777,9.4927,9.5533,9.5394,9.5558,9.5414,9.4857,9.5768,9.5673,9.547,9.5685,9.6626,9.722,9.771,9.771,9.6844,9.658,9.5827,9.4142,9.3454,9.3623,9.3783,9.4258,9.462,9.4679,9.4998,9.5655,9.5692,9.5769,9.6038,9.6251,9.5288,9.4806,9.4447,9.3934,9.3328,9.281,9.2764,9.2653,9.2356,9.2481,9.296,8.4592,8.4815,8.4183,8.3626,8.3217,8.318,8.318,8.318,8.318,8.318,8.318,8.318,8.344,8.3812,8.3344,8.3759,8.4724,8.3928,8.3793,8.3849,8.322,8.2941,8.3098,8.3351,8.3611,8.3648,8.3945,8.3945,8.3759,8.3968,8.4295,8.4443,8.474,8.5149,8.5446,8.5186,8.4889,8.474,8.4146,8.3812,8.4146,8.3849,8.4406,8.5186,8.5929,8.6486,8.7304,8.7824,8.7824,8.7527,8.7824,8.8084,8.8158,8.8864,8.9496,9.0016,9.1056,9.1948,9.2393,9.2728,9.2865,9.2825,9.3347,9.336,9.3137,9.3846,9.3656,9.2506,9.2607,9.1812,9.0851,9.1344,9.2595,9.3783,9.4377,9.4756,9.4731,9.4799,9.4763,9.4688,9.483,9.5366,9.5034,9.5351,9.5955,9.681,9.7483,9.6772,9.58,9.595,9.5271,9.3132,9.2054,9.2185,9.2323,9.2746,9.3393,9.3578,9.4458,9.5212,9.5752,9.5713,9.5847,9.5818,9.4931,9.4253,9.4076,9.3792,9.322,9.2896,9.2876,9.2839,9.2579,9.2393,9.2802,8.4859,8.5453,8.3893,8.3262,8.3269,8.3188,8.3121,8.3121,8.3091,8.3121,8.3121,8.3158,8.3165,8.3121,8.3008,8.3318,8.4096,8.375,8.3798,8.3625,8.3218,8.3016,8.3405,8.3762,8.3948,8.4096,8.491,8.4799,8.4534,8.5065,8.5163,8.5051,8.5453,8.5781,8.6041,8.5855,8.5706,8.5564,8.4866,8.4754,8.5051,8.4792,8.5193,8.6301,8.6821,8.723,8.7787,8.8084,8.8047,8.8084,8.8084,8.8158,8.8307,8.9013,8.9533,8.9979,9.1167,9.1985,9.1948,9.2575,9.262,9.2444,9.3012,9.3313,9.2857,9.3289,9.344,9.2205,9.2239,9.1541,9.105,9.1506,9.2398,9.3461,9.3746,9.3769,9.3747,9.3784,9.3917,9.4086,9.337,9.4024,9.4482,9.4957,9.5028,9.6187,9.6605,9.593,9.4962,9.4547,9.3211,9.1019,9.054,9.0677,9.083,9.1075,9.1774,9.2364,9.3583,9.4545,9.5546,9.57,9.5691,9.5479,9.5212,9.4778,9.4224,9.3768,9.3151,9.2951,9.2951,9.2951,9.2914,9.2802,9.2988,8.4707,8.5374,8.4336,8.3837,8.3664,8.32,8.2904,8.2819,8.2819,8.2819,8.2819,8.2788,8.2819,8.2819,8.2825,8.3201,8.3719,8.3324,8.3187,8.3613,8.3539,8.3797,8.412,8.4215,8.3983,8.4205,8.4828,8.5049,8.5012,8.5261,8.5583,8.6047,8.619,8.6771,8.731,8.6722,8.6499,8.6295,8.5565,8.5337,8.5485,8.5411,8.5732,8.679,8.7384,8.7824,8.801,8.8084,8.8084,8.8084,8.8195,8.853,8.9013,8.9719,9.0387,9.1093,9.1985,9.2653,9.2616,9.2245,9.1683,9.1348,9.1821,9.1603,9.0391,9.1738,9.1633,9.0676,9.0527,9.0797,9.0715,9.0744,9.1507,9.2367,9.2922,9.3205,9.3285,9.3695,9.3779,9.3718,9.457,9.5384,9.4693,9.5514,9.5663,9.5774,9.5477,9.5031,9.4214,9.3322,9.1688,8.9793,8.9479,8.9726,8.9997,9.0264,9.086,9.1798,9.2922,9.3597,9.4617,9.6019,9.6142,9.6095,9.5969,9.5275,9.4212,9.365,9.2951,9.2988,9.2988,9.2988,9.2988,9.2988,9.2988,8.3966,8.4595,8.3781,8.3417,8.3318,8.2973,8.2788,8.2696,8.2696,8.2696,8.2696,8.2696,8.2696,8.2665,8.2602,8.2829,8.2982,8.2734,8.3296,8.415,8.4044,8.4154,8.5073,8.4989,8.4833,8.5042,8.5779,8.5927,8.5775,8.5951,8.6343,8.6481,8.6777,8.7179,8.772,8.7344,8.7132,8.6883,8.6259,8.5963,8.6296,8.6,8.6217,8.6979,8.7566,8.7826,8.7794,8.8297,8.8414,8.8525,8.888,8.9198,8.9384,9.0053,9.087,9.1688,9.2505,9.2951,9.2802,9.2208,9.1539,9.1093,9.1502,9.1167,9.087,9.1613,9.1613,9.0759,9.0531,9.0531,9.0536,9.0977,9.1316,9.1688,9.2468,9.2802,9.2653,9.3136,9.3694,9.3619,9.4247,9.473,9.5031,9.544,9.5551,9.5328,9.5328,9.4845,9.3136,9.2171,9.1056,8.9644,8.9013,8.889,8.9212,8.9645,9.0226,9.1282,9.2634,9.296,9.34,9.5053,9.6705,9.6097,9.5302,9.4704,9.3786,9.3272,9.2988,9.2988,9.2988,9.2988,9.2988,9.2988,9.2988,8.3145,8.3809,8.2997,8.2707,8.275,8.2707,8.2633,8.2602,8.2602,8.2571,8.2602,8.2602,8.2571,8.2571,8.2439,8.2375,8.238,8.2431,8.3247,8.4606,8.3908,8.4238,8.512,8.5521,8.5701,8.6167,8.6682,8.6719,8.6568,8.6926,8.6882,8.6689,8.7095,8.7423,8.746,8.7497,8.7386,8.7243,8.68,8.6689,8.7132,8.6763,8.6869,8.7304,8.7489,8.7563,8.7743,8.8294,8.8881,8.8786,8.9827,9.0031,8.9989,9.0244,9.1024,9.1808,9.2736,9.307,9.2885,9.2328,9.1845,9.1697,9.159,9.1367,9.133,9.1734,9.1734,9.1247,9.0689,9.0573,9.0722,9.1167,9.165,9.2022,9.2616,9.2579,9.2245,9.2579,9.3248,9.3694,9.3917,9.4214,9.44,9.466,9.4771,9.4845,9.4845,9.4325,9.2579,9.1205,9.0164,8.9459,8.8827,8.8455,8.8704,8.9218,8.981,9.0371,9.1834,9.2053,9.2205,9.3385,9.4658,9.4783,9.4167,9.3849,9.3663,9.3277,9.3099,9.3025,9.2988,9.2988,9.2988,9.2988,9.2988,8.2918,8.3581,8.2771,8.278,8.3129,8.267,8.2412,8.2284,8.2316,8.2284,8.2284,8.2284,8.2316,8.2284,8.2251,8.2219,8.2251,8.2292,8.281,8.3875,8.3544,8.4022,8.4829,8.5563,8.5817,8.6038,8.666,8.6953,8.688,8.699,8.7053,8.7117,8.7228,8.7368,8.7431,8.7497,8.7398,8.7335,8.708,8.7188,8.7191,8.7188,8.711,8.7431,8.7431,8.7464,8.7686,8.831,8.8823,8.8864,8.9633,9.0332,9.0701,9.1131,9.168,9.2347,9.3051,9.3236,9.2754,9.2532,9.202,9.1549,9.1327,9.0627,9.0291,9.0798,9.1235,9.0522,9.0434,9.0796,9.1428,9.1688,9.2059,9.2542,9.2802,9.2876,9.2728,9.2839,9.2951,9.3136,9.3471,9.3768,9.3879,9.3917,9.4028,9.3768,9.3322,9.2914,9.1725,9.0536,8.9607,8.905,8.8641,8.8344,8.8227,8.8858,8.9392,8.9423,9.0286,9.0727,9.0991,9.1666,9.2279,9.2859,9.3618,9.3981,9.3722,9.3165,9.3099,9.2951,9.2951,9.2988,9.2988,9.2988,9.2988,8.2537,8.2831,8.2463,8.2472,8.2696,8.2467,8.2284,8.2186,8.2186,8.2186,8.2186,8.2186,8.2186,8.2186,8.2186,8.2186,8.2186,8.2186,8.2663,8.3287,8.3471,8.3838,8.4572,8.538,8.571,8.6004,8.6591,8.6995,8.7031,8.6995,8.7066,8.7098,8.7132,8.7166,8.7234,8.7234,8.72,8.7169,8.7169,8.7132,8.7132,8.7132,8.72,8.7234,8.7231,8.7268,8.7489,8.8659,8.9177,8.9401,9.046,9.1163,9.1497,9.1715,9.2038,9.2513,9.2954,9.3028,9.251,9.2251,9.1811,9.1853,9.1486,9.1154,9.0932,9.1441,9.1324,9.0757,9.0625,9.1242,9.165,9.2059,9.2319,9.2356,9.2691,9.2765,9.2579,9.2802,9.2765,9.2691,9.3359,9.3619,9.3322,9.3359,9.3322,9.2802,9.1985,9.139,9.0796,9.0053,8.9236,8.8864,8.853,8.8381,8.8195,8.8604,8.8938,8.8938,8.9161,8.957,9.0053,9.0791,9.1259,9.1677,9.2517,9.3252,9.3019,9.2282,9.2542,9.2876,9.2951,9.2988,9.2988,9.2988,9.2988,8.2186,8.2186,8.2186,8.2186,8.2186,8.2186,8.2186,8.215,8.2003,8.2039,8.215,8.1856,8.1819,8.2113,8.2186,8.2186,8.2186,8.2186,8.2553,8.2957,8.3104,8.3544,8.4352,8.4939,8.538,8.5894,8.6297,8.6848,8.6995,8.7031,8.7031,8.7031,8.7031,8.7031,8.7031,8.7066,8.7031,8.7031,8.7031,8.7031,8.7031,8.7031,8.7031,8.7031,8.7031,8.7031,8.7211,8.8417,8.9226,8.9742,9.0804,9.1906,9.1839,9.1948,9.2091,9.227,9.2451,9.2487,9.2264,9.2227,9.2081,9.205,9.1643,9.1643,9.1641,9.1604,9.1819,9.1727,9.1754,9.1849,9.2035,9.2513,9.2546,9.2393,9.2616,9.2839,9.2542,9.2542,9.2691,9.2914,9.3508,9.3211,9.2542,9.2579,9.2542,9.1799,9.1019,9.0907,9.0313,8.983,8.9161,8.879,8.8493,8.8381,8.8344,8.8455,8.8567,8.8455,8.8753,8.9124,8.957,9.009,9.0371,9.0546,9.0812,9.1365,9.1311,9.1725,9.2282,9.2691,9.2839,9.2951,9.2988,9.2988,9.2988,8.2186,8.2186,8.2186,8.2186,8.2186,8.2186,8.2186,8.2113,8.1525,8.1562,8.2003,8.0938,8.1085,8.1929,8.2186,8.2186,8.2186,8.2186,8.2296,8.248,8.248,8.2884,8.3508,8.3581,8.4829,8.5637,8.6004,8.6371,8.6848,8.7031,8.7031,8.7031,8.7031,8.7031,8.7031,8.7031,8.7031,8.7031,8.7031,8.7031,8.7031,8.7031,8.7031,8.7031,8.7031,8.7031,8.7142,8.8056,8.8718,8.9454,9.0261,9.1105,9.162,9.1803,9.184,9.2133,9.2572,9.2937,9.2348,9.2422,9.2386,9.2058,9.1764,9.1398,9.1323,9.1355,9.1643,9.2299,9.2294,9.2323,9.2387,9.2606,9.271,9.2773,9.2802,9.2951,9.2802,9.2616,9.2728,9.2653,9.3099,9.2171,9.1316,9.1539,9.165,9.0833,9.0202,9.0164,9.009,8.9756,8.931,8.8976,8.8753,8.8604,8.827,8.8418,8.8344,8.8121,8.8381,8.8716,8.9161,8.9496,8.9198,8.9379,8.9681,9.009,9.0499,9.113,9.1985,9.2468,9.2616,9.2802,9.2988,9.2988,9.2988,8.2186,8.2186,8.2186,8.2186,8.2186,8.2186,8.2186,8.2113,8.1856,8.1599,8.1562,8.1379,8.1599,8.2039,8.2186,8.2186,8.2186,8.2186,8.2186,8.2186,8.226,8.2663,8.3398,8.3911,8.4792,8.5563,8.6261,8.6664,8.6958,8.6995,8.7031,8.7031,8.7031,8.7031,8.7031,8.7031,8.7031,8.7031,8.7031,8.7031,8.7031,8.7031,8.7031,8.7031,8.7031,8.7031,8.7178,8.7766,8.8573,8.9307,8.9821,9.0555,9.1179,9.1069,9.0592,9.1143,9.1472,9.1765,9.1912,9.2316,9.217,9.1987,9.1767,9.162,9.1362,9.1469,9.165,9.2161,9.2338,9.2444,9.2547,9.2616,9.2717,9.2822,9.2888,9.2955,9.2955,9.2951,9.2876,9.2765,9.2579,9.1836,9.1242,9.1353,9.1539,9.0982,9.0462,9.035,9.0313,9.0239,8.9756,8.9273,8.9087,8.8938,8.8455,8.827,8.827,8.8121,8.8121,8.8455,8.879,8.8901,8.8901,8.9087,8.9607,8.9904,8.9979,9.035,9.1019,9.1688,9.2356,9.2468,9.2616,9.2988,9.3021,8.2186,8.2186,8.2186,8.2186,8.2186,8.2186,8.2076,8.1856,8.1599,8.1232,8.1048,8.1415,8.1709,8.1782,8.1929,8.2186,8.2186,8.2186,8.2186,8.2186,8.2296,8.27,8.3214,8.3948,8.4499,8.5747,8.5527,8.6077,8.6518,8.6701,8.6738,8.6995,8.7031,8.7031,8.7031,8.7031,8.7031,8.7031,8.7031,8.7031,8.7031,8.7031,8.7031,8.7031,8.7031,8.7031,8.7105,8.7472,8.8243,8.8904,8.9087,8.9711,9.0592,9.0188,8.9858,9.0298,9.0665,9.1032,9.1399,9.1693,9.1767,9.1803,9.1803,9.1767,9.1803,9.1948,9.202,9.202,9.2127,9.2233,9.2338,9.2479,9.2547,9.2616,9.2717,9.2785,9.2818,9.2777,9.2777,9.2777,9.2625,9.2431,9.191,9.1688,9.1465,9.1056,9.0759,9.0573,9.0573,9.0647,9.009,8.9533,8.8976,8.879,8.8455,8.8121,8.8121,8.8084,8.8084,8.8195,8.8493,8.8938,8.9198,8.9459,8.957,8.9681,8.9756,8.9867,8.9979,9.0573,9.1205,9.1836,9.2245,9.2691,9.3054,8.2186,8.2186,8.2186,8.2186,8.2186,8.2186,8.1782,8.1269,8.0461,8.0204,8.0241,8.0645,8.0718,8.0608,8.1599,8.2186,8.2186,8.2186,8.2186,8.2186,8.226,8.27,8.3104,8.3324,8.3691,8.5233,8.5086,8.5086,8.5563,8.593,8.6334,8.6885,8.6738,8.6921,8.6995,8.6921,8.6995,8.7031,8.7031,8.7031,8.7031,8.7031,8.7031,8.7031,8.7031,8.7031,8.7031,8.7178,8.7619,8.8353,8.8316,8.883,8.9674,8.9307,8.9197,8.9491,9.0115,9.0445,9.0739,9.14,9.1767,9.1803,9.1803,9.1803,9.1803,9.1803,9.184,9.1876,9.1948,9.1984,9.2056,9.2162,9.2268,9.2336,9.2402,9.2434,9.2468,9.2498,9.2498,9.2677,9.2636,9.2447,9.2336,9.2043,9.1804,9.1432,9.1465,9.1279,9.1093,9.1019,9.035,8.9681,8.8864,8.8455,8.8233,8.8084,8.8084,8.8084,8.8084,8.8084,8.8195,8.8678,8.9087,8.9198,8.9236,8.9384,8.9533,8.9496,8.9496,8.9607,9.0127,9.1205,9.2096,9.2691,9.2942,8.2186,8.2186,8.2186,8.2186,8.2186,8.2186,8.2039,8.1746,8.1415,8.0975,8.0498,8.0351,8.0351,8.0791,8.1525,8.2186,8.2186,8.2186,8.2186,8.2186,8.2296,8.27,8.2994,8.3361,8.3948,8.5123,8.4646,8.4609,8.5673,8.5306,8.5196,8.5563,8.593,8.6224,8.6334,8.6701,8.6958,8.7031,8.7031,8.7031,8.7031,8.7031,8.7031,8.7031,8.7031,8.7031,8.7031,8.7031,8.7509,8.7839,8.7692,8.828,8.8831,8.8463,8.8353,8.872,8.9491,8.9821,9.0225,9.1033,9.1767,9.1803,9.1803,9.1803,9.1803,9.1803,9.1803,9.1803,9.1803,9.1876,9.1912,9.202,9.2162,9.2122,9.2047,9.2008,9.204,9.2001,9.2106,9.2215,9.2399,9.2471,9.2397,9.2286,9.2084,9.1915,9.1952,9.1948,9.1688,9.1465,9.0796,9.0202,8.9459,8.8678,8.8418,8.827,8.8121,8.8084,8.8084,8.8084,8.8084,8.8158,8.8493,8.8678,8.8864,8.9013,8.905,8.905,8.9161,8.9459,9.0127,9.1056,9.1873,9.2542,9.29,8.2186,8.2186,8.2186,8.2186,8.2186,8.2186,8.2039,8.1856,8.1782,8.1379,8.0645,8.0241,8.0424,8.1122,8.1819,8.2186,8.2186,8.2186,8.2186,8.2186,8.226,8.2553,8.2884,8.3177,8.3508,8.4646,8.4389,8.4205,8.4866,8.4462,8.4132,8.4168,8.4646,8.5049,8.5637,8.6224,8.6738,8.6958,8.7031,8.7031,8.7031,8.7031,8.7031,8.7031,8.7031,8.7031,8.7031,8.7031,8.7252,8.7472,8.7509,8.7655,8.7876,8.7876,8.7582,8.8096,8.8683,8.9124,8.9748,9.0776,9.173,9.1803,9.1803,9.1803,9.1803,9.1803,9.1803,9.1803,9.1803,9.1803,9.1803,9.1912,9.1984,9.1946,9.1356,9.1245,9.1389,9.1424,9.1604,9.1712,9.2042,9.2444,9.2442,9.2365,9.2357,9.208,9.1915,9.1948,9.191,9.1688,9.1428,9.0833,9.0239,8.9459,8.8753,8.8716,8.8567,8.8084,8.8084,8.8084,8.8084,8.8121,8.8195,8.8418,8.8567,8.8641,8.8641,8.8641,8.8976,8.9421,9.0016,9.0536,9.1242,9.1906,9.2705,8.2186,8.2186,8.2186,8.2186,8.2186,8.2186,8.1819,8.1305,8.1158,8.0718,8.0204,8.0571,8.0865,8.1195,8.1819,8.215,8.2186,8.2186,8.2186,8.2186,8.2186,8.226,8.2296,8.2517,8.2957,8.3104,8.3067,8.3104,8.3691,8.3508,8.3067,8.2847,8.3361,8.4058,8.4646,8.5453,8.6224,8.6885,8.6995,8.7031,8.7031,8.7031,8.7031,8.7031,8.7031,8.7031,8.7031,8.7031,8.7142,8.7178,8.7178,8.7215,8.7252,8.7252,8.7362,8.7986,8.8206,8.8683,8.9382,9.0922,9.1546,9.1767,9.1803,9.1803,9.1803,9.1803,9.1803,9.1803,9.1803,9.1803,9.1803,9.1803,9.184,9.1619,9.1067,9.081,9.0991,9.0732,9.0841,9.1465,9.2012,9.2409,9.2409,9.2373,9.2476,9.2316,9.1998,9.1915,9.1994,9.1924,9.1742,9.1325,9.0769,8.9984,8.9315,8.9236,8.8976,8.8418,8.8084,8.8084,8.8233,8.8381,8.8418,8.8344,8.8418,8.8567,8.8418,8.8233,8.8864,8.9421,8.9347,8.9793,9.0499,9.1381,9.229,8.2186,8.2186,8.2186,8.2186,8.2186,8.2186,8.2039,8.1746,8.1269,8.0828,8.0681,8.0938,8.1012,8.1269,8.1746,8.215,8.2186,8.2186,8.2186,8.2186,8.2186,8.2186,8.2186,8.226,8.2627,8.2994,8.27,8.2627,8.3471,8.2994,8.259,8.237,8.259,8.3361,8.4462,8.538,8.6187,8.6885,8.7031,8.7031,8.7031,8.7031,8.7031,8.7031,8.7031,8.7031,8.7031,8.7031,8.7031,8.7031,8.7031,8.7031,8.7031,8.7031,8.7178,8.7582,8.7802,8.8573,8.9381,9.0445,9.1216,9.151,9.1767,9.1767,9.1803,9.1803,9.1803,9.1803,9.1803,9.1803,9.1803,9.1803,9.1766,9.1473,9.1105,9.0922,9.0811,9.0223,9.0076,9.1214,9.1984,9.2056,9.2056,9.2162,9.2268,9.2303,9.2032,9.2023,9.2097,9.2172,9.2064,9.1643,9.1116,9.0402,8.984,8.94,8.8875,8.8276,8.8084,8.8084,8.827,8.8493,8.8381,8.8195,8.8381,8.853,8.8567,8.8678,8.9087,8.9384,8.9384,8.983,9.0796,9.1561,9.2205,8.1748,8.1745,8.1795,8.1966,8.215,8.2186,8.2186,8.2039,8.1379,8.1122,8.1269,8.0901,8.0975,8.1342,8.1636,8.2039,8.215,8.2186,8.2186,8.2186,8.2186,8.2186,8.2186,8.2223,8.2443,8.2737,8.2627,8.2517,8.2884,8.2443,8.2223,8.2186,8.2223,8.2994,8.4022,8.4939,8.571,8.6371,8.6701,8.7031,8.7031,8.7031,8.7031,8.7031,8.7031,8.7031,8.7031,8.7031,8.7031,8.7031,8.7031,8.7031,8.7031,8.7031,8.7142,8.7509,8.7876,8.85,8.9014,8.9711,9.0372,9.0739,9.1363,9.1767,9.1803,9.1803,9.1803,9.1803,9.1803,9.1803,9.1803,9.1803,9.1693,9.1436,9.1106,9.0922,9.0739,9.0152,9.0078,9.1179,9.1767,9.1767,9.1803,9.1876,9.202,9.2056,9.2055,9.2013,9.2042,9.2079,9.1892,9.133,9.1061,9.0391,8.972,8.9164,8.8636,8.8101,8.799,8.799,8.8121,8.827,8.8158,8.8121,8.827,8.8493,8.8938,8.9236,8.9459,8.9533,8.9533,9.0202,9.113,9.1673,9.2173,8.0875,8.0873,8.0944,8.1428,8.2047,8.2154,8.215,8.2076,8.1342,8.1379,8.1929,8.0424,8.0608,8.1636,8.1342,8.1452,8.2003,8.2113,8.2186,8.2186,8.2186,8.2186,8.2186,8.2186,8.2296,8.226,8.2223,8.226,8.226,8.2223,8.2186,8.2186,8.2186,8.27,8.3434,8.4168,8.5049,8.5894,8.6444,8.6775,8.6958,8.7031,8.7031,8.7031,8.7031,8.7031,8.7031,8.7031,8.7031,8.7031,8.7031,8.7031,8.7031,8.7031,8.7509,8.7876,8.8059,8.8133,8.8463,8.916,8.9491,9.0041,9.1106,9.1546,9.1693,9.1657,9.1803,9.1803,9.1803,9.1803,9.1803,9.1803,9.1767,9.1436,9.1033,9.0886,9.0812,9.0629,9.0592,9.1069,9.1583,9.173,9.1767,9.184,9.1803,9.1545,9.1397,9.099,9.1096,9.1682,9.1348,9.0566,9.0304,9.0193,8.9633,8.8996,8.8474,8.7942,8.7794,8.7794,8.7958,8.8053,8.8021,8.8058,8.8127,8.8455,8.8976,8.9384,8.9681,8.9719,8.9644,8.9867,9.061,9.139,9.1859,8.0066,8.0068,8.0077,8.0551,8.1334,8.1952,8.1893,8.1342,8.1048,8.0901,8.0461,8.0645,8.0498,8.0498,8.0828,8.1085,8.1489,8.1856,8.2113,8.215,8.2076,8.215,8.2186,8.2186,8.2186,8.2186,8.2186,8.2186,8.2223,8.2186,8.2186,8.2186,8.2186,8.2406,8.2774,8.3361,8.4462,8.5416,8.5967,8.6407,8.6811,8.6958,8.6958,8.6921,8.6995,8.6995,8.7031,8.7031,8.7031,8.7031,8.7031,8.7031,8.7031,8.7031,8.7252,8.7288,8.7399,8.7582,8.8169,8.894,8.9272,8.9528,9.0739,9.1179,9.1326,9.1363,9.1657,9.1657,9.1767,9.1803,9.1803,9.1803,9.1803,9.1583,9.1216,9.1069,9.1033,9.0996,9.0996,9.1253,9.173,9.173,9.1803,9.1803,9.173,9.1216,9.0775,9.0332,9.0184,9.0769,9.0545,8.9693,8.9617,8.9507,8.9277,8.8712,8.8232,8.7821,8.7674,8.7632,8.766,8.7794,8.7858,8.8038,8.8255,8.8615,8.905,8.9459,8.9979,8.9793,8.9719,8.9793,9.0053,9.0833,9.1316,7.9032,7.8792,7.8785,7.8917,7.9144,7.9931,8.003,7.9735,8.0272,8.0204,7.98,7.9543,7.9617,7.9874,7.9984,8.0167,8.0571,8.0865,8.1232,8.1636,8.1709,8.1966,8.2039,8.215,8.2186,8.2186,8.2186,8.2186,8.215,8.2186,8.2186,8.2186,8.2186,8.2186,8.237,8.2774,8.3544,8.4572,8.538,8.582,8.6187,8.6628,8.6811,8.6664,8.6775,8.6958,8.7031,8.7031,8.7031,8.7031,8.7031,8.7031,8.7031,8.7031,8.7031,8.7068,8.7105,8.7288,8.7692,8.8426,8.861,8.8977,8.9968,9.0115,9.0555,9.0739,9.1106,9.1363,9.162,9.1803,9.1803,9.1803,9.1803,9.1767,9.1546,9.1326,9.1326,9.1289,9.1473,9.1693,9.1803,9.1767,9.1803,9.1767,9.1693,9.14,9.0849,9.0152,8.9857,8.9929,8.9376,8.8453,8.8637,8.8819,8.8517,8.8287,8.7881,8.7549,8.7509,8.7468,8.7497,8.7563,8.7697,8.8058,8.8493,8.8705,8.87,8.9724,9.0239,8.9867,8.9496,8.9607,8.9756,9.0239,9.0573,7.7747,7.7129,7.7266,7.7003,7.6436,7.7369,7.7658,7.7481,7.8937,7.9599,7.9233,7.8154,7.8405,7.9066,7.9066,7.925,7.9653,8.0021,8.0461,8.0901,8.0901,8.1232,8.1782,8.2076,8.2003,8.2113,8.2076,8.1856,8.2039,8.2113,8.2186,8.2186,8.2186,8.2186,8.2223,8.2296,8.2847,8.3508,8.4499,8.5196,8.527,8.5857,8.6591,8.6114,8.6407,8.6885,8.6995,8.7031,8.7031,8.7031,8.7031,8.7031,8.7031,8.7031,8.7031,8.7031,8.7031,8.7252,8.7509,8.8096,8.7912,8.8096,8.85,8.883,8.9344,9.0152,9.0592,9.0739,9.0922,9.1289,9.1363,9.1657,9.1803,9.1803,9.1693,9.1583,9.1583,9.14,9.1216,9.1289,9.1069,9.1106,9.1326,9.1253,9.0849,9.1033,9.0555,8.9748,8.9344,8.9087,8.85,8.7543,8.7798,8.8053,8.7723,8.7497,8.7387,8.7203,8.7271,8.7305,8.7335,8.7398,8.7497,8.7854,8.8174,8.8137,8.8349,8.9113,8.94,8.8949,8.8801,8.9198,8.9496,8.9756,8.9644,7.5665,7.5543,7.6216,7.6367,7.6415,7.7708,7.7508,7.6619,7.7522,7.7951,7.7925,7.8089,7.8081,7.8018,7.8348,7.8636,7.8883,7.925,7.98,8.0021,8.0094,8.0534,8.1158,8.1305,8.1562,8.1819,8.1709,8.1415,8.1525,8.1819,8.2186,8.2186,8.2186,8.2186,8.2186,8.2186,8.2406,8.2737,8.3581,8.4389,8.4572,8.527,8.593,8.5783,8.604,8.6407,8.6591,8.6885,8.6958,8.7031,8.7031,8.7031,8.7031,8.7031,8.7031,8.7031,8.7031,8.7252,8.7582,8.7876,8.7839,8.8133,8.8463,8.8133,8.8426,8.9417,8.9968,9.0041,9.0262,9.0665,9.0996,9.1363,9.1693,9.1693,9.1657,9.1657,9.1657,9.1326,9.0922,9.0665,9.0335,9.0445,9.0665,9.0555,9.0115,8.9674,8.9087,8.85,8.8096,8.7839,8.7912,8.7215,8.7178,8.7215,8.7031,8.7031,8.7066,8.71,8.7135,8.7132,8.7132,8.7234,8.7368,8.7464,8.7674,8.7711,8.778,8.7984,8.8122,8.8038,8.8213,8.8652,8.8864,8.905,8.879,7.4697,7.4438,7.4566,7.4676,7.4863,7.5976,7.5966,7.5372,7.6003,7.6316,7.6336,7.676,7.705,7.7061,7.7527,7.7819,7.7987,7.8442,7.8846,7.9103,7.9228,7.98,8.0167,8.0429,8.0608,8.0901,8.1158,8.1085,8.1085,8.1746,8.2186,8.2186,8.2186,8.215,8.2186,8.2186,8.2186,8.226,8.2994,8.3434,8.3875,8.4535,8.4939,8.4939,8.5123,8.5527,8.5673,8.6004,8.6187,8.6518,8.6775,8.6995,8.7031,8.7031,8.7031,8.7031,8.7068,8.7215,8.7545,8.7729,8.7729,8.7949,8.7986,8.7509,8.7435,8.8316,8.8647,8.883,8.9601,9.0041,9.0078,9.0372,9.0812,9.0959,9.0665,9.0445,9.0445,9.0262,9.0078,9.0005,8.9821,8.9785,9.0005,9.0005,8.9638,8.9491,8.872,8.8206,8.7619,8.7105,8.7031,8.7031,8.7031,8.7031,8.7031,8.7031,8.7031,8.7031,8.7031,8.7066,8.7064,8.7098,8.72,8.7301,8.7368,8.7435,8.7468,8.7567,8.773,8.79,8.8001,8.8175,8.8318,8.8461,8.8381,7.4223,7.3567,7.3023,7.2747,7.2816,7.3541,7.3825,7.3849,7.4543,7.4903,7.4848,7.4806,7.5656,7.6332,7.6429,7.6647,7.6806,7.6963,7.7523,7.781,7.792,7.8468,7.9003,7.9425,7.9599,7.9957,8.0388,8.0608,8.0718,8.1269,8.1636,8.2039,8.2113,8.2076,8.215,8.2186,8.2186,8.2333,8.2663,8.2737,8.3141,8.3581,8.3838,8.3948,8.4022,8.4462,8.4572,8.4756,8.5086,8.582,8.6591,8.6885,8.7031,8.7031,8.7031,8.7031,8.7031,8.7068,8.7142,8.7178,8.7142,8.7105,8.7031,8.7031,8.7031,8.7215,8.7582,8.8023,8.883,8.9234,8.9271,8.9528,8.9968,9.0188,8.9784,8.9491,8.9454,8.9344,8.9271,8.9271,8.9125,8.9088,8.9198,8.9234,8.9124,8.9014,8.8757,8.8353,8.7876,8.7325,8.7031,8.7031,8.7031,8.7031,8.7031,8.7031,8.7031,8.7031,8.7031,8.7031,8.7031,8.7029,8.7064,8.71,8.7132,8.7234,8.7301,8.7402,8.7534,8.7697,8.7767,8.7868,8.7932,8.8075,8.8064,7.3015,7.292,7.2782,7.2671,7.2851,7.3464,7.3429,7.3092,7.3703,7.3995,7.3878,7.3559,7.3975,7.5406,7.5335,7.5477,7.5721,7.5721,7.5512,7.5657,7.6152,7.6863,7.75,7.7852,7.8289,7.8748,7.9283,7.9847,7.9735,8.0048,8.0906,8.1864,8.1379,8.1562,8.215,8.215,8.2113,8.226,8.2296,8.2406,8.2553,8.2994,8.3434,8.3544,8.3544,8.4058,8.4389,8.4572,8.5086,8.5783,8.6444,8.6775,8.6848,8.6848,8.6921,8.6738,8.6775,8.6921,8.6885,8.6958,8.6995,8.7031,8.7031,8.7031,8.7031,8.7031,8.7288,8.7362,8.7986,8.8353,8.8536,8.9014,8.9382,8.9419,8.9198,8.9197,8.916,8.8757,8.8426,8.8243,8.8023,8.8169,8.8426,8.8316,8.8059,8.7949,8.7876,8.7509,8.7472,8.7215,8.6995,8.6995,8.6995,8.7031,8.7031,8.7031,8.7031,8.7031,8.7031,8.7031,8.7031,8.7031,8.7031,8.7031,8.7031,8.71,8.7169,8.7234,8.7338,8.7435,8.7497,8.7563,8.766,8.7651,8.7641]}]]